     2              OBSERVATION DATA    GPS                 RINEX VERSION / TYPE
ASHTORIN USGS 05 - MAY - 93 07:16                           PGM / RUN BY / DATE
                                                            COMMENT
for the YMP-USGS. Primary user 8.3.1.17.4.10.2.             COMMENT
for the YMP-USGS. Primary user 8.3.1.17.4.10.2.             COMMENT
for the YMP-USGS. Primary user 8.3.1.17.4.10.2.             COMMENT
for the YMP-USGS. Primary user 8.3.1.17.4.10.2.             COMMENT
Original Marker Name: shos Shoshone_1933_USCGS              COMMENT
Campaign Name: USGS Yucca Profile                           COMMENT
4-Character Station Name: SHOS                              COMMENT
6-Character Antenna Code: ASHP12                            COMMENT
Vertical Measurement Point: EGP                             COMMENT
Vertical Offset to Rinex Ref. Point: 0.0593                 COMMENT
Radial Measurement Point: EGP                               COMMENT
Radial Offset to Rinex Ref. Point: 0.1425                   COMMENT
Antenna Height from Field Measurement: 1.2850 m             COMMENT
Additional Antenna Identification Info.:                    COMMENT
Ashtech L1/L2 Revision B (700228DE)                         COMMENT
Original XYZ: -2258194.3100 -4596692.6500 3790503.4000      COMMENT
New XYZ position is based on association with SCEC monument COMMENT
E1G0L0K7+0011. Position of that monument is believed to be  COMMENT
valid to within 1 m horizontally; vertical accuracy         COMMENT
should be no worse than 3-times this value.                 COMMENT
                                                            COMMENT
Revised Rinex header created by UCSD GPS archive for        COMMENT
GSAC on 08-Aug-2000 (2000:221) 00:39:54 GMT                 COMMENT
For assistance contact dagnew@ucsd.edu                      COMMENT
or anderson@python.ucsd.edu                                 COMMENT
                                                            COMMENT
SHOSHONE 1933                                               MARKER NAME
                                                            MARKER NUMBER
GDH US GEOLOGICAL SURVEY                                    OBSERVER / AGENCY
831 ASHTECH L-XII 6M24                                      REC # / TYPE / VERS
027 ASHTECH GEODETIC P                                      ANT # / TYPE
 -2258980.9106 -4578519.6073  3813650.2100                  APPROX POSITION XYZ
        1.2178        0.0000        0.0000                  ANTENNA: DELTA H/E/N
     1     2     0                                          WAVELENGTH FACT L1/2
     4    L1    L2    C1    D1                              # / TYPES OF OBSERV
    30                                                      INTERVAL
  1993     5     1    21    11   30.000000                  TIME OF FIRST OBS
  1993     5     2    15    38   30.000000                  TIME OF LAST OBS
                                                            END OF HEADER
 93  5  1 21 11 30.0000000  0  3  2 13 15                            0.000119940
  16234121.37818     -3286.04111  28251792.100         -76.070
  15282711.99316   -177445.43812  29577889.900       -3771.183
     59622.83616     20583.83412  31122513.044         309.257
 93  5  1 21 12  0.0000000  0  3  2 13 15                            0.000133940
       554.16319     -4759.64811  20756619.351         -48.656
       332.12616   -265315.58611  22061620.576       -3738.316
       968.09616     28260.43312  23629579.360         348.888
 93  5  1 21 12 30.0000000  0  4  2 13 15 26                         0.000888510
      -401.288 9     -5502.406 5  21955607.399         -14.389
   -111218.087 6   -352237.774 3  23239564.362       -3698.593
     12116.636 6     36947.618 4  24830870.326         395.148
  24789237.69617    -22169.65811  23726703.796        -331.281
 93  5  1 21 13  0.0000000  0  4  2 13 15 26                         0.000880410
      -282.986 9     -5410.228 7  21056252.480          22.004
   -221557.293 6   -438216.275 5  22319189.619       -3656.824
     24701.060 6     46753.643 5  23933888.061         443.540
  24780024.291 7    -29351.612 3  22825573.135        -283.080
 93  5  1 21 13 30.0000000  0  5  2 27 13 15 26                      0.000872890
       923.648 8     -4470.006 7  21056482.151          58.252
    871151.91417    147334.16615  21782356.858        2309.438
   -330631.997 6   -523209.487 5  22298433.763       -3614.918
     38731.363 6     57686.380 5  23936557.738         491.676
  24772262.626 7    -35399.674 5  22824096.727        -234.535
 93  5  1 21 14  0.0000000  0  5  2 27 13 15 26                      0.000865910
      3180.162 8     -2711.684 8  21056911.402          92.027
    941031.395 7    201785.658 5  21795654.864        2349.035
   -438481.403 6   -607247.926 5  22277910.494       -3575.161
     54177.360 6     69722.207 5  23939497.053         537.804
  24765924.750 7    -40338.297 5  22822890.939        -188.248
 93  5  1 21 14 30.0000000  0  5  2 27 13 15 26                      0.000859460
      6418.463 8      -188.358 8  21057527.487         123.750
   1012073.804 7    257143.319 5  21809173.674        2386.879
   -545162.382 6   -690375.868 5  22257609.638       -3537.062
     70979.278 6     82814.589 5  23942693.801         582.060
  24760936.261 7    -44225.496 5  22821941.599        -144.639
 93  5  1 21 15  0.0000000  0  5  2 27 13 15 26                      0.000853480
     10590.755 8      3062.764 9  21058321.367         154.517
   1084221.512 7    313362.220 6  21822902.989        2423.101
   -650724.343 6   -772631.837 5  22237521.766       -3500.386
     89084.881 6     96922.924 5  23946139.115         624.913
  24757234.688 6    -47109.874 5  22821236.840        -102.223
 93  5  1 21 15 30.0000000  0  5  2 27 13 15 26                      0.000847960
     15684.662 8      7032.036 9  21059290.715         184.993
   1157460.847 7    370431.789 6  21836840.091        2459.486
   -755194.786 6   -854037.311 5  22217641.337       -3464.345
    108463.582 6    112023.131 5  23949826.613         666.884
  24754791.861 6    -49013.378 5  22820772.182         -60.825
 93  5  1 21 16  0.0000000  0  5  2 27 13 15 26                      0.000842860
     21688.412 9     11710.272 9  21060433.046         215.320
   1231779.160 7    428342.086 6  21850982.420        2495.108
   -858594.526 6   -934608.463 5  22197965.541       -3428.917
    129091.412 5    128096.764 5  23953751.954         708.359
  24753567.544 6    -49967.455 5  22820539.209         -20.915
 93  5  1 21 16 30.0000000  0  5  2 27 13 15 26                      0.000838160
     28605.658 8     17100.328 9  21061749.384         245.532
   1307170.479 7    487088.507 6  21865328.729        2530.647
   -960931.951 6  -1014351.868 5  22178490.729       -3393.910
    150956.942 5    145134.854 5  23957912.451         749.080
  24753531.571 7    -49995.493 6  22820532.671          18.149
 93  5  1 21 17  0.0000000  0  5  2 27 13 15 26                      0.000833830
     36392.636 8     23168.093 9  21063231.218         273.835
   1383594.319 7    546639.507 6  21879872.161        2564.623
  -1062251.035 6  -1093301.705 5  22159210.579       -3360.380
    174013.698 5    163101.146 5  23962300.009         788.283
  24754635.285 6    -49135.490 6  22820742.398          55.639
 93  5  1 21 17 30.0000000  0  5  2 27 13 15 26                      0.000829880
     45041.781 8     29907.682 9  21064877.228         302.887
   1461050.751 7    606995.075 6  21894611.465        2599.403
  -1162548.985 7  -1171455.850 5  22140124.702       -3325.849
    198260.815 6    181994.948 5  23966914.862         828.379
  24756868.383 6    -47395.476 6  22821167.035          93.597
 93  5  1 21 18  0.0000000  0  5  2 27 13 15 26                      0.000826310
     54543.752 8     37311.796 9  21066685.329         330.307
   1539535.211 7    668151.758 6  21909546.657        2632.724
  -1261816.917 6  -1248807.443 5  22121234.099       -3292.178
    223703.954 6    201820.835 5  23971756.301         867.577
  24760237.305 6    -44770.343 6  22821808.029         130.869
 93  5  1 21 18 30.0000000  0  5  2 27 13 15 26                      0.000823120
     64848.873 8     45341.760 9  21068646.321         356.243
   1619004.408 7    730075.747 6  21924669.417        2664.804
  -1360087.532 6  -1325381.869 5  22102534.425       -3259.459
    250306.617 6    222550.168 5  23976818.830         905.715
  24764714.510 6    -41281.696 6  22822660.060         167.407
 93  5  1 21 19  0.0000000  0  5  2 27 13 15 26                      0.000820290
     75907.902 8     53959.187 9  21070750.954         380.695
   1699411.336 7    792730.413 6  21939970.504        2695.243
  -1457395.694 6  -1401206.319 5  22084017.032       -3228.055
    278031.262 6    244153.677 5  23982094.281         942.358
  24770277.894 7    -36946.582 6  22823719.398         203.193
 93  5  1 21 19 30.0000000  0  5  2 27 13 15 26                      0.000817820
     87680.678 8     63132.760 9  21072991.752         403.828
   1780707.613 7    856078.118 6  21955440.496        2724.252
  -1553776.725 6  -1476308.312 5  22065676.248       -3197.602
    306839.476 6    266601.708 5  23987576.941         977.944
  24776902.853 7    -31784.332 6  22824980.171         238.246
 93  5  1 21 20  0.0000000  0  5  2 27 13 15 26                      0.000815680
    100126.526 8     72830.823 9  21075360.262         425.996
   1862851.016 7    920085.900 6  21971072.034        2751.911
  -1649265.166 6  -1550714.785 5  22047505.401       -3168.308
    336694.200 6    289865.145 5  23993258.331        1012.368
  24784562.343 7    -25815.928 6  22826438.024         272.239
 93  5  1 21 20 30.0000000  0  5  2 27 13 15 26                      0.000813840
    113231.531 9     83042.510 9  21077853.946         447.558
   1945807.577 7    984727.305 6  21986857.867        2778.412
  -1743888.431 7  -1624447.154 5  22029498.757       -3140.044
    367564.430 6    313919.759 5  23999133.407        1045.501
  24793219.512 7    -19070.119 6  22828085.014         304.816
 93  5  1 21 21  0.0000000  0  5  2 27 13 15 26                      0.000812280
    126977.273 9     93753.471 9  21080469.546         468.653
   2029545.468 7   1049977.561 6  22002793.233        2803.906
  -1837673.046 6  -1697526.021 5  22011652.362       -3112.534
    399420.802 6    338742.972 5  24005194.634        1078.027
  24802843.824 6    -11570.692 6  22829916.319         336.559
 93  5  1 21 21 30.0000000  0  5  2 27 13 15 26                      0.000810960
    141343.818 9    104948.176 9  21083203.252         489.186
   2114033.058 7   1115811.972 6  22018870.296        2828.650
  -1930642.166 7  -1769969.371 5  21993961.056       -3085.463
    432236.655 5    364313.774 5  24011438.151        1109.787
  24813405.812 6     -3340.590 6  22831926.267         367.599
 93  5  1 21 22  0.0000000  0  5  2 27 13 15 26                      0.000809890
    156321.775 9    116619.307 9  21086053.300         509.274
   2199253.987 7   1182217.821 6  22035087.704        2852.654
  -2022812.067 7  -1841789.995 5  21976421.381       -3059.208
    465992.246 6    390616.755 5  24017862.068        1140.587
  24824880.806 6      5600.921 6  22834109.754         397.343
 93  5  1 21 22 30.0000000  0  5  2 27 13 15 26                      0.000809040
    171887.198 8    128748.197 9  21089015.069         528.099
   2285181.330 7   1249174.136 6  22051439.429        2875.593
  -2114202.079 7  -1913002.941 5  21959030.768       -3033.633
    500665.436 5    417634.854 5  24024460.692        1170.817
  24837238.165 7     15229.988 6  22836461.736         426.356
 93  5  1 21 23  0.0000000  0  5  2 27 13 15 26                      0.000808410
    187997.105 8    141301.369 9  21092080.596         545.646
   2371782.223 7   1316655.264 6  22067918.808        2897.558
  -2204831.339 7  -1983623.107 5  21941783.520       -3008.574
    536234.126 6    445350.729 5  24031230.049        1200.275
  24850460.209 6     25532.846 6  22838977.755         454.886
 93  5  1 21 23 30.0000000  0  5  2 27 13 15 26                      0.000808000
    204620.889 8    154254.960 9  21095244.116         562.553
   2459041.130 7   1384649.146 6  22084523.805        2919.642
  -2294715.368 7  -2053662.530 5  21924679.470       -2983.837
    572679.167 6    473749.473 5  24038165.674        1229.243
  24864528.804 6     36495.344 6  22841654.622         482.806
 93  5  1 21 24  0.0000000  0  5  2 27 13 15 26                      0.000807790
    221750.058 8    167602.369 9  21098503.771         579.181
   2546958.893 7   1453156.415 6  22101253.588        2941.371
  -2383860.611 7  -2123126.258 5  21907715.774       -2959.276
    609990.699 6    502823.335 5  24045265.160        1258.008
  24879423.479 6     48101.548 6  22844489.472         510.005
 93  5  1 21 24 30.0000000  0  5  2 27 13 15 26                      0.000807790
    239365.635 8    181328.772 9  21101856.078         595.125
   2635514.622 7   1522160.803 6  22118105.644        2962.460
  -2472277.337 7  -2192022.323 5  21890891.043       -2935.277
    648155.569 6    532562.220 5  24052528.235        1286.243
  24895124.812 6     60336.308 6  22847477.422         536.695
 93  5  1 21 25  0.0000000  0  5  2 27 13 15 26                      0.000807970
    257456.733 8    195425.731 9  21105298.716         610.948
   2724707.391 7   1591661.614 6  22135078.414        2983.604
  -2559976.921 7  -2260359.631 5  21874201.865       -2911.624
    687158.417 5    562954.046 5  24059949.137        1313.731
  24911620.760 6     73190.245 6  22850616.464         562.767
 93  5  1 21 25 30.0000000  0  5  2 27 13 15 26                      0.000808340
    276032.253 8    209900.152 9  21108833.569         627.414
   2814538.896 7   1661660.126 6  22152172.812        3004.827
  -2646971.109 7  -2328147.248 5  21857647.796       -2888.061
    726985.107 6    593987.810 5  24067527.918        1341.214
  24928893.530 6     86649.524 6  22853903.364         588.666
 93  5  1 21 26  0.0000000  0  5  2 27 13 15 26                      0.000808850
    295100.552 8    224758.558 9  21112462.117         643.474
   2904987.899 7   1732139.790 6  22169384.654        3024.935
  -2733266.488 7  -2395390.295 5  21841226.012       -2865.124
    767625.628 6    625655.726 5  24075261.610        1368.018
  24946939.389 6    100711.184 6  22857337.357         614.231
 93  5  1 21 26 30.0000000  0  5  2 27 13 15 26                      0.000809520
    314636.686 8    239981.519 9  21116179.762         658.829
   2996036.003 6   1803086.289 6  22186710.113        3045.078
  -2818880.057 7  -2462102.142 5  21824934.514       -2842.623
    809059.721 6    657942.028 5  24083146.061        1394.145
  24965750.981 6    115369.533 6  22860917.057         639.740
 93  5  1 21 27  0.0000000  0  5  2 27 13 15 26                      0.000810340
    334632.325 8    255562.520 9  21119984.809         674.308
   3087693.010 6   1874507.247 6  22204151.935        3065.170
  -2903827.442 7  -2528294.871 5  21808769.733       -2820.603
    851268.392 6    690831.882 5  24091178.855        1419.675
  24985320.515 6    130618.471 6  22864641.141         664.815
 93  5  1 21 27 30.0000000  0  5  2 27 13 15 26                      0.000811280
    355082.813 8    271497.948 9  21123876.206         688.974
   3179932.704 6   1946382.268 6  22221705.183        3084.248
  -2988124.314 7  -2593980.667 5  21792728.248       -2799.123
    894232.515 5    724310.360 5  24099354.280        1444.620
  25005634.130 6    146447.270 6  22868507.230         689.582
 93  5  1 21 28  0.0000000  0  5  2 27 13 15 26                      0.000812360
    375960.876 8    287766.565 9  21127849.004         702.825
   3272745.462 7   2018703.809 6  22239367.398        3103.559
  -3071778.643 7  -2659165.783 5  21776809.440       -2777.730
    937940.735 6    758368.671 5  24107671.386        1469.398
  25026687.878 6    162852.688 6  22872513.731         714.082
 93  5  1 21 28 30.0000000  0  5  2 27 13 15 26                      0.000813580
    397246.066 8    304352.421 9  21131899.829         716.254
   3366140.229 6   2091478.872 6  22257139.424        3122.643
  -3154794.522 7  -2723853.439 5  21761011.614       -2756.708
    982386.020 5    793001.322 5  24116128.511        1493.638
  25048471.083 6    179826.554 6  22876658.319         738.049
 93  5  1 21 29  0.0000000  0  5  2 27 13 15 26                      0.000814930
    418937.545 8    321254.857 9  21136027.542         729.570
   3460091.530 7   2164687.630 6  22275017.366        3140.358
  -3237177.440 7  -2788047.871 5  21745334.578       -2735.626
   1027558.952 5    828200.986 5  24124724.610        1517.849
  25070970.273 6    197358.345 6  22880939.166         761.797
 93  5  1 21 29 30.0000000  0  5  2 27 13 15 26                      0.000816420
    441009.501 8    338453.778 9  21140227.775         741.614
   3554558.493 7   2238298.144 6  22292994.300        3157.425
  -3318930.990 7  -2851751.865 5  21729777.447       -2714.733
   1073453.183 6    863962.669 5  24133458.527        1541.638
  25094179.669 6    215443.533 6  22885355.640         785.381
 93  5  1 21 30  0.0000000  0  5  2 27 13 15 26                      0.000818050
    463438.912 8    355931.230 9  21144496.029         753.561
   3649530.406 7   2312302.161 6  22311066.630        3173.731
  -3400060.461 7  -2914969.558 5  21714339.228       -2693.988
   1120060.239 6    900279.811 5  24142327.745        1565.357
  25118087.608 6    234073.052 6  22889905.527         808.275
 93  5  1 21 30 30.0000000  0  5  2 27 13 15 26                      0.000819800
    486224.481 8    373686.210 9  21148831.959         765.533
   3744973.877 7   2386673.619 6  22329229.294        3188.907
  -3480570.564 7  -2977704.652 5  21699018.821       -2673.431
   1167371.814 6    937145.953 5  24151330.925        1588.655
  25142673.366 6    253230.742 6  22894583.302         830.634
 93  5  1 21 31  0.0000000  0  5  2 27 13 15 26                      0.000821650
    509372.301 8    391723.462 9  21153236.838         777.569
   3840862.839 6   2461392.211 6  22347476.045        3203.680
  -3560461.750 7  -3039957.488 5  21683815.559       -2652.771
   1215384.085 6    974558.062 5  24160467.597        1612.083
  25167922.256 6    272905.156 6  22899388.753         852.549
 93  5  1 21 31 30.0000000  0  5  2 27 13 15 26                      0.000823600
    532889.358 8    410048.442 9  21157711.980         790.277
   3937209.547 6   2536467.492 6  22365810.301        3219.298
  -3639730.408 7  -3101725.178 5  21668731.539       -2631.849
   1264097.507 6   1012516.500 5  24169736.840        1635.442
  25193826.440 6    293090.200 6  22904318.069         874.168
 93  5  1 21 32  0.0000000  0  5  2 27 13 15 26                      0.000825640
    556798.441 9    428678.870 9  21162261.929         803.683
   4034018.294 6   2611902.766 6  22384232.900        3234.473
  -3718369.167 7  -3163002.097 5  21653766.578       -2610.862
   1313516.012 6   1051024.394 5  24179141.634        1658.989
  25220370.843 6    313774.117 6  22909369.249         895.319
 93  5  1 21 32 30.0000000  0  5  2 27 13 15 26                      0.000827750
    581107.879 9    447621.283 9  21166888.089         816.996
   4131281.763 6   2687692.426 6  22402741.666        3249.896
  -3796380.905 7  -3223790.386 5  21638921.238       -2589.956
   1363633.354 5   1090076.857 5  24188679.220        1682.228
  25247547.219 6    334950.452 5  22914540.626         916.517
 93  5  1 21 33  0.0000000  0  5  2 27 13 15 26                      0.000829930
    605812.209 8    466871.392 9  21171589.174         829.762
   4229013.556 6   2763846.971 6  22421338.929        3265.594
  -3873771.067 7  -3284094.388 5  21624194.472       -2569.543
   1414440.880 6   1129667.084 5  24198347.094        1704.781
  25275359.852 6    356622.590 5  22919833.439         937.622
 93  5  1 21 33 30.0000000  0  5  2 27 13 15 26                      0.000832190
    630886.341 8    486409.673 9  21176360.312         841.629
   4327213.480 6   2840366.308 6  22440026.175        3280.844
  -3950558.394 7  -3343928.599 5  21609582.376       -2549.701
   1465916.224 6   1169777.696 5  24208142.572        1726.730
  25303805.440 6    378787.957 5  22925246.585         958.672
 93  5  1 21 34  0.0000000  0  5  2 27 13 15 26                      0.000834530
    656303.091 8    506214.926 9  21181196.713         852.756
   4425860.005 6   2917233.679 6  22458797.369        3295.683
  -4026757.059 7  -3403304.120 5  21595082.236       -2530.270
   1518042.326 5   1210395.396 5  24218062.256        1748.215
  25332884.558 6    401446.930 5  22930780.620         979.911
 93  5  1 21 34 30.0000000  0  5  2 27 13 15 26                      0.000836970
    682045.019 8    526273.558 9  21186095.361         863.193
   4524958.603 6   2994453.234 6  22477655.914        3310.789
  -4102377.205 7  -3462228.859 5  21580692.197       -2511.245
   1570805.195 6   1251509.318 5  24228102.523        1769.170
  25362601.567 6    424603.019 5  22936435.504        1000.993
 93  5  1 21 35  0.0000000  0  5  2 27 13 15 26                      0.000839490
    708093.361 8    546570.954 9  21191052.080         873.289
   4624505.326 6   3072022.038 6  22496598.900        3325.511
  -4177430.903 7  -3520712.220 5  21566409.787       -2492.479
   1624189.602 6   1293107.532 5  24238261.615        1789.704
  25392942.084 6    448244.914 5  22942209.028        1021.462
 93  5  1 21 35 30.0000000  0  5  2 27 13 15 26                      0.000842080
    734444.660 8    567104.430 9  21196066.508         883.290
   4724485.057 6   3149928.236 6  22515624.697        3339.579
  -4251922.850 7  -3578757.807 5  21552234.599       -2473.832
   1678187.590 5   1335183.848 5  24248536.277        1809.986
  25423887.348 6    472358.037 5  22948097.713        1041.249
 93  5  1 21 36  0.0000000  0  5  2 27 13 15 26                      0.000844740
    761097.988 8    587873.244 9  21201138.776         893.644
   4824879.336 6   3228157.436 6  22534729.049        3353.378
  -4325858.464 7  -3636369.908 5  21538164.638       -2455.227
   1732790.382 6   1377731.461 5  24258926.643        1830.118
  25455412.600 6    496923.109 5  22954096.199        1060.379
 93  5  1 21 36 30.0000000  0  5  2 27 13 15 26                      0.000847450
    788061.782 8    608883.973 9  21206269.784         903.822
   4925685.725 6   3306707.787 6  22553912.222        3366.818
  -4399240.711 7  -3693550.840 5  21524200.757       -2436.975
   1787991.842 6   1420745.589 5  24269431.534        1849.792
  25487495.291 6    521922.563 5  22960201.935        1078.378
 93  5  1 21 37  0.0000000  0  5  2 27 13 15 26                      0.000850190
    815327.676 8    630130.119 9  21211458.043         913.836
   5026888.305 6   3385566.849 6  22573170.540        3379.865
  -4472075.758 7  -3750305.396 5  21510340.520       -2418.686
   1843781.941 5   1464218.390 5  24280048.686        1869.431
  25520118.578 6    547343.256 5  22966410.092        1096.392
 93  5  1 21 37 30.0000000  0  5  2 27 13 15 26                      0.000852970
    842893.475 8    651609.944 9  21216703.852         923.912
   5128480.112 6   3464729.198 6  22592502.997        3393.088
  -4544357.944 7  -3806629.119 5  21496585.655       -2400.072
   1900162.973 5   1508151.545 5  24290776.768        1889.311
  25553281.163 6    573184.173 5  22972720.507        1114.617
 93  5  1 21 38  0.0000000  0  5  2 27 13 15 26                      0.000855800
    870764.694 8    673327.763 9  21222007.661         934.081
   5230474.371 6   3544205.145 6  22611910.911        3406.477
  -4616077.247 7  -3862514.233 5  21482938.360       -2381.209
   1957141.737 5   1552550.671 5  24301620.029        1909.282
  25586997.578 6    599456.636 5  22979136.934        1133.206
 93  5  1 21 38 30.0000000  0  5  2 27 13 15 26                      0.000858700
    898925.299 8    695271.083 9  21227366.398         943.017
   5332868.724 6   3623992.849 6  22631396.457        3419.535
  -4687233.366 7  -3917960.510 5  21469397.445       -2362.665
   2014715.822 5   1597413.607 5  24312575.789        1928.875
  25621268.561 6    626161.254 5  22985658.787        1151.489
 93  5  1 21 39  0.0000000  0  5  2 27 13 15 26                      0.000861650
    927355.176 8    717424.231 9  21232776.684         952.111
   5435644.318 6   3704077.633 6  22650954.524        3431.931
  -4757830.298 7  -3972971.072 5  21455963.146       -2344.018
   2072877.252 5   1642734.079 5  24323643.030        1948.301
  25656094.813 6    653298.522 5  22992286.504        1169.930
 93  5  1 21 39 30.0000000  0  5  2 27 13 15 26                      0.000864660
    956056.101 8    739788.569 9  21238238.353         961.318
   5538783.280 6   3784445.553 5  22670580.641        3444.080
  -4827874.479 7  -4027550.884 5  21442634.103       -2325.552
   2131616.042 5   1688504.562 5  24334820.726        1967.590
  25691471.691 6    680864.863 5  22999018.350        1188.611
 93  5  1 21 40  0.0000000  0  5  2 27 13 15 26                      0.000867730
    985039.902 8    762373.337 9  21243753.565         970.798
   5642283.353 6   3865094.873 6  22690277.008        3455.614
  -4897360.346 7  -4081695.663 5  21429411.228       -2306.955
   2190934.188 5   1734726.569 5  24346108.950        1986.816
  25727413.100 6    708871.103 5  23005857.636        1207.269
 93  5  1 21 40 30.0000000  0  5  2 27 13 15 26                      0.000870830
   1014305.785 8    785177.904 9  21249322.540         980.369
   5746120.259 6   3946006.639 5  22710035.838        3466.749
  -4966291.531 7  -4135408.237 5  21416294.058       -2288.511
   2250825.541 5   1781395.139 5  24357505.997        2005.826
  25763905.911 6    737306.984 5  23012801.898        1225.531
 93  5  1 21 41  0.0000000  0  5  2 27 13 15 26                      0.000873950
   1043875.334 8    808219.101 9  21254949.815         990.858
   5850285.686 6   4027174.394 5  22729858.466        3477.710
  -5034670.909 7  -4188690.831 5  21403281.786       -2270.154
   2311283.668 6   1828505.275 5  24369010.432        2024.655
  25800942.231 6    766166.406 5  23019849.959        1243.419
 93  5  1 21 41 30.0000000  0  5  2 27 13 15 26                      0.000877100
   1073753.608 8    831500.858 9  21260635.249        1001.037
   5954789.185 6   4108605.586 5  22749744.828        3489.309
  -5102497.255 7  -4241542.469 6  21390375.002       -2251.466
   2372305.872 5   1876055.096 5  24380622.983        2043.698
  25838515.363 6    795444.095 5  23026999.508        1261.546
 93  5  1 21 42  0.0000000  0  5  2 27 13 15 26                      0.000880280
   1103924.698 8    855010.782 8  21266376.474        1010.405
   6059628.046 6   4190298.091 5  22769695.117        3500.102
  -5169771.075 7  -4293963.576 6  21377573.134       -2233.294
   2433888.342 5   1924041.452 5  24392341.280        2061.992
  25876615.301 6    825132.298 5  23034249.543        1278.505
 93  5  1 21 42 30.0000000  0  5  2 27 13 15 26                      0.000883480
   1134374.993 8    878738.281 8  21272170.812        1019.758
   6164803.336 6   4272252.788 5  22789708.911        3511.717
  -5236495.788 7  -4345956.814 5  21364875.745       -2214.868
   2496024.424 5   1972459.028 5  24404165.627        2080.552
  25915226.497 6    855218.900 5  23041597.425        1295.745
 93  5  1 21 43  0.0000000  0  5  2 27 13 15 26                      0.000886720
   1165102.848 8    902682.045 8  21278018.014        1028.663
   6270328.673 6   4354480.170 5  22809789.512        3523.479
  -5302663.836 7  -4397516.289 6  21352284.381       -2196.172
   2558718.032 5   2021311.281 5  24416096.059        2099.167
  25954360.314 6    885712.678 5  23049044.260        1313.328
 93  5  1 21 43 30.0000000  0  5  2 27 13 15 26                      0.000890030
   1196090.897 8    926828.571 8  21283914.691        1037.013
   6376214.690 6   4436988.677 5  22829939.361        3535.420
  -5368263.077 8  -4448632.526 6  21339801.071       -2177.216
   2621978.387 5   2070605.068 5  24428134.283        2117.949
  25994034.389 6    916627.517 5  23056593.675        1331.367
 93  5  1 21 44  0.0000000  0  5  2 27 13 15 26                      0.000893400
   1227324.086 8    951166.098 8  21289858.319        1045.037
   6482445.961 6   4519766.162 5  22850154.952        3546.496
  -5433301.663 7  -4499311.880 6  21327424.552       -2158.816
   2685793.598 5   2120331.117 5  24440277.160        2136.200
  26034234.896 6    947952.514 5  23064243.776        1348.504
 93  5  1 21 44 30.0000000  0  5  2 27 13 15 26                      0.000896810
   1258791.429 8    975686.090 8  21295846.372        1052.773
   6589005.514 6   4602799.486 5  22870431.878        3557.445
  -5497794.742 7  -4549566.196 6  21315152.318       -2140.752
   2750145.575 5   2170475.461 5  24452523.351        2153.927
  26074946.548 6    979675.804 5  23071990.853        1365.396
 93  5  1 21 45  0.0000000  0  5  2 27 13 15 26                      0.000900270
   1290500.201 8   1000394.221 9  21301880.484        1061.121
   6695894.317 6   4686089.359 5  22890772.528        3568.603
  -5561742.115 8  -4599395.276 6  21302983.501       -2122.342
   2815031.459 5   2221035.944 5  24464871.640        2171.821
  26116161.486 6   1011791.309 5  23079833.965        1382.195
 93  5  1 21 45 30.0000000  0  5  2 27 13 15 26                      0.000903770
   1322464.074 8   1025301.099 9  21307963.174        1069.796
   6803126.641 6   4769646.901 5  22911177.580        3579.973
  -5625136.088 8  -4648793.114 6  21290919.933       -2104.010
   2880455.232 5   2272015.502 5  24477321.627        2189.610
  26157878.403 6   1044297.896 5  23087773.075        1398.682
 93  5  1 21 46  0.0000000  0  5  2 27 13 15 26                      0.000907300
   1354693.124 8   1050414.638 9  21314096.189        1078.712
   6910687.389 6   4853460.389 5  22931647.131        3590.665
  -5687983.307 7  -4697764.920 6  21278960.612       -2085.904
   2946406.498 5   2323405.984 5  24489871.189        2207.040
  26200076.058 6   1077179.161 5  23095803.076        1414.584
 93  5  1 21 46 30.0000000  0  5  2 27 13 15 26                      0.000910840
   1387189.810 8   1075736.715 9  21320280.207        1087.617
   7018571.518 6   4937525.824 5  22952177.179        3601.432
  -5750289.470 8  -4746315.145 6  21267104.002       -2067.974
   3012876.575 5   2375200.859 5  24502519.696        2224.216
  26242751.707 6   1110432.852 5  23103924.568        1430.295
 93  5  1 21 47  0.0000000  0  5  2 27 13 15 26                      0.000914390
   1419949.637 8   1101263.830 8  21326514.341        1096.235
   7126763.607 6   5021831.253 5  22972764.604        3611.199
  -5812063.118 8  -4794450.401 6  21255348.848       -2050.309
   3079853.525 5   2427390.714 5  24515264.640        2240.855
  26285895.183 6   1144051.080 5  23112133.954        1445.873
 93  5  1 21 47 30.0000000  0  5  2 27 13 15 26                      0.000917950
   1452966.601 8   1126991.326 8  21332797.442        1104.923
   7235236.665 6   5106355.622 5  22993407.926        3620.238
  -5873305.605 8  -4842171.755 6  21243694.785       -2032.456
   3147332.360 5   2479971.610 5  24528105.416        2257.756
  26329508.457 6   1178035.414 5  23120432.907        1461.620
 93  5  1 21 48  0.0000000  0  5  2 27 13 15 26                      0.000921500
   1486240.813 8   1152919.261 8  21339129.418        1113.485
   7343970.838 6   5191083.420 5  23014098.480        3628.893
  -5934014.060 8  -4889477.005 6  21232141.985       -2014.665
   3215313.064 5   2532943.501 5  24541041.782        2274.473
  26373591.422 6   1212385.737 5  23128821.874        1477.458
 93  5  1 21 48 30.0000000  0  5  2 27 13 15 26                      0.000925070
   1519768.956 8   1179045.078 8  21345509.473        1121.701
   7452966.894 6   5276015.342 5  23034839.801        3637.332
  -5994193.298 8  -4936369.880 6  21220690.572       -1997.307
   3283787.342 5   2586300.093 5  24554072.550        2290.501
  26418144.065 6   1247101.994 5  23137299.986        1492.601
 93  5  1 21 49  0.0000000  0  5  2 27 13 15 26                      0.000928620
   1553545.400 8   1205364.371 8  21351936.702        1130.051
   7562207.204 6   5361137.516 5  23055627.901        3645.472
  -6053851.792 8  -4982856.959 6  21209337.770       -1979.924
   3352743.603 5   2640032.217 5  24567195.110        2306.572
  26463148.259 6   1282170.149 5  23145864.043        1507.564
 93  5  1 21 49 30.0000000  0  5  2 27 13 15 26                      0.000932160
   1587569.424 8   1231876.581 8  21358411.439        1138.325
   7671701.219 6   5446457.447 5  23076463.726        3654.337
  -6112989.196 8  -5028938.006 6  21198084.211       -1962.482
   3422179.152 5   2694137.734 5  24580407.800        2322.463
  26508601.181 6   1317587.924 5  23154513.634        1522.713
 93  5  1 21 50  0.0000000  0  5  2 27 13 15 26                      0.000935710
   1621845.131 8   1258584.919 8  21364933.674        1146.650
   7781475.620 6   5531995.846 5  23097352.848        3663.914
  -6171601.431 8  -5074609.817 6  21186931.044       -1945.062
   3492093.022 5   2748616.096 5  24593711.859        2338.393
  26554509.347 6   1353360.461 5  23163249.670        1537.827
 93  5  1 21 50 30.0000000  0  5  2 27 13 15 26                      0.000939280
   1656365.427 8   1285483.830 8  21371502.775        1154.828
   7891533.600 6   5617755.174 5  23118296.786        3673.368
  -6229687.515 8  -5119871.671 6  21175877.585       -1927.201
   3562483.976 5   2803466.179 5  24607106.724        2354.507
  26600868.598 6   1389484.509 5  23172072.126        1552.844
 93  5  1 21 51  0.0000000  0  5  2 27 13 15 26                      0.000942860
   1691127.548 8   1312571.190 8  21378117.718        1162.653
   8001873.038 6   5703733.882 5  23139293.417        3682.683
  -6287238.269 8  -5164716.359 6  21164925.867       -1909.404
   3633358.277 5   2858692.825 5  24620593.840        2370.576
  26647682.479 6   1425962.782 5  23180979.390        1568.198
 93  5  1 21 51 30.0000000  0  5  2 27 13 15 26                      0.000946470
   1726123.966 8   1339841.117 8  21384777.226        1170.457
   8112494.582 6   5789932.329 5  23160343.399        3691.949
  -6344250.548 8  -5209141.455 6  21154076.518       -1891.418
   3704715.558 5   2914295.863 5  24634172.158        2386.587
  26694960.780 6   1462802.949 5  23189976.991        1583.735
 93  5  1 21 52  0.0000000  0  5  2 27 13 15 26                      0.000950100
   1761359.797 8   1367297.589 8  21391482.234        1178.755
   8223385.859 6   5876341.014 5  23181445.788        3700.817
  -6400722.130 8  -5253145.235 6  21143330.308       -1873.147
   3776554.615 5   2970274.351 5  24647842.974        2402.834
  26742694.647 6   1499998.112 5  23199060.520        1598.679
 93  5  1 21 52 30.0000000  0  5  2 27 13 15 26                      0.000953740
   1796841.015 8   1394945.285 8  21398234.290        1186.690
   8334535.338 6   5962950.878 5  23202597.166        3709.322
  -6456646.838 8  -5296722.901 6  21132688.273       -1855.118
   3848878.365 5   3026630.594 5  24661605.966        2418.755
  26790879.777 6   1537544.901 5  23208229.116        1613.633
 93  5  1 21 53  0.0000000  0  5  2 27 13 15 26                      0.000957390
   1832565.187 8   1422782.288 8  21405032.485        1194.900
   8445946.517 6   6049764.658 5  23223798.206        3718.028
  -6512029.533 8  -5339878.194 6  21122149.211       -1837.054
   3921679.154 5   3083358.299 5  24675459.336        2434.526
  26839519.244 6   1575445.721 5  23217485.600        1628.960
 93  5  1 21 53 30.0000000  0  5  2 27 13 15 26                      0.000961060
   1868535.166 8   1450810.840 8  21411877.346        1203.136
   8557614.976 6   6136778.934 5  23245048.307        3726.573
  -6566868.984 8  -5382610.175 6  21111713.504       -1818.888
   3994954.434 5   3140455.959 5  24689402.771        2450.436
  26888609.494 6   1613697.761 5  23226826.641        1643.670
 93  5  1 21 54  0.0000000  0  5  2 27 13 15 26                      0.000964750
   1904743.629 8   1479025.202 8  21418767.594        1210.615
   8669540.785 6   6223993.727 5  23266347.063        3735.152
  -6621163.731 8  -5424917.720 6  21101381.618       -1800.736
   4068702.629 5   3197922.079 5  24703437.255        2466.043
  26938131.823 6   1652286.530 5  23236251.158        1657.956
 93  5  1 21 54 30.0000000  0  5  2 27 13 15 26                      0.000968460
   1941169.072 8   1507408.643 8  21425699.078        1217.869
   8781726.243 6   6311410.837 5  23287694.803        3743.904
  -6674912.306 8  -5466799.710 6  21091153.677       -1782.405
   4142921.743 5   3255754.999 5  24717560.361        2481.895
  26988089.736 6   1691214.726 5  23245757.847        1672.696
 93  5  1 21 55  0.0000000  0  5  2 27 13 15 26                      0.000972180
   1977819.823 8   1535967.658 8  21432673.558        1225.664
   8894168.190 6   6399027.792 5  23309091.402        3752.204
  -6728109.938 8  -5508252.362 6  21081030.426       -1764.074
   4217613.056 5   3313956.035 5  24731773.854        2497.528
  27038480.098 6   1730479.862 5  23255346.911        1686.694
 93  5  1 21 55 30.0000000  0  5  2 27 13 15 26                      0.000975920
   2014713.398 8   1564715.875 8  21439694.319        1233.999
   9006866.124 6   6486844.310 5  23330537.306        3761.218
  -6780752.700 8  -5549272.627 6  21071012.531       -1745.291
   4292777.240 5   3372525.568 5  24746077.164        2513.524
  27089288.100 6   1770070.456 5  23265016.044        1700.672
 93  5  1 21 56  0.0000000  0  5  2 27 13 15 26                      0.000979670
   2051858.590 8   1593660.163 8  21446762.956        1242.689
   9119835.260 6   6574872.014 5  23352034.594        3770.253
  -6832833.745 8  -5589855.229 6  21061101.671       -1726.539
   4368418.213 5   3431466.533 5  24760471.174        2529.380
  27140521.214 6   1809992.268 5  23274764.826        1715.282
 93  5  1 21 56 30.0000000  0  5  2 27 13 15 26                      0.000983450
   2089287.049 8   1622825.184 8  21453885.225        1252.568
   9233082.679 6   6663116.695 5  23373584.746        3779.479
  -6884342.116 8  -5629991.579 6  21051300.028       -1707.466
   4444543.970 5   3490785.200 5  24774957.268        2545.503
  27192209.154 6   1850268.541 5  23284601.656        1730.394
 93  5  1 21 57  0.0000000  0  5  2 27 13 15 26                      0.000987260
   2127015.607 8   1652224.050 8  21461064.865        1262.445
   9346607.410 6   6751577.370 5  23395189.039        3788.871
  -6935279.700 8  -5669683.154 6  21041606.589       -1688.437
   4521149.412 5   3550477.768 5  24789535.102        2561.458
  27244344.593 6   1890893.485 5  23294523.299        1745.214
 93  5  1 21 57 30.0000000  0  5  2 27 13 15 26                      0.000991080
   2165016.340 8   1681834.995 8  21468296.137        1270.743
   9460409.750 6   6840254.406 5  23416845.197        3797.720
  -6985651.140 8  -5708933.585 6  21032021.375       -1669.752
   4598226.704 5   3610538.009 5  24804201.907        2576.967
  27296923.387 6   1931863.897 5  23304527.818        1759.962
 93  5  1 21 58  0.0000000  0  5  2 27 13 15 26                      0.000994930
   2203261.617 8   1711636.484 8  21475573.829        1278.984
   9574467.614 6   6929130.552 5  23438549.149        3805.928
  -7035463.446 8  -5747748.334 6  21022542.567       -1651.094
   4675764.987 5   3670957.282 5  24818956.629        2592.232
  27349942.828 6   1973177.688 5  23314617.610        1774.604
 93  5  1 21 58 30.0000000  0  4  2 27 13 26                         0.000998930
   2241749.822 8   1741627.290 8  21482897.729        1286.985
   9688762.749 6   7018191.563 5  23460299.893        3813.845
  -7084717.393 8  -5786128.004 6  21013169.984       -1632.394
  27403385.848 6   2014821.499 5  23324786.324        1788.210
 93  5  1 21 59  0.0010000  0  4  2 27 13 26                         0.001002800
   2280474.631 8   1771802.438 8  21490267.029        1294.527
   9803295.331 6   7107437.616 5  23482093.607        3821.447
  -7133410.770 8  -5824070.832 6  21003903.910       -1613.713
  27457236.763 6   2056783.180 5  23335033.511        1801.668
 93  5  1 21 59 30.0010000  0  4  2 27 13 26                         0.001006660
   2319429.613 8   1802156.945 8  21497679.667        1302.591
   9918050.481 6   7196857.039 5  23503930.097        3828.875
  -7181541.094 8  -5861574.943 6  20994744.781       -1595.048
  27511491.297 6   2099059.371 5  23345357.608        1815.180
 93  5  1 22  0  0.0010000  0  4  2 27 13 26                         0.001010530
   2358639.780 8   1832710.310 8  21505141.271        1311.366
  10033021.098 6   7286444.454 5  23525809.032        3835.820
  -7229113.442 8  -5898644.257 6  20985691.879       -1576.484
  27566148.530 6   2141649.329 5  23355758.123        1828.633
 93  5  1 22  0 30.0010000  0  4  2 27 13 26                         0.001014400
   2398114.658 8   1863469.924 8  21512653.500        1320.266
  10148213.233 6   7376204.371 5  23547730.182        3843.735
  -7276126.642 8  -5935277.893 6  20976745.402       -1557.770
  27621208.466 6   2184553.104 5  23366235.971        1842.166
 93  5  1 22  1  0.0010000  0  4  2 27 13 26                         0.001018290
   2437858.186 8   1894438.893 8  21520216.244        1329.196
  10263641.502 6   7466148.376 5  23569695.657        3851.609
  -7322576.291 8  -5971472.383 6  20967906.460       -1539.002
  27676687.420 6   2227783.349 5  23376792.934        1856.405
 93  5  1 22  1 30.0010000  0  4  2 27 13 26                         0.001022230
   2477868.785 8   1925615.956 8  21527829.935        1338.179
  10379314.490 6   7556283.027 5  23591707.629        3860.023
  -7368463.548 8  -6007228.636 6  20959174.286       -1520.065
  27732592.929 6   2271346.035 5  23387431.616        1870.790
 93  5  1 22  2  0.0010000  0  4  2 27 13 26                         0.001026210
   2518133.240 8   1956990.838 8  21535492.289        1346.006
  10495229.513 6   7646606.288 5  23613766.859        3867.766
  -7413789.441 8  -6042547.476 6  20950549.118       -1501.562
  27788923.174 6   2315239.649 5  23398152.346        1884.554
 93  5  1 22  2 30.0010000  0  4  2 27 13 26                         0.001030210
   2558632.376 8   1988548.586 8  21543198.984        1353.773
  10611391.182 6   7737121.714 5  23635871.038        3876.127
  -7458552.262 8  -6077427.560 6  20942030.964       -1482.795
  27845668.091 6   2359456.362 5  23408950.711        1898.223
 93  5  1 22  3  0.0010000  0  4  2 27 13 26                         0.001034230
   2599358.097 8   2020282.898 7  21550948.607        1361.286
  10727792.576 6   7827823.982 5  23658021.484        3883.942
  -7502755.730 8  -6111871.778 6  20933619.097       -1464.120
  27902820.804 6   2403990.898 5  23419826.648        1911.909
 93  5  1 22  3 30.0010000  0  4  2 27 13 26                         0.001038260
   2640315.164 8   2052197.472 7  21558742.465        1369.043
  10844429.031 6   7918709.344 5  23680216.008        3891.516
  -7546392.407 8  -6145874.344 6  20925315.656       -1445.119
  27960383.858 6   2448845.116 5  23430780.291        1925.408
 93  5  1 22  4  0.0010000  0  4  2 27 13 26                         0.001042290
   2681510.962 8   2084298.075 7  21566581.587        1377.505
  10961281.150 6   8009762.832 5  23702452.900        3898.751
  -7589461.500 8  -6179434.642 6  20917119.880       -1426.139
  28018339.537 6   2494005.309 5  23441808.859        1938.232
 93  5  1 22  4 30.0010000  0  4  2 27 13 26                         0.001046340
   2722977.427 8   2116609.598 7  21574472.393        1387.019
  11078356.524 6   8100990.235 5  23724732.757        3906.265
  -7631958.669 8  -6212549.262 6  20909032.847       -1407.031
  28076678.662 6   2539464.234 5  23452910.377        1951.044
 93  5  1 22  5  0.0010000  0  4  2 27 13 26                         0.001050400
   2764734.431 8   2149147.495 7  21582418.622        1396.822
  11195653.552 6   8192390.385 5  23747053.857        3913.735
  -7673882.111 8  -6245216.831 6  20901055.011       -1387.763
  28135401.460 6   2585222.186 5  23464085.270        1963.850
 93  5  1 22  5 30.0010000  0  4  2 27 13 26                         0.001054480
   2806780.285 8   2181910.477 7  21590419.543        1406.230
  11313174.593 6   8283965.019 5  23769416.620        3921.022
  -7715232.082 8  -6277437.549 6  20893186.548       -1368.889
  28194494.808 6   2631268.845 5  23475331.124        1975.605
 93  5  1 22  6  0.0010000  0  5  2 27 13 12 26                      0.001058570
   2849112.904 8   2214896.928 7  21598475.328        1415.953
  11430920.730 5   8375715.158 5  23791820.827        3928.854
  -7756012.632 8  -6309214.570 6  20885426.400       -1349.714
   -197286.69115   -160484.24111  24951249.068       -3034.064
  28253940.190 6   2677589.820 5  23486643.183        1987.573
 93  5  1 22  6 30.0010000  0  5  2 27 13 12 26                      0.001062710
   2891728.837 8   2248104.119 7  21606585.002        1424.861
  11548900.141 6   8467646.949 5  23814272.250        3936.166
  -7796215.310 8  -6340541.299 6  20877776.087       -1330.550
   -288289.662 5   -231388.141 1  24933931.851       -3033.003
  28313758.547 6   2724201.449 5  23498026.096        2000.259
 93  5  1 22  7  0.0010000  0  5  2 27 13 12 26                      0.001066880
   2934603.054 8   2281512.589 7  21614743.555        1433.349
  11667095.144 6   8559746.834 5  23836765.382        3943.405
  -7835838.787 8  -6371416.685 6  20870235.737       -1310.960
   -379252.794 5   -302268.303 2  24916622.438       -3031.349
  28373965.666 6   2771115.942 5  23509483.184        2013.612
 93  5  1 22  7 30.0010000  0  5  2 27 13 12 26                      0.001071060
   2977728.464 8   2315116.777 7  21622950.363        1441.657
  11785490.810 6   8652003.001 5  23859294.827        3949.510
  -7874875.814 8  -6401835.098 6  20862807.021       -1291.570
   -470167.716 5   -373111.112 3  24899321.765       -3029.949
  28434574.863 6   2818343.816 5  23521016.780        2026.908
 93  5  1 22  8  0.0010000  0  5  2 27 13 12 26                      0.001075240
   3021106.339 8   2348917.694 7  21631204.818        1450.046
  11904060.956 6   8744395.221 5  23881858.524        3955.099
  -7913334.142 8  -6431802.604 6  20855488.547       -1272.376
   -561041.333 5   -443921.655 4  24882028.840       -3028.619
  28495583.752 6   2865883.100 5  23532626.661        2040.321
 93  5  1 22  8 30.0010000  0  5  2 27 13 12 26                      0.001079420
   3064729.677 8   2382909.901 7  21639506.232        1458.109
  12022796.682 5   8836916.342 5  23904452.634        3960.520
  -7951220.486 8  -6461324.391 6  20848278.857       -1253.460
   -651878.326 5   -514703.628 5  24864743.107       -3027.469
  28556999.152 6   2913739.185 5  23544313.630        2053.830
 93  5  1 22  9  0.0010000  0  5  2 27 13 12 26                      0.001083600
   3108595.035 8   2417090.665 7  21647853.204        1466.260
  12141693.648 6   8929563.229 5  23927077.004        3965.829
  -7988540.916 8  -6490405.212 7  20841177.043       -1234.637
   -742683.640 5   -585460.941 5  24847463.407       -3026.386
  28618809.078 6   2961902.627 5  23556074.330        2066.712
 93  5  1 22  9 30.0010000  0  5  2 27 13 12 26                      0.001087790
   3152713.161 8   2451468.427 7  21656248.529        1474.964
  12260756.242 6   9022339.031 5  23949735.395        3971.727
  -8025294.911 8  -6519044.632 7  20834182.937       -1215.697
   -833455.321 5   -656192.020 5  24830189.803       -3025.306
  28680998.854 6   3010362.111 5  23567909.261        2079.177
 93  5  1 22 10  0.0010000  0  5  2 27 13 12 26                      0.001091990
   3197089.486 8   2486047.343 7  21664693.225        1483.555
  12380010.636 6   9115264.381 5  23972429.112        3978.738
  -8061482.310 8  -6547242.580 7  20827296.822       -1196.570
   -924191.948 5   -726895.836 5  24812923.615       -3023.861
  28743555.546 6   3059107.498 5  23579813.429        2091.592
 93  5  1 22 10 30.0010000  0  5  2 27 13 12 26                      0.001096210
   3241714.283 7   2520819.889 7  21673184.797        1491.522
  12499469.914 5   9208349.384 5  23995160.916        3985.185
  -8097098.775 8  -6574995.625 7  20820519.016       -1177.758
  -1014887.904 5   -797567.911 5  24795664.207       -3022.607
  28806481.272 6   3108140.426 5  23591788.734        2103.390
 93  5  1 22 11  0.0010000  0  5  2 27 13 12 26                      0.001100440
   3286589.932 8   2555787.910 7  21681724.684        1500.238
  12619124.497 5   9301586.545 5  24017929.572        3991.876
  -8132143.602 8  -6602303.230 7  20813850.182       -1158.477
  -1105541.120 5   -868206.681 5  24778414.287       -3020.991
  28869753.108 6   3157443.064 5  23603828.575        2114.760
 93  5  1 22 11 30.0010000  0  5  2 27 13 12 26                      0.001104710
   3331736.487 7   2590967.020 7  21690315.417        1509.435
  12738995.035 6   9394991.994 5  24040740.809        3999.460
  -8166604.550 8  -6629155.879 7  20807292.423       -1139.008
  -1196137.613 5   -938801.282 5  24761173.493       -3019.067
  28933370.504 6   3207014.937 5  23615934.258        2126.303
 93  5  1 22 12  0.0010000  0  5  2 27 13 12 26                      0.001109000
   3377155.538 8   2626358.473 7  21698958.603        1518.429
  12859084.108 6   9488567.750 5  24063593.801        4006.348
  -8200486.272 8  -6655557.186 7  20800845.115       -1119.784
  -1286680.261 5  -1009353.954 5  24743943.719       -3017.299
  28997328.903 6   3256852.574 5  23628104.333        2137.656
 93  5  1 22 12 30.0010000  0  5  2 27 13 12 26                      0.001113320
   3422848.172 8   2661963.097 7  21707653.603        1527.831
  12979374.082 5   9582300.010 5  24086485.221        4012.891
  -8233791.449 8  -6681509.224 7  20794507.392       -1100.553
  -1377170.506 5  -1079865.769 5  24726724.179       -3015.555
  29061630.399 6   3306957.544 5  23640341.469        2148.999
 93  5  1 22 13  0.0010000  0  5  2 27 13 12 26                      0.001117650
   3468823.689 8   2697788.151 7  21716402.697        1537.115
  13099850.965 5   9676177.883 5  24109410.894        4018.985
  -8266522.674 8  -6707014.043 7  20788278.735       -1081.598
  -1467609.140 5  -1150337.344 5  24709513.290       -3013.967
  29126267.696 6   3357324.163 5  23652641.976        2160.281
 93  5  1 22 13 30.0010000  0  6  2 27 24 13 12 26                   0.001122090
   3515070.286 8   2733824.433 7  21725203.285        1545.929
  13220511.343 5   9770198.837 5  24132370.641        4024.871
   -495413.40415   -388620.54313  25057283.739       -3405.847
  -8298687.609 8  -6732077.574 7  20782157.912       -1062.741
  -1558001.663 5  -1220772.987 5  24692312.477       -3012.437
  29191253.491 6   3407962.308 5  23665009.055        2172.109
 93  5  1 22 14  0.0010000  0  6  2 27 24 13 12 26                   0.001126450
   3561573.641 8   2770060.791 7  21734052.657        1554.211
  13341330.955 6   9864343.727 5  24155363.950        4029.835
   -597599.120 5   -468245.705 3  25037838.403       -3406.418
  -8330289.800 8  -6756702.627 7  20776144.004       -1043.964
  -1648350.434 5  -1291174.622 5  24675119.685       -3010.921
  29256585.736 6   3458870.443 5  23677440.568        2183.455
 93  5  1 22 14 30.0010000  0  6  2 27 24 13 12 26                   0.001130810
   3608315.863 8   2806483.294 7  21742947.470        1561.979
  13462297.164 5   9958602.978 5  24178383.085        4034.456
   -699814.127 5   -547893.360 4  25018386.425       -3407.961
  -8361331.144 8  -6780890.636 7  20770236.634       -1025.487
  -1738655.631 5  -1361542.177 5  24657935.126       -3009.643
  29322264.297 6   3510048.456 5  23689938.800        2194.821
 93  5  1 22 15  0.0010000  0  6  2 27 24 13 12 26                   0.001135160
   3655291.164 7   2843087.395 7  21751886.353        1569.765
  13583399.825 5  10052968.414 5  24201427.208        4039.275
   -802065.167 5   -627568.911 4  24998925.456       -3408.703
  -8391814.545 8  -6804643.899 7  20764435.931       -1006.674
  -1828917.489 5  -1431876.005 5  24640758.884       -3007.898
  29388282.144 6   3561490.834 5  23702501.220        2206.380
 93  5  1 22 15 30.0010000  0  6  2 27 24 13 12 26                   0.001139520
   3702508.424 7   2879880.037 7  21760871.342        1577.899
  13704660.416 5  10147457.062 5  24224503.746        4044.638
   -904325.137 5   -707251.659 5  24979464.168       -3408.687
  -8421726.171 8  -6827951.618 7  20758744.050        -987.605
  -1919120.950 5  -1502164.347 5  24623593.584       -3005.986
  29454647.962 6   3613204.371 5  23715130.625        2217.689
 93  5  1 22 16  0.0010000  0  6  2 27 24 13 12 26                   0.001143900
   3749967.723 8   2916861.308 7  21769902.650        1586.111
  13826085.432 5  10242073.736 5  24247610.559        4050.304
  -1006586.484 5   -786935.301 5  24960004.356       -3408.992
  -8451069.757 8  -6850816.719 7  20753160.125        -968.683
  -2009267.795 5  -1572408.598 5  24606439.253       -3004.132
  29521343.017 6   3665174.445 5  23727822.378        2228.611
 93  5  1 22 16 30.0010000  0  6  2 27 24 13 12 26                   0.001148290
   3797676.567 7   2954036.999 7  21778981.086        1594.451
  13947677.954 5  10336820.889 5  24270748.400        4055.634
  -1108859.694 5   -866628.239 5  24940542.235       -3409.467
  -8479849.339 8  -6873242.331 7  20747683.569        -950.135
  -2099360.314 5  -1642610.491 5  24589295.578       -3002.474
  29588360.607 6   3717395.890 5  23740576.089        2238.865
 93  5  1 22 17  0.0010000  0  6  2 27 24 13 12 26                   0.001152680
   3845633.033 8   2991405.646 7  21788106.918        1602.630
  14069424.962 5  10431688.556 5  24293916.561        4060.964
  -1211140.656 5   -946327.237 5  24921079.824       -3409.311
  -8508072.747 8  -6895234.559 7  20742312.654        -931.450
  -2189404.454 5  -1712774.652 5  24572160.391       -3000.731
  29655670.673 6   3769845.117 5  23753383.632        2248.463
 93  5  1 22 17 30.0010000  0  6  2 27 24 13 12 26                   0.001157080
   3893826.475 7   3028958.958 7  21797277.839        1610.360
  14191327.787 5  10526677.469 5  24317113.883        4065.933
  -1313428.724 5  -1026031.681 5  24901615.762       -3409.825
  -8535741.775 8  -6916794.799 7  20737047.291        -913.105
  -2279400.357 5  -1782901.262 5  24555034.250       -2999.223
  29723259.494 6   3822511.665 5  23766247.010        2257.490
 93  5  1 22 18  0.0010000  0  6  2 27 24 13 12 26                   0.001161480
   3942259.484 8   3066698.951 7  21806494.518        1618.359
  14313377.748 5  10621781.166 5  24340339.313        4070.503
  -1415730.195 5  -1105746.751 5  24882148.416       -3410.488
  -8562854.492 8  -6937921.555 7  20731887.972        -894.527
  -2369343.922 5  -1852987.066 5  24537918.434       -2997.372
  29791128.994 6   3875396.896 5  23779161.606        2266.880
 93  5  1 22 18 30.0010000  0  6  2 27 24 13 12 26                   0.001165880
   3990927.382 8   3104621.984 7  21815755.726        1626.103
  14435551.972 5  10716981.679 5  24363589.061        4074.533
  -1518052.761 5  -1185478.052 5  24862675.792       -3410.996
  -8589411.935 8  -6958615.642 7  20726834.270        -875.952
  -2459233.587 5  -1923030.931 5  24520813.396       -2995.494
  29859270.115 6   3928493.768 5  23792129.360        2276.002
 93  5  1 22 19  0.0010000  0  6  2 27 24 13 12 26                   0.001170270
   4039823.851 7   3142723.096 7  21825060.334        1633.786
  14557848.158 5  10812277.138 5  24386861.938        4078.625
  -1620391.049 5  -1265221.775 5  24843200.358       -3411.722
  -8615414.864 8  -6978877.627 7  20721886.246        -857.553
  -2549068.583 5  -1993032.108 5  24503718.718       -2993.702
  29927691.560 6   3981809.076 5  23805149.128        2285.627
 93  5  1 22 19 30.0010000  0  6  2 27 24 13 12 26                   0.001174650
   4088962.497 8   3181012.950 7  21834411.401        1641.891
  14680269.482 5  10907670.161 5  24410158.030        4082.477
  -1722750.704 5  -1344982.007 5  24823721.879       -3412.657
  -8640864.453 8  -6998708.428 7  20717043.609        -839.295
  -2638847.680 5  -2062989.750 5  24486633.814       -2992.024
  29996418.293 6   4035362.243 5  23818227.264        2295.886
 93  5  1 22 20  0.0010000  0  6  2 27 24 13 12 26                   0.001179040
   4138351.206 7   3219497.639 7  21843810.216        1650.540
  14802808.940 5  11003155.247 5  24433475.698        4086.568
  -1825135.252 5  -1424761.782 5  24804238.255       -3413.017
  -8665763.075 8  -7018109.930 7  20712305.489        -820.705
  -2728572.265 5  -2132904.922 5  24469559.495       -2989.974
  30065453.799 6   4089156.079 5  23831364.659        2306.362
 93  5  1 22 20 30.0010000  0  6  2 27 24 13 12 26                   0.001183420
   4188002.104 7   3258186.630 7  21853257.956        1659.618
  14925470.705 5  11098735.568 5  24456816.608        4090.744
  -1927519.874 5  -1504541.499 5  24784755.281       -3412.416
  -8690106.619 8  -7037078.889 7  20707673.247        -802.198
  -2818235.221 5  -2202772.097 5  24452497.462       -2987.815
  30134800.742 6   4143192.490 5  23844561.396        2316.920
 93  5  1 22 21  0.0010000  0  6  2 27 24 13 12 26                   0.001187820
   4237930.298 7   3297091.689 7  21862759.117        1668.931
  15048255.959 5  11194412.213 5  24480182.712        4094.875
  -2029880.117 5  -1584302.273 5  24765277.771       -3411.512
  -8713894.435 8  -7055614.810 7  20703146.261        -783.653
  -2907833.931 5  -2272589.207 5  24435447.282       -2985.610
  30204462.534 6   4197474.341 5  23857817.388        2327.027
 93  5  1 22 21 30.0010000  0  6  2 27 24 13 12 26                   0.001192220
   4288126.906 7   3336205.921 7  21872310.865        1677.451
  15171161.008 5  11290182.117 5  24503571.292        4098.852
  -2132211.231 5  -1664040.353 5  24745805.210       -3410.518
  -8737127.789 8  -7073718.676 7  20698725.090        -765.249
  -2997366.917 5  -2342355.087 5  24418409.202       -2983.462
  30274415.057 6   4251982.641 5  23871128.120        2336.308
 93  5  1 22 22  0.0010000  0  6  2 27 24 13 12 26                   0.001196640
   4338580.520 7   3375520.418 7  21881912.017        1685.937
  15294187.563 5  11386046.720 5  24526983.111        4102.903
  -2234495.493 5  -1743741.829 5  24726339.106       -3408.405
  -8759802.465 8  -7091387.234 7  20694410.178        -746.477
  -3086827.564 5  -2412064.620 5  24401385.753       -2980.819
  30344639.212 6   4306702.685 5  23884492.411        2345.262
 93  5  1 22 22 30.0010000  0  6  2 27 24 13 12 26                   0.001201060
   4389286.436 7   3415031.510 7  21891560.468        1694.282
  15417337.696 5  11482007.618 5  24550419.137        4107.077
  -2336711.479 5  -1823390.285 5  24706885.458       -3406.270
  -8781912.651 8  -7108615.925 7  20690202.791        -727.597
  -3176208.362 5  -2481711.950 5  24384377.739       -2978.106
  30415132.283 6   4361632.202 5  23897905.599        2354.315
 93  5  1 22 23  0.0010000  0  6  2 27 24 13 12 26                   0.001205500
   4440232.966 7   3454730.081 7  21901255.436        1702.111
  15540613.992 5  11578066.820 5  24573877.338        4111.424
  -2438878.405 6  -1903000.335 5  24687443.722       -3404.984
  -8803456.720 8  -7125403.469 7  20686102.938        -708.589
  -3265505.467 5  -2551294.052 5  24367384.765       -2975.246
  30485897.726 6   4416773.987 5  23911372.444        2363.429
 93  5  1 22 23 30.0010000  0  6  2 27 24 13 12 26                   0.001209940
   4491413.275 7   3494610.818 7  21910994.833        1710.033
  15664017.238 5  11674224.921 5  24597357.357        4115.494
  -2541009.620 6  -1982582.709 5  24668010.662       -3403.794
  -8824430.288 8  -7141746.471 7  20682111.682        -689.678
  -3354711.836 5  -2620805.429 5  24350408.937       -2972.234
  30556942.240 6   4472133.221 5  23924890.896        2372.805
 93  5  1 22 24  0.0010000  0  6  2 27 24 13 12 26                   0.001214390
   4542846.845 7   3534688.906 7  21920782.607        1718.647
  15787540.430 5  11770476.577 5  24620863.050        4119.245
  -2643102.730 5  -2062135.262 5  24648582.933       -3402.527
  -8844833.018 8  -7157644.671 7  20678229.110        -670.701
  -3443825.135 5  -2690244.301 5  24333452.101       -2969.152
  30628274.901 6   4527716.998 5  23938466.525        2382.583
 93  5  1 22 24 30.0010000  0  6  2 27 24 13 12 26                   0.001218850
   4594545.378 7   3574973.451 7  21930620.568        1727.752
  15911177.340 5  11866816.736 5  24644392.277        4122.987
  -2745164.005 5  -2141663.174 5  24629159.492       -3401.797
  -8864665.361 8  -7173098.408 7  20674455.082        -651.690
  -3532843.311 5  -2759609.050 5  24316512.335       -2965.916
  30699904.813 6   4583532.396 5  23952097.187        2392.561
 93  5  1 22 25  0.0010000  0  6  2 27 24 13 12 26                   0.001223320
   4646520.040 7   3615473.158 7  21940511.331        1737.077
  16034927.465 5  11963245.114 5  24667941.169        4126.827
  -2847207.149 5  -2221176.815 5  24609741.911       -3401.040
  -8883929.892 8  -7188109.715 7  20670789.349        -632.778
  -3621766.078 5  -2828899.452 5  24299590.756       -2962.634
  30771834.894 6   4639581.685 5  23965785.463        2402.455
 93  5  1 22 25 30.0010000  0  6  2 27 24 13 12 26                   0.001227800
   4698777.399 7   3656193.181 7  21950455.106        1746.684
  16158795.038 5  12059765.052 5  24691511.969        4131.108
  -2949216.444 5  -2300664.221 5  24590330.940       -3399.572
  -8902625.826 8  -7202677.927 7  20667231.683        -613.677
  -3710590.672 5  -2898113.337 5  24282687.528       -2959.194
  30844049.423 6   4695852.615 5  23979526.670        2411.829
 93  5  1 22 26  0.0010000  0  6  2 27 24 13 12 26                   0.001232290
   4751315.885 7   3697132.206 6  21960453.275        1755.417
  16282796.495 5  12156389.323 5  24715108.864        4135.386
  -3051177.666 5  -2380114.080 5  24570926.724       -3398.003
  -8920749.898 8  -7216800.558 7  20663782.741        -594.778
  -3799310.975 5  -2967246.003 5  24265804.257       -2955.884
  30916537.733 6   4752336.871 5  23993321.687        2420.359
 93  5  1 22 26 30.0010000  0  6  2 27 24 13 12 26                   0.001236810
   4804108.448 7   3738269.270 6  21970498.900        1763.990
  16406933.568 5  12253119.230 5  24738731.184        4140.317
  -3153095.206 5  -2459529.917 5  24551529.927       -3396.552
  -8938304.837 8  -7230479.709 7  20660442.104        -575.643
  -3887927.078 5  -3036297.439 5  24248941.222       -2952.211
  30989283.497 5   4809021.725 5  24007163.380        2429.121
 93  5  1 22 27  0.0010000  0  6  2 27 24 13 12 26                   0.001241340
   4857151.449 7   3779601.453 6  21980592.782        1772.393
  16531220.883 5  12349966.156 5  24762380.607        4145.578
  -3254964.561 5  -2538908.374 5  24532144.677       -3394.528
  -8955287.380 8  -7243712.829 7  20657210.640        -556.367
  -3976433.530 5  -3105263.432 5  24232098.523       -2948.272
  31062280.400 5   4865902.335 5  24021054.540        2437.433
 93  5  1 22 27 30.0010000  0  6  2 27 24 13 12 26                   0.001245890
   4910444.703 7   3821128.627 6  21990733.861        1780.569
  16655651.727 5  12446925.036 5  24786058.417        4149.828
  -3356769.639 5  -2618236.537 5  24512772.681       -3392.403
  -8971693.146 8  -7256496.505 7  20654088.413        -537.321
  -4064823.246 5  -3174138.470 5  24215278.305       -2944.496
  31135524.054 5   4922975.112 5  24034992.606        2445.577
 93  5  1 22 28  0.0010000  0  6  2 27 24 13 12 26                   0.001250460
   4963990.548 7   3862852.644 6  22000923.476        1789.134
  16780201.444 5  12543976.547 5  24809760.050        4153.508
  -3458498.256 5  -2697505.238 5  24493412.664       -3389.543
  -8987524.086 8  -7268832.291 7  20651075.877        -518.074
  -4153095.444 5  -3242921.936 5  24198481.069       -2940.509
  31209021.207 5   4980245.507 5  24048978.935        2454.344
 93  5  1 22 28 30.0010000  0  6  2 27 24 13 12 26                   0.001255050
   5017809.367 7   3904789.355 6  22011164.917        1798.907
  16904864.275 5  12641116.047 5  24833482.935        4157.318
  -3560139.490 5  -2776705.936 5  24474066.467       -3386.285
  -9002773.746 8  -7280715.111 7  20648173.806        -498.535
  -4241241.092 5  -3311606.834 5  24181707.601       -2936.046
  31282799.324 5   5037734.798 5  24063018.689        2464.320
 93  5  1 22 29  0.0010000  0  6  2 27 24 13 12 26                   0.001259660
   5071926.310 7   3946958.372 6  22021463.099        1808.694
  17029637.400 5  12738341.582 5  24857228.288        4160.547
  -3661672.143 5  -2855821.885 5  24454745.075       -3382.633
  -9017435.582 8  -7292139.882 7  20645383.669        -479.039
  -4329250.647 5  -3380185.619 5  24164959.914       -2931.663
  31356871.878 5   5095453.599 5  24077114.608        2473.746
 93  5  1 22 29 30.0010000  0  6  2 27 24 13 12 26                   0.001264300
   5126328.428 7   3989349.607 7  22031815.381        1817.906
  17154495.215 5  12835633.132 5  24880989.345        4163.338
  -3763103.236 5  -2934858.758 5  24435445.054       -3379.444
  -9031517.795 8  -7303112.997 7  20642703.842        -459.866
  -4417129.721 5  -3448662.764 5  24148237.150       -2927.301
  31431227.486 5   5153392.813 5  24091264.695        2483.074
 93  5  1 22 30  0.0010000  0  6  2 27 24 13 12 26                   0.001268950
   5181000.787 7   4031951.439 7  22042219.289        1826.892
  17279447.117 5  12932998.006 5  24904768.455        4166.821
  -3864445.859 5  -3013826.809 5  24416159.516       -3377.018
  -9045028.547 8  -7313640.832 7  20640132.703        -440.903
  -4504883.685 5  -3517042.399 5  24131538.432       -2923.203
  31505855.538 6   5211544.449 5  24105465.822        2492.064
 93  5  1 22 30 30.0010000  0  6  2 27 24 13 12 26                   0.001273600
   5235942.217 7   4074762.915 6  22052674.532        1835.861
  17404500.813 5  13030442.090 5  24928565.468        4170.081
  -3965727.424 5  -3092747.256 5  24396886.398       -3375.159
  -9057971.301 8  -7323726.055 7  20637669.830        -421.932
  -4592513.349 6  -3585325.235 5  24114862.747       -2918.983
  31580746.459 5   5269900.798 5  24119716.341        2500.366
 93  5  1 22 31  0.0010000  0  6  2 27 24 13 12 26                   0.001278270
   5291151.338 7   4117782.969 6  22063180.437        1844.681
  17529652.163 5  13127962.278 5  24952379.886        4173.230
  -4066952.879 6  -3171623.936 5  24377625.929       -3373.468
  -9070343.668 8  -7333366.840 7  20635315.638        -402.923
  -4680013.639 6  -3653507.238 5  24098212.348       -2914.624
  31655871.554 5   5328439.746 5  24134011.609        2507.931
 93  5  1 22 31 30.0010000  0  6  2 27 24 13 12 26                   0.001282950
   5346629.662 7   4161012.816 6  22073737.720        1853.941
  17654901.124 5  13225558.535 4  24976213.026        4176.528
  -4168128.976 6  -3250462.165 5  24358373.910       -3371.546
  -9082146.201 8  -7342563.588 7  20633069.612        -383.967
  -4767382.361 5  -3721586.665 5  24081586.332       -2910.175
  31731231.603 5   5387161.719 5  24148352.570        2516.028
 93  5  1 22 32  0.0010000  0  6  2 27 24 13 12 26                   0.001287640
   5402398.621 7   4204469.122 6  22084349.923        1864.044
  17780249.538 5  13323232.629 5  25000066.106        4179.753
  -4269240.155 5  -3329249.754 5  24339133.590       -3369.208
  -9093377.739 8  -7351315.414 7  20630932.554        -364.848
  -4854615.016 5  -3789560.057 5  24064986.348       -2905.527
  31806833.395 5   5446072.069 5  24162738.075        2524.161
 93  5  1 22 32 30.0010000  0  6  2 27 24 13 12 26                   0.001292360
   5458470.251 7   4248161.271 6  22095020.315        1874.106
  17905682.841 5  13420972.921 5  25023935.712        4182.753
  -4370270.490 6  -3407974.458 5  24319908.556       -3365.877
  -9104034.775 8  -7359619.566 7  20628904.687        -345.466
  -4941705.505 5  -3857422.757 5  24048413.357       -2900.652
  31882678.964 6   5505172.343 5  24177173.129        2532.320
 93  5  1 22 33  0.0010000  0  6  2 27 24 13 12 26                   0.001297090
   5514839.940 7   4292085.685 6  22105747.040        1884.021
  18031211.741 5  13518787.815 5  25047822.484        4186.061
  -4471194.974 6  -3486616.642 5  24300703.374       -3362.250
  -9114114.733 8  -7367474.061 7  20626986.493        -326.398
  -5028648.422 5  -3925170.405 5  24031868.806       -2895.699
  31958775.401 5   5564468.130 5  24191652.745        2541.048
 93  5  1 22 33 30.0010000  0  5  2 24 13 12 26                      0.001301800
   5571506.741 7   4336241.614 6  22116530.404        1893.751
  -4572009.878 6  -3565173.476 5  24281518.492       -3358.768
  -9123621.046 8  -7374881.543 7  20625177.537        -307.358
  -5115443.916 5  -3992803.158 5  24015352.248       -2890.870
  32035138.280 5   5623971.511 5  24206185.445        2549.727
 93  5  1 22 34  0.0010000  0  5  2 24 13 12 26                      0.001306580
   5628463.861 7   4380623.751 6  22127369.281        1903.255
  -4672719.293 6  -3643648.062 5  24262353.754       -3355.239
  -9132555.257 8  -7381843.257 7  20623477.414        -288.205
  -5202090.240 5  -4060319.684 5  23998863.735       -2885.779
  32111752.880 5   5683671.072 5  24220763.425        2558.028
 93  5  1 22 34 30.0010000  0  5  2 24 13 12 26                      0.001311390
   5685696.789 7   4425220.818 6  22138260.261        1912.199
  -4773326.927 6  -3722043.309 5  24243208.496       -3351.865
  -9140915.193 8  -7388357.470 7  20621886.675        -269.139
  -5288582.747 5  -4127716.371 5  23982404.855       -2880.705
  32188613.146 5   5743562.038 5  24235390.797        2565.938
 93  5  1 22 35  0.0010000  0  5  2 24 13 12 26                      0.001316210
   5743202.754 7   4470030.641 6  22149203.427        1921.606
  -4873832.654 6  -3800359.183 5  24224082.380       -3348.474
  -9148704.463 8  -7394427.003 7  20620404.321        -250.122
  -5374921.526 6  -4194993.290 5  23965975.217       -2875.430
  32265709.984 5   5803637.346 5  24250060.455        2573.727
 93  5  1 22 35 30.0010000  0  5  2 24 13 12 26                      0.001321050
   5800986.613 7   4515057.004 6  22160199.144        1930.766
  -4974235.854 6  -3878595.153 5  24204975.725       -3344.838
  -9155925.529 8  -7400053.778 8  20619030.165        -231.169
  -5461106.330 6  -4262150.205 5  23949574.665       -2870.278
  32343022.961 5   5863881.055 5  24264774.231        2580.599
 93  5  1 22 36  0.0010000  0  5  2 24 13 12 26                      0.001325900
   5859047.287 7   4560299.061 6  22171247.984        1939.724
  -5074508.620 5  -3956729.538 5  24185893.206       -3340.137
  -9162571.438 8  -7405232.396 7  20617765.296        -212.076
  -5547127.117 5  -4329179.310 5  23933205.217       -2864.844
  32420545.731 5   5924288.245 5  24279526.224        2587.435
 93  5  1 22 36 30.0010000  0  5  2 24 13 12 26                      0.001330780
   5917375.728 7   4605749.766 6  22182347.381        1948.898
  -5174634.500 5  -4034749.436 5  24166839.174       -3334.823
  -9168646.183 8  -7409965.947 7  20616609.147        -192.902
  -5632984.454 5  -4396081.063 5  23916867.063       -2859.212
  32498275.540 5   5984856.787 5  24294317.448        2594.461
 93  5  1 22 37  0.0010000  0  5  2 24 13 12 26                      0.001335690
   5975985.266 7   4651419.513 6  22193500.329        1958.360
  -5274600.300 5  -4112644.621 5  24147817.073       -3329.570
  -9174146.505 8  -7414251.882 7  20615562.642        -173.815
  -5718672.172 6  -4462850.662 5  23900561.282       -2853.563
  32576217.712 5   6045590.765 5  24309150.070        2601.570
 93  5  1 22 37 30.0010000  0  5  2 24 13 12 26                      0.001340620
   6034871.657 7   4697304.987 6  22204705.793        1967.299
  -5374406.519 5  -4190415.466 5  24128824.800       -3324.195
  -9179074.564 8  -7418091.892 7  20614624.513        -154.723
  -5804188.736 6  -4529486.866 5  23884287.982       -2847.769
  32654372.906 5   6106490.790 5  24324023.134        2608.725
 93  5  1 22 38  0.0010000  0  5  2 24 13 12 26                      0.001345580
   6094023.208 7   4743397.100 6  22215961.791        1976.419
  -5474055.520 6  -4268063.744 5  24109861.789       -3318.933
  -9183431.324 8  -7421486.757 7  20613795.635        -135.522
  -5889532.196 6  -4595988.225 5  23868047.637       -2841.849
  32732752.005 5   6167565.193 5  24338939.411        2616.538
 93  5  1 22 38 30.0010000  0  5  2 24 13 12 26                      0.001350560
   6153458.276 7   4789710.115 6  22227272.200        1986.200
  -5573555.467 6  -4345595.882 5  24090928.459       -3314.357
  -9187212.120 8  -7424432.798 7  20613076.053        -116.433
  -5974694.406 6  -4662348.354 5  23851841.596       -2835.822
  32811366.494 5   6228823.121 5  24353897.428        2624.477
 93  5  1 22 39  0.0010000  0  5  2 24 13 12 26                      0.001355580
   6213197.651 7   4836260.259 6  22238640.109        1996.409
  -5672915.694 5  -4423019.190 5  24072020.218       -3309.635
  -9190416.314 8  -7426929.543 8  20612466.206         -97.140
  -6059671.732 6  -4728564.351 5  23835670.727       -2829.509
  32890216.661 5   6290264.623 5  24368903.684        2632.195
 93  5  1 22 39 30.0010000  0  5  2 24 13 12 26                      0.001360610
   6273228.557 7   4883037.562 6  22250063.752        2005.840
  -5772144.675 5  -4500340.282 5  24053135.143       -3305.575
  -9193049.937 8  -7428981.690 8  20611965.085         -78.377
  -6144466.729 6  -4794638.338 5  23819534.691       -2823.698
  32969287.212 5   6351877.877 5  24383949.420        2639.212
 93  5  1 22 40  0.0010000  0  5  2 24 13 12 26                      0.001365660
   6333557.986 7   4930047.508 6  22261544.103        2016.171
  -5871244.909 6  -4577561.028 5  24034275.984       -3301.153
  -9195117.148 8  -7430592.491 8  20611571.778         -59.568
  -6229080.495 6  -4860571.059 5  23803433.309       -2817.601
  33048571.655 5   6413657.758 5  24399036.652        2646.246
 93  5  1 22 40 30.0010000  0  5  2 24 13 12 26                      0.001370760
   6394208.478 7   4977307.598 6  22273085.504        2026.996
  -5970205.020 6  -4654672.605 5  24015446.279       -3296.305
  -9196617.915 8  -7431761.892 8  20611286.184         -40.615
  -6313509.361 6  -4926359.742 5  23787367.020       -2811.352
  33128057.773 5   6475594.838 5  24414161.996        2652.789
 93  5  1 22 41  0.0010000  0  5  2 24 13 12 26                      0.001375880
   6455174.016 7   5024813.184 6  22284686.833        2037.211
  -6069023.073 6  -4731673.462 5  23996643.368       -3291.566
  -9197552.235 8  -7432489.909 8  20611108.346         -21.712
  -6397750.053 6  -4992001.778 5  23771336.573       -2804.937
  33207738.169 5   6537683.279 5  24429324.173        2659.194
 93  5  1 22 41 30.0010000  0  5  2 24 13 12 26                      0.001381020
   6516442.026 7   5072554.503 6  22296345.679        2047.332
  -6167694.478 6  -4808560.078 5  23977867.607       -3286.465
  -9197921.639 8  -7432777.720 8  20611038.295          -2.986
  -6481800.515 6  -5057495.609 5  23755342.120       -2798.644
  33287613.137 5   6599923.289 5  24444524.827        2665.814
 93  5  1 22 42  0.0010000  0  5  2 24 13 12 26                      0.001386200
   6578010.730 7   5120530.071 6  22308062.010        2057.128
  -6266207.003 6  -4885322.878 5  23959119.659       -3281.120
  -9197730.524 8  -7432628.791 8  20611074.740          15.638
  -6565661.665 6  -5122841.883 5  23739383.416       -2792.423
  33367686.688 5   6662318.085 5  24459761.813        2672.329
 93  5  1 22 42 30.0010000  0  5  2 24 13 12 26                      0.001391390
   6639864.653 7   5168727.907 6  22319832.201        2066.233
  -6364566.067 6  -4961966.086 5  23940401.675       -3276.236
  -9196981.929 8  -7432045.439 8  20611217.092          34.299
  -6649332.588 6  -5188039.933 5  23723461.400       -2785.927
  33447949.751 5   6724860.536 5  24475036.441        2678.692
 93  5  1 22 43  0.0010000  0  5  2 24 13 12 26                      0.001396600
   6701980.368 7   5217129.735 6  22331652.957        2074.689
  -6462780.221 6  -5038496.415 5  23921712.393       -3271.373
  -9195676.712 8  -7431028.369 8  20611465.309          52.704
  -6732811.092 6  -5253088.079 5  23707575.940       -2779.594
  33528407.139 5   6787554.389 5  24490346.468        2685.041
 93  5  1 22 43 30.0010000  0  5  2 24 13 12 26                      0.001401810
   6764348.474 7   5265728.240 6  22343520.963        2083.283
  -6560838.157 6  -5114904.969 5  23903051.435       -3265.687
  -9193818.994 8  -7429580.769 8  20611818.844          71.252
  -6816097.998 6  -5317986.918 5  23691726.797       -2773.056
  33609052.837 5   6850395.030 5  24505693.267        2691.431
 93  5  1 22 44  0.0010000  0  5  2 24 13 12 26                      0.001407040
   6826984.117 7   5314535.204 6  22355440.112        2092.386
  -6658730.424 6  -5191184.442 5  23884422.877       -3260.568
  -9191399.470 8  -7427695.411 8  20612279.206          89.956
  -6899180.230 6  -5382726.214 5  23675916.942       -2766.153
  33689889.200 5   6913384.200 5  24521076.152        2697.484
 93  5  1 22 44 30.0010000  0  5  2 24 13 12 26                      0.001412280
   6889890.591 7   5363553.184 6  22367410.982        2101.378
  -6756475.776 6  -5267349.452 5  23865822.123       -3255.820
  -9188421.216 8  -7425374.673 8  20612845.914         108.525
  -6982057.304 6  -5447305.721 5  23660146.142       -2759.322
  33770901.656 5   6976510.571 5  24536493.536        2703.234
 93  5  1 22 45  0.0010000  0  5  2 24 13 12 26                      0.001417540
   6953075.371 7   5412788.069 6  22379434.532        2110.909
  -6854070.248 6  -5343396.897 5  23847249.124       -3250.672
  -9184889.265 8  -7422622.476 8  20613517.939         126.819
  -7064730.595 6  -5511726.410 5  23644414.066       -2752.560
  33852088.886 5   7039773.200 5  24551942.533        2708.933
 93  5  1 22 45 30.0010000  0  5  2 24 13 12 26                      0.001422810
   7016551.664 7   5462250.059 6  22391513.708        2120.762
  -6951516.573 6  -5419328.940 5  23828705.471       -3245.944
  -9180810.498 8  -7419444.195 8  20614294.061         144.981
  -7147203.193 6  -5575990.721 5  23628720.106       -2745.920
  33933435.715 5   7103160.109 5  24567423.326        2714.058
 93  5  1 22 46  0.0010000  0  5  2 24 13 12 26                      0.001428090
   7080325.577 7   5511943.994 6  22403649.096        2130.658
  -7048824.393 6  -5495152.992 5  23810190.235       -3241.264
  -9176185.889 8  -7415840.594 8  20615173.992         163.184
  -7229472.796 6  -5640096.834 5  23613064.583       -2739.091
  34014932.673 5   7166664.053 5  24582931.233        2718.918
 93  5  1 22 46 30.0010000  0  5  2 24 13 12 26                      0.001433390
   7144390.585 7   5561864.743 6  22415840.906        2140.261
  -7145988.138 6  -5570864.810 5  23791702.111       -3236.428
  -9171017.426 8  -7411813.207 8  20616157.661         181.280
  -7311537.589 6  -5704043.390 5  23597448.238       -2732.311
  34096581.547 5   7230286.364 5  24598467.907        2724.163
 93  5  1 22 47  0.0010000  0  5  2 24 13 12 26                      0.001438720
   7208746.682 7   5612012.320 6  22428086.779        2149.948
  -7243000.175 6  -5646458.419 5  23773240.121       -3231.147
  -9165305.844 8  -7407362.605 8  20617244.299         199.391
  -7393394.485 6  -5767827.908 5  23581871.172       -2725.182
  34178393.740 5   7294035.917 5  24614038.114        2729.857
 93  5  1 22 47 30.0010000  0  5  2 24 13 12 26                      0.001444050
   7273388.026 7   5662382.144 6  22440388.381        2159.361
  -7339854.104 6  -5721928.827 5  23754808.790       -3225.693
  -9159049.651 8  -7402487.628 8  20618435.024         217.577
  -7475038.628 6  -5831446.663 5  23566334.596       -2718.051
  34260369.370 5   7357912.859 5  24629636.792        2735.176
 93  5  1 22 48  0.0010000  0  5  2 24 13 12 26                      0.001449420
   7338310.777 7   5712971.276 6  22452742.839        2168.662
  -7436537.679 6  -5797266.492 5  23736411.605       -3219.978
  -9152247.276 8  -7397187.075 8  20619729.528         235.694
  -7556463.938 6  -5894894.955 5  23550840.171       -2710.707
  34342513.411 5   7421920.962 5  24645269.406        2740.856
 93  5  1 22 48 30.0010000  0  5  2 24 13 12 26                      0.001454800
   7403512.973 7   5763778.151 6  22465150.640        2178.076
  -7533043.685 6  -5872465.775 5  23718046.860       -3213.746
  -9144906.456 8  -7391466.936 8  20621126.372         253.630
  -7637674.765 6  -5958176.033 5  23535386.263       -2703.548
  34424827.118 5   7486061.317 5  24660932.986        2746.409
 93  5  1 22 49  0.0010000  0  5  2 24 13 12 26                      0.001460210
   7468996.050 7   5814803.876 6  22477611.285        2187.335
  -7629361.045 6  -5947518.078 5  23699716.197       -3207.136
  -9137032.034 8  -7385330.993 8  20622624.833         271.322
  -7718671.946 6  -6021290.640 5  23519972.833       -2696.448
  34507293.095 5   7550320.359 5  24676625.648        2751.153
 93  5  1 22 49 30.0010000  0  5  2 24 13 12 26                      0.001465620
   7534752.822 7   5866042.879 6  22490124.311        2196.609
  -7725475.054 6  -6022411.956 5  23681426.468       -3200.199
  -9128631.920 8  -7378785.440 8  20624223.637         288.796
  -7799459.621 6  -6084242.031 5  23504599.172       -2689.494
  34589878.210 5   7614672.145 5  24692341.042        2754.761
 93  5  1 22 50  0.0010000  0  5  2 24 13 12 26                      0.001471060
   7600792.089 7   5917502.020 6  22502690.972        2206.203
  -7821372.912 6  -6097137.386 5  23663177.676       -3192.775
  -9119704.874 8  -7371829.280 8  20625922.422         306.506
  -7880032.806 6  -6147026.257 5  23489266.543       -2682.088
  34672584.248 5   7679118.349 5  24708079.647        2759.056
 93  5  1 22 50 30.0010000  0  5  2 24 13 12 26                      0.001476510
   7667117.842 7   5969184.385 6  22515312.352        2215.461
  -7917050.029 6  -6171690.830 5  23644970.778       -3185.711
  -9110250.141 8  -7364461.935 8  20627721.566         323.876
  -7960386.324 6  -6209639.361 5  23473975.875       -2674.848
  34755409.719 5   7743657.382 5  24723839.975        2762.656
 93  5  1 22 51  0.0010000  0  5  2 24 13 12 26                      0.001481980
   7733731.171 7   6021090.832 6  22527988.738        2225.334
  -8012502.945 6  -6246069.513 5  23626808.360       -3177.940
  -9100260.747 8  -7356677.965 8  20629622.310         342.011
  -8040509.526 6  -6272072.956 5  23458729.120       -2666.927
  34838361.726 5   7808295.027 5  24739625.961        2767.483
 93  5  1 22 51 30.0010000  0  5  2 24 13 12 26                      0.001487490
   7800650.948 7   6073236.098 6  22540723.261        2235.957
  -8107721.179 6  -6320265.386 5  23608687.547       -3170.072
  -9089718.221 8  -7348463.003 8  20631628.520         360.835
  -8120380.300 6  -6334309.851 5  23443530.161       -2658.065
  34921472.569 5   7873056.603 5  24755440.894        2773.354
 93  5  1 22 52  0.0010000  0  5  2 24 13 12 26                      0.001493030
   7867871.607 7   6125615.814 6  22553514.936        2245.439
  -8202722.894 6  -6394292.510 5  23590608.931       -3163.373
  -9078621.693 8  -7339816.357 8  20633739.839         378.960
  -8199993.993 6  -6396346.430 5  23428380.148       -2649.757
  35004753.709 5   7937950.791 5  24771289.208        2778.637
 93  5  1 22 52 30.0010000  0  5  2 24 13 12 26                      0.001498590
   7935376.670 7   6178217.092 5  22566360.621        2254.868
  -8297526.336 6  -6468165.151 5  23572569.398       -3156.777
  -9066980.636 8  -7330745.388 8  20635955.024         397.150
  -8279355.549 6  -6458186.574 5  23413278.063       -2641.239
  35088184.953 5   8002961.874 5  24787166.625        2783.449
 93  5  1 22 53  0.0010000  0  5  2 24 13 12 26                      0.001504160
   8003157.604 7   6231033.388 5  22579259.093        2263.712
  -8392140.706 6  -6541890.457 5  23554565.249       -3150.938
  -9054800.811 8  -7321254.577 8  20638272.702         414.745
  -8358466.781 6  -6519831.623 5  23398223.654       -2633.137
  35171756.443 5   8068082.350 5  24803069.057        2787.767
 93  5  1 22 53 30.0010000  0  5  2 24 13 12 26                      0.001509740
   8071195.084 7   6284049.601 5  22592205.820        2272.116
  -8486584.934 6  -6615483.218 5  23536591.597       -3145.272
  -9042097.960 8  -7311356.245 8  20640689.637         432.133
  -8437339.515 6  -6581290.828 5  23383214.564       -2625.216
  35255436.477 5   8133287.331 5  24818993.964        2790.959
 93  5  1 22 54  0.0010000  0  5  2 24 13 12 26                      0.001515310
   8139477.519 7   6337256.644 5  22605199.616        2280.076
  -8580859.784 6  -6688943.989 5  23518649.798       -3139.564
  -9028877.305 8  -7301054.411 8  20643205.348         449.218
  -8515975.228 6  -6642565.379 5  23368250.808       -2617.392
  35339210.837 5   8198565.787 5  24834935.669        2793.919
 93  5  1 22 54 30.0010000  0  5  2 24 13 12 26                      0.001520880
   8208007.840 6   6390656.874 5  22618240.150        2288.488
  -8674951.643 6  -6762262.135 5  23500745.919       -3133.369
  -9015145.450 8  -7290354.254 8  20645818.397         466.066
  -8594376.576 6  -6703657.282 5  23353331.493       -2609.721
  35423073.957 5   8263913.483 5  24850894.796        2796.816
 93  5  1 22 55  0.0010000  0  5  2 24 13 12 26                      0.001526440
   8276786.055 6   6444250.260 6  22631328.637        2296.512
  -8768856.559 6  -6835434.639 5  23482877.662       -3127.032
  -9000913.072 8  -7279264.058 8  20648526.684         482.490
  -8672549.823 6  -6764571.451 5  23338455.772       -2602.251
  35507023.341 5   8329328.385 5  24866869.392        2799.625
 93  5  1 22 55 30.0010000  0  5  2 24 13 12 26                      0.001532000
   8345811.595 6   6498036.348 5  22644463.923        2305.302
  -8862559.260 6  -6908449.602 5  23465045.568       -3119.778
  -8986188.954 8  -7267790.713 8  20651328.822         499.014
  -8750499.260 6  -6825311.217 5  23323622.480       -2594.643
  35591056.939 5   8394808.852 5  24882860.723        2802.547
 93  5  1 22 56  0.0010000  0  5  2 24 13 12 26                      0.001537570
   8415112.760 6   6552037.227 5  22657651.873        2314.819
  -8956032.193 6  -6981285.484 5  23447258.222       -3111.801
  -8970968.217 8  -7255930.390 8  20654225.207         515.640
  -8828216.168 6  -6885869.789 5  23308833.193       -2586.792
  35675188.963 5   8460366.161 5  24898870.012        2806.097
 93  5  1 22 56 30.0010000  0  5  2 24 13 12 26                      0.001543160
   8484708.476 6   6606267.629 6  22670895.434        2324.745
  -9049264.871 6  -7053934.164 5  23429516.625       -3104.041
  -8955249.485 8  -7243682.012 8  20657216.467         532.120
  -8905695.036 6  -6946242.871 5  23294089.398       -2578.916
  35759419.248 5   8525999.828 5  24914898.947        2809.089
 93  5  1 22 57  0.0010000  0  5  2 24 13 12 26                      0.001548780
   8554599.613 6   6660728.207 5  22684195.170        2334.637
  -9142273.499 6  -7126408.272 5  23411817.457       -3096.579
  -8939037.068 8  -7231048.936 8  20660301.679         548.660
  -8982936.365 6  -7006430.871 5  23279390.882       -2570.769
  35843739.208 5   8591703.443 5  24930945.586        2812.147
 93  5  1 22 57 30.0010000  0  5  2 24 13 12 26                      0.001554420
   8624790.999 6   6715422.762 5  22697552.502        2344.835
  -9235066.688 6  -7198714.497 5  23394159.549       -3089.671
  -8922332.682 8  -7218032.514 8  20663480.560         564.993
  -9059937.339 6  -7066431.597 6  23264738.247       -2562.739
  35928133.787 5   8657465.302 5  24947003.039        2814.181
 93  5  1 22 58  0.0010000  0  5  2 24 13 12 26                      0.001560070
   8695275.565 6   6770345.771 6  22710964.746        2353.933
  -9327659.406 6  -7270864.503 5  23376539.819       -3083.351
  -8905139.467 8  -7204635.206 8  20666752.334         581.160
  -9136697.014 6  -7126244.259 6  23250131.389       -2554.786
  36012588.024 5   8723273.524 5  24963076.953        2815.971
 93  5  1 22 58 30.0010000  0  5  2 24 13 12 26                      0.001565720
   8766026.929 6   6825476.650 5  22724428.345        2362.821
  -9420070.479 6  -7342872.978 5  23358953.912       -3077.360
  -8887462.062 8  -7190860.586 8  20670116.246         597.362
  -9213215.876 6  -7185869.285 6  23235570.250       -2546.627
  36097091.023 5   8789119.744 5  24979156.645        2817.536
 93  5  1 22 59  0.0010000  0  5  2 24 13 12 26                      0.001571370
   8837036.138 6   6880808.445 5  22737941.160        2371.170
  -9512305.731 6  -7414744.447 6  23341402.832       -3071.294
  -8869303.191 8  -7176710.800 8  20673571.854         613.315
  -9289492.041 6  -7245305.225 6  23221055.042       -2538.559
  36181632.325 5   8854995.881 5  24995243.638        2818.572
 93  5  1 22 59 30.0010000  0  5  2 24 13 12 26                      0.001577010
   8908297.211 6   6936336.538 6  22751501.983        2379.468
  -9604339.427 6  -7486458.860 6  23323888.759       -3064.279
  -8850659.882 8  -7162183.541 8  20677119.489         629.553
  -9365518.543 6  -7304546.581 6  23206587.533       -2530.095
  36266211.690 5   8920901.615 5  25011339.640        2820.099
 93  5  1 23  0  0.0010000  0  5  2 24 13 12 26                      0.001582630
   8979792.933 6   6992047.428 5  22765107.254        2387.050
  -9696161.680 6  -7558008.529 5  23306414.896       -3057.135
  -8831532.985 8  -7147279.450 8  20680759.289         645.629
  -9441291.904 6  -7363590.725 6  23192168.414       -2521.579
  36350841.361 5   8986846.528 5  25027444.675        2821.905
 93  5  1 23  0 30.0010000  0  5  2 24 13 12 26                      0.001588250
   9051534.012 6   7047949.503 5  22778758.724        2395.676
  -9787763.428 6  -7629386.421 5  23288983.311       -3049.580
  -8811921.235 8  -7131997.558 8  20684491.025         661.762
  -9516806.213 6  -7422432.981 6  23177798.544       -2512.885
  36435520.231 5   9052829.844 5  25043559.801        2823.465
 93  5  1 23  1  0.0010000  0  5  2 24 13 12 26                      0.001593870
   9123534.938 6   7104054.099 5  22792460.078        2404.312
  -9879128.717 6  -7700580.022 5  23271598.436       -3041.466
  -8791823.135 8  -7116336.680 8  20688315.479         678.017
  -9592056.222 6  -7481069.330 6  23163478.698       -2504.022
  36520254.642 5   9118856.335 5  25059684.154        2825.492
 93  5  1 23  1 30.0010000  0  5  2 24 13 12 26                      0.001599490
   9195799.610 6   7160364.209 5  22806211.410        2413.411
  -9970248.134 6  -7771582.032 5  23254257.585       -3033.425
  -8771236.862 8  -7100295.418 8  20692233.014         694.360
  -9667035.954 6  -7539495.026 6  23149210.527       -2494.868
  36605056.634 5   9184935.597 5  25075820.616        2827.992
 93  5  1 23  2  0.0010000  0  5  2 24 13 12 26                      0.001605140
   9268344.253 6   7216892.395 5  22820016.222        2422.794
 -10061135.182 6  -7842402.965 5  23236961.904       -3025.873
  -8750163.389 8  -7083874.519 8  20696243.240         710.322
  -9741741.317 6  -7597706.991 6  23134994.616       -2485.926
  36689925.653 5   9251066.995 5  25091972.163        2829.687
 93  5  1 23  2 30.0010000  0  5  2 24 13 12 26                      0.001610800
   9341178.800 6   7273646.565 5  22833876.454        2432.716
 -10151796.389 6  -7913047.929 5  23219711.549       -3018.213
  -8728612.136 8  -7067081.318 8  20700344.379         726.455
  -9816177.840 6  -7655709.417 6  23120829.889       -2476.686
  36774850.240 5   9317241.734 5  25108131.027        2832.068
 93  5  1 23  3  0.0010000  0  5  2 24 13 12 26                      0.001616490
   9414295.997 6   7330620.992 5  22847790.022        2441.869
 -10242236.666 6  -7983520.708 5  23202500.756       -3011.046
  -8706584.989 8  -7049917.278 8  20704535.917         742.221
  -9890342.846 6  -7713500.281 6  23106716.632       -2467.638
  36859842.941 5   9383469.525 5  25124304.797        2834.297
 93  5  1 23  3 30.0010000  0  5  2 24 13 12 26                      0.001622200
   9487686.814 6   7387808.526 5  22861756.306        2450.906
 -10332462.410 6  -8053826.367 5  23185330.500       -3003.973
  -8684082.476 8  -7032382.849 8  20708818.143         757.986
  -9964231.874 6  -7771076.089 6  23092655.687       -2458.441
  36944902.696 5   9449749.575 5  25140490.656        2836.436
 93  5  1 23  4  0.0010000  0  5  2 24 13 12 26                      0.001627940
   9561343.904 6   7445203.629 5  22875773.112        2459.412
 -10422465.339 6  -8123958.379 5  23168202.910       -2995.995
  -8661103.601 8  -7014477.223 8  20713191.126         773.924
 -10037840.194 6  -7828433.191 6  23078648.824       -2448.949
  37030025.428 5   9516078.697 5  25156689.338        2838.614
 93  5  1 23  4 30.0010000  0  5  2 24 13 12 26                      0.001633680
   9635244.475 6   7502788.442 5  22889835.306        2467.220
 -10512223.025 6  -8193899.321 5  23151122.520       -2987.725
  -8637647.306 8  -6996199.575 8  20717654.806         789.803
 -10111161.879 6  -7885566.941 6  23064696.283       -2439.329
  37115214.186 5   9582459.226 5  25172901.564        2840.521
 93  5  1 23  5  0.0010000  0  5  2 24 13 12 26                      0.001639420
   9709377.904 6   7560554.677 5  22903943.070        2474.956
 -10601720.639 6  -8263637.592 5  23134091.373       -2978.720
  -8613714.866 8  -6977550.889 8  20722208.754         805.663
 -10184194.323 6  -7942475.285 6  23050798.777       -2429.650
  37200457.118 5   9648881.987 5  25189121.653        2842.319
 93  5  1 23  5 30.0010000  0  4  2 24 13 12                         0.001644780
   9783745.208 6   7618503.191 5  22918094.392        2483.089
 -10690935.305 6  -8333155.449 5  23117114.503       -2968.821
  -8589306.718 8  -6958531.549 8  20726853.459         821.547
 -10256933.562 6  -7999155.195 6  23036956.914       -2419.796
 93  5  1 23  6  0.0010000  0  4  2 24 13 12                         0.001650470
   9858358.875 6   7676643.652 5  22932293.214        2491.372
 -10779852.009 6  -8402441.065 5  23100195.576       -2958.816
  -8564430.036 8  -6939147.121 8  20731586.961         837.076
 -10329382.217 6  -8055608.646 6  23023170.271       -2410.148
 93  5  1 23  6 30.0010000  0  4  2 24 13 12                         0.001656170
   9933239.664 6   7734992.264 5  22946542.628        2500.782
 -10868468.498 6  -8471492.748 5  23083331.504       -2948.908
  -8539082.180 8  -6919395.523 8  20736410.432         852.888
 -10401532.850 6  -8111829.850 6  23009440.234       -2400.020
 93  5  1 23  7  0.0010000  0  4  2 24 13 12                         0.001661890
  10008402.927 6   7793561.017 5  22960845.726        2510.103
 -10956791.745 6  -8540315.948 6  23066524.096       -2939.428
  -8513262.939 8  -6899276.611 8  20741323.609         868.428
 -10473380.420 6  -8167814.931 6  22995768.361       -2390.025
 93  5  1 23  7 30.0010000  0  4  2 24 13 12                         0.001667640
  10083848.077 6   7852349.412 5  22975202.562        2519.649
 -11044836.359 6  -8608922.011 6  23049770.100       -2930.170
  -8486978.612 8  -6878795.317 8  20746325.369         883.936
 -10544926.851 6  -8223565.354 6  22982153.626       -2379.879
 93  5  1 23  8  0.0010000  0  4  2 24 13 12                         0.001673390
  10159575.751 6   7911357.921 5  22989612.811        2528.927
 -11132606.848 6  -8677314.512 5  23033067.008       -2921.101
  -8460225.946 8  -6857949.080 8  20751416.163         899.715
 -10616165.015 6  -8279075.585 6  22968597.474       -2369.362
 93  5  1 23  8 30.0010000  0  4  2 24 13 12                         0.001679150
  10235570.098 6   7970574.254 5  23004073.970        2537.562
 -11220115.155 6  -8745502.724 5  23016415.287       -2912.449
  -8433004.435 8  -6836737.507 8  20756596.217         915.232
 -10687089.854 6  -8334341.622 6  22955100.655       -2358.966
 93  5  1 23  9  0.0010000  0  4  2 24 13 12                         0.001684910
  10311823.079 6   8029992.113 5  23018584.285        2546.217
 -11307356.518 6  -8813482.906 5  22999813.807       -2903.476
  -8405315.216 8  -6815161.467 8  20761865.420         930.858
 -10757697.478 6  -8389360.514 6  22941664.636       -2348.293
 93  5  1 23  9 30.0010000  0  4  2 24 13 12                         0.001690670
  10388335.299 6   8089611.955 5  23033144.256        2554.773
 -11394333.967 6  -8881257.393 5  22983262.867       -2894.896
  -8377164.232 9  -6793225.634 8  20767222.311         945.957
 -10827989.707 6  -8444133.642 6  22928288.205       -2337.995
 93  5  1 23 10  0.0010000  0  4  2 24 13 12                         0.001696430
  10465109.285 6   8149435.832 5  23047754.242        2563.593
 -11481051.418 6  -8948829.314 6  22966760.614       -2886.243
  -8348555.939 8  -6770933.450 8  20772666.192         961.270
 -10897966.002 6  -8498660.572 6  22914972.125       -2327.315
 93  5  1 23 10 30.0010000  0  4  2 24 13 12                         0.001702180
  10542154.797 6   8209471.204 5  23062415.902        2572.913
 -11567505.815 6  -9016196.256 6  22950308.424       -2877.149
  -8319489.533 8  -6748284.297 8  20778197.383         976.550
 -10967620.996 6  -8552937.143 6  22901717.012       -2316.535
 93  5  1 23 11  0.0010000  0  4  2 24 13 12                         0.001707960
  10619484.468 6   8269728.043 5  23077130.657        2582.314
 -11653674.755 7  -9083340.760 6  22933910.852       -2867.580
  -8289961.651 8  -6725275.539 8  20783816.453         991.836
 -11036946.980 6  -8606957.352 6  22888524.775       -2305.556
 93  5  1 23 11 30.0010000  0  4  2 24 13 12                         0.001713750
  10697097.849 6   8330205.955 5  23091899.940        2591.825
 -11739553.942 6  -9150259.500 6  22917569.137       -2857.697
  -8259978.849 8  -6701912.329 8  20789522.203        1006.965
 -11105945.303 6  -8660722.250 6  22875394.954       -2294.571
 93  5  1 23 12  0.0010000  0  4  2 24 13 12                         0.001719550
  10774989.640 6   8390900.823 5  23106722.151        2600.973
 -11825133.369 7  -9216944.664 6  22901283.093       -2847.501
  -8229544.358 8  -6678197.145 8  20795313.974        1022.066
 -11174614.978 6  -8714231.034 6  22862327.450       -2283.556
 93  5  1 23 12 30.0010000  0  4  2 24 13 12                         0.001725370
  10853160.595 6   8451813.182 5  23121597.299        2610.498
 -11910402.279 7  -9283387.856 6  22885057.044       -2837.097
  -8198658.555 8  -6654130.276 8  20801191.314        1036.969
 -11242951.856 6  -8767480.524 6  22849323.132       -2272.510
 93  5  1 23 13  0.0010000  0  4  2 24 13 12                         0.001731210
  10931618.438 6   8512949.135 5  23136527.565        2620.076
 -11995358.431 7  -9349587.330 6  22868890.746       -2826.726
  -8167326.658 8  -6629715.811 8  20807153.608        1051.827
 -11310956.170 6  -8820470.870 6  22836382.352       -2261.361
 93  5  1 23 13 30.0010000  0  4  2 24 13 12                         0.001737080
  11010368.168 6   8574312.535 5  23151513.533        2629.672
 -12080007.255 7  -9415547.341 6  22852782.206       -2816.671
  -8135548.668 8  -6604953.746 8  20813200.723        1066.570
 -11378623.493 6  -8873198.593 6  22823505.734       -2250.142
 93  5  1 23 14  0.0010000  0  4  2 24 13 12                         0.001742960
  11089403.986 6   8635898.784 5  23166553.030        2639.390
 -12164351.994 7  -9481270.377 6  22836731.952       -2806.337
  -8103324.383 8  -6579843.916 8  20819332.566        1081.725
 -11445949.376 6  -8925660.294 6  22810693.955       -2238.419
 93  5  1 23 14 30.0010000  0  4  2 24 13 12                         0.001748860
  11168729.969 6   8697711.217 5  23181648.650        2649.101
 -12248391.862 7  -9546755.887 6  22820739.891       -2796.204
  -8070649.574 8  -6554383.012 8  20825550.322        1096.718
 -11512924.632 6  -8977848.757 6  22797948.980       -2226.676
 93  5  1 23 15  0.0010000  0  4  2 24 13 12                         0.001754780
  11248326.848 6   8759734.721 5  23196795.524        2657.232
 -12332132.984 7  -9612008.608 6  22804804.541       -2786.542
  -8037530.229 8  -6528575.740 8  20831852.639        1111.270
 -11579550.336 6  -9029764.866 6  22785270.634       -2215.181
 93  5  1 23 15 30.0010000  0  4  2 24 13 12                         0.001760680
  11328159.769 6   8821942.108 5  23211987.188        2664.777
 -12415583.155 6  -9677034.614 6  22788924.258       -2776.981
  -8003975.101 8  -6502428.886 8  20838238.120        1125.523
 -11645830.169 6  -9081411.451 6  22772658.185       -2203.882
 93  5  1 23 16  0.0010000  0  4  2 24 13 12                         0.001766560
  11408218.944 6   8884325.843 5  23227222.250        2672.605
 -12498749.014 7  -9741839.057 6  22773097.941       -2767.303
  -7969992.783 8  -6475949.135 8  20844704.753        1139.986
 -11711768.833 6  -9132792.191 6  22760110.235       -2192.212
 93  5  1 23 16 30.0010000  0  4  2 24 13 12                         0.001772430
  11488510.008 6   8946890.275 5  23242501.371        2680.144
 -12581623.139 7  -9806416.188 6  22757327.362       -2757.400
  -7935583.623 8  -6449136.822 8  20851252.558        1153.990
 -11777361.976 6  -9183903.686 6  22747628.106       -2180.833
 93  5  1 23 17  0.0010000  0  4  2 24 13 12                         0.001778290
  11569025.106 6   9009629.238 5  23257823.007        2687.572
 -12664193.867 7  -9870756.899 6  22741614.888       -2747.267
  -7900755.475 8  -6421997.998 7  20857880.162        1167.829
 -11842612.342 7  -9234748.088 6  22735211.330       -2169.453
 93  5  1 23 17 30.0010000  0  4  2 24 13 12                         0.001784150
  11649783.455 6   9072557.748 5  23273190.516        2696.354
 -12746450.388 7  -9934852.760 6  22725961.963       -2736.651
  -7865510.542 9  -6394534.415 7  20864586.826        1181.751
 -11907517.468 6  -9285323.464 6  22722860.242       -2157.829
 93  5  1 23 18  0.0010000  0  4  2 24 13 12                         0.001790020
  11730819.191 6   9135702.466 5  23288611.031        2705.843
 -12828382.210 7  -9998695.631 6  22710370.178       -2725.647
  -7829844.240 9  -6366742.486 7  20871373.889        1195.802
 -11972067.688 7  -9335622.307 6  22710576.528       -2145.890
 93  5  1 23 18 30.0010000  0  4  2 24 13 12                         0.001795910
  11812125.206 6   9199057.741 5  23304083.409        2714.707
 -12909983.027 7 -10062280.598 6  22694842.848       -2714.391
  -7793766.483 8  -6338629.928 7  20878239.255        1209.421
 -12036268.432 7  -9385648.822 6  22698359.702       -2134.240
 93  5  1 23 19  0.0010000  0  4  2 24 13 12                         0.001801820
  11893710.595 6   9262630.666 5  23319608.664        2724.252
 -12991248.942 7 -10125604.570 6  22679378.235       -2703.470
  -7757276.394 8  -6310196.103 7  20885183.369        1223.198
 -12100114.158 7  -9435398.703 6  22686210.092       -2122.352
 93  5  1 23 19 30.0010000  0  4  2 24 13 12                         0.001807740
  11975582.984 6   9326427.318 5  23335187.523        2733.568
 -13072191.104 7 -10188676.281 6  22663974.647       -2692.730
  -7720373.369 9  -6281440.501 7  20892205.727        1236.888
 -12163599.652 7  -9484867.886 6  22674129.348       -2110.365
 93  5  1 23 20  0.0010000  0  4  2 24 13 12                         0.001813670
  12057717.391 6   9390428.045 5  23350818.566        2741.850
 -13152809.069 7 -10251495.352 6  22648634.167       -2681.805
  -7683059.873 9  -6252365.042 7  20899306.441        1250.536
 -12226722.909 7  -9534054.800 6  22662117.391       -2098.197
 93  5  1 23 20 30.0010000  0  4  2 24 13 12                         0.001819600
  12140089.431 6   9454614.043 5  23366492.953        2749.628
 -13233092.229 7 -10314053.534 6  22633356.084       -2670.620
  -7645337.225 9  -6222970.759 7  20906484.672        1264.219
 -12289480.235 7  -9582956.576 6  22650174.988       -2085.899
 93  5  1 23 21  0.0010000  0  4  2 24 13 12                         0.001825520
  12222692.392 6   9518979.933 5  23382212.115        2757.141
 -13313052.000 7 -10376359.708 6  22618140.347       -2659.989
  -7607209.469 8  -6193260.823 7  20913740.148        1277.632
 -12351870.981 7  -9631572.704 6  22638302.660       -2073.665
 93  5  1 23 21 30.0010000  0  4  2 24 13 12                         0.001831420
  12305512.482 6   9583514.966 5  23397971.797        2764.179
 -13392682.172 7 -10438409.129 6  22602986.978       -2648.612
  -7568679.848 9  -6163237.757 7  20921072.092        1291.023
 -12413893.661 7  -9679902.050 6  22626499.948       -2061.342
 93  5  1 23 22  0.0010000  0  4  2 24 13 12                         0.001837300
  12388554.159 6   9648222.716 5  23413774.232        2772.039
 -13471971.182 7 -10500192.695 6  22587898.833       -2637.384
  -7529749.016 8  -6132902.032 8  20928480.534        1304.340
 -12475544.397 7  -9727941.553 6  22614768.052       -2048.886
 93  5  1 23 22 30.0010000  0  4  2 24 13 12                         0.001843190
  12471850.617 6   9713128.966 5  23429624.596        2781.020
 -13550919.605 7 -10561710.850 6  22572875.604       -2626.064
  -7490415.473 8  -6102252.505 8  20935965.284        1317.800
 -12536816.600 7  -9775686.084 6  22603108.364       -2036.138
 93  5  1 23 23  0.0010000  0  4  2 24 13 12                         0.001849090
  12555419.898 6   9778247.787 5  23445528.071        2790.247
 -13629539.159 7 -10622972.735 6  22557914.550       -2615.082
  -7450683.104 9  -6071292.220 7  20943525.939        1331.059
 -12597709.364 7  -9823134.961 6  22591520.897       -2023.498
 93  5  1 23 23 30.0010000  0  4  2 24 13 12                         0.001855010
  12639270.632 6   9843586.003 5  23461484.203        2799.869
 -13707821.206 7 -10683971.634 6  22543018.105       -2603.777
  -7410550.117 8  -6040019.774 7  20951162.831        1344.442
 -12658216.271 7  -9870283.175 6  22580006.895       -2010.515
 93  5  1 23 24  0.0010000  0  4  2 24 13 12                         0.001860950
  12723411.332 6   9909150.102 5  23477495.785        2809.351
 -13785769.600 7 -10744710.528 6  22528185.003       -2592.753
  -7370016.850 8  -6008435.393 7  20958876.051        1357.691
 -12718332.920 7  -9917127.282 6  22568567.055       -1997.523
 93  5  1 23 24 30.0010000  0  4  2 24 13 12                         0.001866900
  12807836.725 6   9974936.028 5  23493561.486        2818.780
 -13863378.148 7 -10805184.661 6  22513416.774       -2581.220
  -7329081.321 8  -5976537.565 7  20966666.008        1371.247
 -12778052.167 7  -9963661.732 6  22557202.853       -1984.078
 93  5  1 23 25  0.0010000  0  4  2 24 13 12                         0.001872860
  12892519.528 6  10040922.602 5  23509675.533        2826.934
 -13940644.325 7 -10865391.995 6  22498713.596       -2569.598
  -7287750.633 8  -5944331.855 7  20974531.065        1384.281
 -12837376.558 7 -10009888.483 6  22545913.589       -1970.951
 93  5  1 23 25 30.0010000  0  4  2 24 13 12                         0.001878830
  12977452.178 6  10107103.809 5  23525837.802        2835.163
 -14017547.152 7 -10925316.182 6  22484078.978       -2557.190
  -7246020.280 8  -5911814.691 7  20982472.077        1397.721
 -12896297.582 7 -10055800.948 6  22534701.440       -1957.324
 93  5  1 23 26  0.0010000  0  4  2 24 13 12                         0.001884790
  13062633.111 6  10173478.478 5  23542047.529        2843.292
 -14094069.581 7 -10984943.968 6  22469517.516       -2544.547
  -7203888.191 8  -5878984.486 7  20990489.656        1410.834
 -12954807.947 7 -10101393.418 6  22523567.229       -1943.822
 93  5  1 23 26 30.0010000  0  4  2 24 13 12                         0.001890760
  13148056.386 6  10240042.030 5  23558303.558        2851.432
 -14170223.145 7 -11044284.330 6  22455025.270       -2532.612
  -7161372.660 9  -5845855.508 7  20998580.055        1423.424
 -13012920.527 7 -10146675.906 6  22512508.414       -1930.630
 93  5  1 23 27  0.0010000  0  4  2 24 13 12                         0.001896730
  13233726.046 6  10306797.504 5  23574605.773        2859.916
 -14246018.640 7 -11103345.690 6  22440601.924       -2520.470
  -7118481.728 8  -5812433.998 7  21006742.065        1435.973
 -13070639.038 7 -10191651.348 6  22501524.900       -1917.403
 93  5  1 23 27 30.0010000  0  4  2 24 13 12                         0.001902700
  13319659.718 6  10373758.766 5  23590958.166        2869.142
 -14321455.904 7 -11162127.905 6  22426246.812       -2508.523
  -7075214.401 9  -5778719.210 7  21014975.765        1448.620
 -13127957.666 7 -10236315.184 7  22490617.491       -1903.870
 93  5  1 23 28  0.0010000  0  4  2 24 13 12                         0.001908700
  13405879.240 6  10440942.755 5  23607365.433        2878.768
 -14396532.789 7 -11220629.298 6  22411960.372       -2496.795
  -7031564.867 9  -5744706.567 7  21023282.005        1461.281
 -13184865.841 7 -10280659.173 7  22479788.265       -1890.226
 93  5  1 23 28 30.0010000  0  4  2 24 13 12                         0.001914730
  13492374.245 6  10508341.338 5  23623824.616        2887.378
 -14471269.135 7 -11278865.322 6  22397738.029       -2485.667
  -6987545.426 8  -5710405.709 7  21031658.336        1473.313
 -13241371.110 7 -10324689.215 7  22469035.979       -1877.015
 93  5  1 23 29  0.0010000  0  4  2 24 13 12                         0.001920760
  13579123.304 6  10575937.985 5  23640332.854        2895.797
 -14545662.767 7 -11336834.290 6  22383581.919       -2473.899
  -6943164.756 9  -5675823.378 7  21040103.489        1485.344
 -13297477.447 7 -10368408.426 7  22458359.333       -1863.625
 93  5  1 23 29 30.0010000  0  4  2 24 13 12                         0.001926790
  13666122.751 6  10643729.648 5  23656888.834        2904.260
 -14619696.186 7 -11394522.635 6  22369493.172       -2461.421
  -6898421.884 8  -5640958.810 7  21048617.645        1497.724
 -13353178.550 7 -10411811.843 7  22447759.739       -1849.766
 93  5  1 23 30  0.0010000  0  4  2 24 13 12                         0.001932820
  13753366.783 6  10711711.927 5  23673490.805        2912.169
 -14693353.694 7 -11451918.018 6  22355476.855       -2448.897
  -6853307.173 8  -5605804.474 7  21057202.911        1510.152
 -13408460.529 7 -10454888.692 7  22437239.742       -1835.685
 93  5  1 23 30 30.0010000  0  4  2 24 13 12                         0.001938850
  13840835.503 6  10779869.362 5  23690135.121        2919.126
 -14766640.465 7 -11509024.521 6  22341530.542       -2436.894
  -6807829.832 8  -5570367.592 7  21065856.751        1521.698
 -13463327.787 7 -10497642.360 7  22426798.862       -1822.330
 93  5  1 23 31  0.0010000  0  4  2 24 13 12                         0.001944860
  13928517.527 6  10848192.899 5  23706820.730        2926.186
 -14839563.000 7 -11565847.171 6  22327654.046       -2424.713
  -6762004.113 8  -5534659.233 7  21074577.074        1533.200
 -13517789.806 7 -10540080.274 7  22416434.977       -1808.856
 93  5  1 23 31 30.0010000  0  4  2 24 13 12                         0.001950840
  14016407.300 6  10916678.379 5  23723546.039        2933.017
 -14912124.658 7 -11622388.661 6  22313845.687       -2412.919
  -6715840.781 8  -5498687.803 7  21083361.802        1544.299
 -13571852.988 7 -10582207.396 7  22406147.269       -1795.585
 93  5  1 23 32  0.0010000  0  4  2 24 13 12                         0.001956810
  14104512.945 6  10985332.017 5  23740312.023        2940.688
 -14984334.106 7 -11678655.720 6  22300104.888       -2401.001
  -6669342.177 9  -5462455.113 7  21092210.277        1555.581
 -13625514.884 7 -10624021.848 7  22395935.655       -1782.071
 93  5  1 23 32 30.0010000  0  4  2 24 13 12                         0.001962770
  14192857.110 6  11054171.571 5  23757123.167        2948.975
 -15056173.909 7 -11734634.708 6  22286434.244       -2388.322
  -6622501.611 8  -5425955.977 7  21101123.997        1567.171
 -13678763.607 7 -10665514.324 7  22385802.731       -1768.029
 93  5  1 23 33  0.0010000  0  4  2 24 13 12                         0.001968750
  14281450.910 6  11123205.641 5  23773982.144        2957.145
 -15127635.598 7 -11790319.053 6  22272835.576       -2375.876
  -6575316.791 8  -5389188.587 7  21110102.841        1578.404
 -13731592.111 7 -10706679.353 7  22375749.779       -1754.145
 93  5  1 23 33 30.0010000  0  4  2 24 13 12                         0.001974720
  14370281.678 6  11192424.284 5  23790885.968        2964.898
 -15198731.874 7 -11845718.684 6  22259306.285       -2363.943
  -6527799.921 8  -5352162.448 7  21119145.081        1589.390
 -13784008.193 7 -10747523.037 7  22365775.315       -1740.451
 93  5  1 23 34  0.0010000  0  4  2 24 13 12                         0.001980690
  14459341.132 6  11261821.190 5  23807832.989        2972.236
 -15269472.688 7 -11900841.355 6  22245844.411       -2351.859
  -6479956.486 9  -5314881.842 7  21128249.057        1600.191
 -13836012.226 7 -10788045.631 7  22355879.227       -1726.723
 93  5  1 23 34 30.0010000  0  4  2 24 13 12                         0.001986630
  14548610.866 6  11331382.019 5  23824820.085        2978.949
 -15339835.864 7 -11955669.727 6  22232454.630       -2339.196
  -6431786.151 9  -5277346.522 7  21137415.772        1611.026
 -13887599.770 7 -10828243.684 7  22346062.404       -1712.790
 93  5  1 23 35  0.0010000  0  4  2 24 13 12                         0.001992550
  14638079.419 6  11401097.553 5  23841845.904        2985.482
 -15409819.193 7 -12010202.128 6  22219137.532       -2326.390
  -6383296.456 8  -5239562.352 7  21146642.945        1621.507
 -13938773.195 7 -10868119.054 7  22336324.365       -1699.070
 93  5  1 23 35 30.0010000  0  4  2 24 13 12                         0.001998430
  14727740.280 6  11470963.179 5  23858908.083        2992.008
 -15479411.879 7 -12064430.112 7  22205894.291       -2313.092
  -6334489.622 9  -5201531.064 7  21155930.664        1632.218
 -13989530.193 7 -10907669.939 7  22326665.382       -1684.964
 93  5  1 23 36  0.0020000  0  4  2 24 13 12                         0.002004280
  14817604.717 5  11540987.352 5  23876008.203        2998.774
 -15548601.030 7 -12118343.705 7  22192727.865       -2299.393
  -6285360.422 9  -5163248.560 7  21165279.531        1642.886
 -14039864.207 7 -10946891.235 7  22317087.211       -1670.750
 93  5  1 23 36 30.0020000  0  4  2 24 13 12                         0.002010110
  14907677.345 5  11611173.671 5  23893149.224        3006.068
 -15617380.465 7 -12171937.998 7  22179639.567       -2286.327
  -6235911.721 9  -5124717.113 7  21174689.256        1653.480
 -14089766.623 7 -10985776.196 7  22307591.147       -1656.484
 93  5  1 23 37  0.0020000  0  4  2 24 13 12                         0.002015920
  14997980.009 5  11681539.329 5  23910332.835        3013.848
 -15685781.558 7 -12225237.500 7  22166623.037       -2273.956
  -6186146.517 9  -5085939.046 7  21184159.802        1664.049
 -14139239.092 7 -11024326.139 7  22298176.804       -1642.067
 93  5  1 23 37 30.0020000  0  4  2 24 13 12                         0.002021740
  15088508.636 5  11752080.959 5  23927559.866        3021.498
 -15753824.520 7 -12278257.899 7  22153674.672       -2262.303
  -6136068.808 9  -5046917.465 7  21193689.233        1674.460
 -14188281.111 7 -11062540.705 7  22288844.834       -1627.624
 93  5  1 23 38  0.0020000  0  4  2 24 13 12                         0.002027560
  15179273.633 5  11822806.887 5  23944832.231        3029.444
 -15821519.523 7 -12331007.211 7  22140792.738       -2250.638
  -6085677.650 9  -5007651.606 7  21203278.706        1684.941
 -14236886.872 7 -11100415.284 7  22279595.437       -1612.987
 93  5  1 23 38 30.0020000  0  4  2 24 13 12                         0.002033400
  15270275.307 5  11893717.207 5  23962149.208        3037.509
 -15888863.984 7 -12383483.348 7  22127977.249       -2238.795
  -6034971.562 9  -4968140.374 7  21212927.365        1695.555
 -14285050.504 7 -11137945.370 7  22270430.151       -1598.038
 93  5  1 23 39  0.0020000  0  4  2 24 13 12                         0.002039240
  15361506.786 5  11964806.527 5  23979510.370        3044.650
 -15955842.310 7 -12435674.183 7  22115232.204       -2226.100
  -5983951.963 9  -4928384.860 7  21222636.104        1705.933
 -14332768.477 7 -11175128.189 7  22261349.530       -1583.117
 93  5  1 23 39 30.0020000  0  4  2 24 13 12                         0.002045060
  15452949.598 5  12036060.599 5  23996911.189        3051.738
 -16022426.363 7 -12487557.788 7  22102561.525       -2212.680
  -5932619.634 9  -4888385.635 7  21232404.572        1716.309
 -14380036.882 7 -11211960.677 7  22252354.426       -1568.187
 93  5  1 23 40  0.0020000  0  4  2 24 13 12                         0.002050880
  15544610.118 5  12107484.217 5  24014354.120        3058.902
 -16088592.444 7 -12539115.696 7  22089970.912       -2198.357
  -5880971.224 9  -4848140.108 7  21242232.409        1726.767
 -14426847.693 7 -11248436.614 7  22243446.593       -1552.897
 93  5  1 23 40 30.0020000  0  4  2 24 13 12                         0.002056670
  15636488.226 5  12179077.514 5  24031837.369        3066.312
 -16154322.235 7 -12590333.672 7  22077462.470       -2183.570
  -5829010.312 9  -4807651.101 7  21252120.183        1737.313
 -14473199.976 7 -11284555.253 7  22234626.038       -1537.469
 93  5  1 23 41  0.0020000  0  4  2 24 13 12                         0.002062440
  15728585.652 6  12250841.614 5  24049363.673        3073.513
 -16219615.632 7 -12641211.582 7  22065037.235       -2169.413
  -5776737.660 8  -4766919.171 7  21262067.228        1747.490
 -14519089.701 7 -11320313.462 7  22225893.425       -1522.152
 93  5  1 23 41 30.0020000  0  4  2 24 13 12                         0.002068210
  15820909.485 5  12322782.133 5  24066932.569        3081.547
 -16284486.678 7 -12691760.375 7  22052692.867       -2155.393
  -5724159.753 8  -4725949.365 7  21272072.781        1757.724
 -14564519.003 7 -11355712.907 7  22217248.480       -1506.688
 93  5  1 23 42  0.0020000  0  4  2 24 13 12                         0.002073970
  15913476.025 5  12394911.828 5  24084546.917        3089.571
 -16348940.441 7 -12741984.017 7  22040427.281       -2141.590
  -5671275.581 8  -4684740.928 7  21282136.253        1767.818
 -14609482.397 7 -11390749.316 7  22208692.191       -1491.131
 93  5  1 23 42 30.0020000  0  4  2 24 13 12                         0.002079760
  16006288.995 5  12467233.554 5  24102208.915        3097.605
 -16412983.724 7 -12791887.823 7  22028240.387       -2128.143
  -5618087.260 8  -4643295.501 7  21292257.477        1778.045
 -14653977.500 7 -11425420.800 7  22200225.034       -1475.415
 93  5  1 23 43  0.0020000  0  4  2 24 13 12                         0.002085550
  16099336.082 5  12539737.645 5  24119914.640        3105.457
 -16476628.737 7 -12841481.292 7  22016129.193       -2114.742
  -5564594.894 8  -4601613.144 7  21302436.660        1788.128
 -14697999.876 7 -11459723.927 7  22191847.925       -1459.594
 93  5  1 23 43 30.0020000  0  4  2 24 13 12                         0.002091350
  16192613.080 5  12612420.870 5  24137665.557        3113.040
 -16539856.716 7 -12890749.786 7  22004097.390       -2100.483
  -5510798.354 8  -4559693.752 7  21312674.013        1798.348
 -14741544.642 7 -11493654.902 7  22183561.700       -1443.502
 93  5  1 23 44  0.0020000  0  4  2 24 13 12                         0.002097140
  16286111.711 5  12685276.902 5  24155457.365        3120.402
 -16602661.932 7 -12939688.842 7  21992146.045       -2086.245
  -5456698.418 8  -4517537.965 7  21322968.926        1808.474
 -14784608.268 7 -11527210.954 7  22175367.103       -1427.380
 93  5  1 23 44 30.0020000  0  4  2 24 13 12                         0.002102920
  16379825.258 5  12758300.322 5  24173290.804        3127.313
 -16665039.269 7 -12988294.496 7  21980276.143       -2072.147
  -5402297.909 8  -4475147.970 7  21333321.020        1818.359
 -14827188.891 7 -11560390.646 7  22167264.073       -1411.358
 93  5  1 23 45  0.0020000  0  4  2 24 13 12                         0.002108690
  16473759.888 5  12831496.027 5  24191165.449        3134.983
 -16726983.738 7 -13036562.871 7  21968487.912       -2057.516
  -5347594.207 8  -4432521.723 7  21343730.523        1828.441
 -14869278.861 7 -11593187.999 8  22159254.537       -1394.973
 93  5  1 23 45 30.0020000  0  4  2 24 13 12                         0.002114480
  16567931.629 5  12904876.494 5  24209086.699        3143.390
 -16788492.376 7 -13084491.606 7  21956783.376       -2043.199
  -5292589.692 8  -4389661.055 7  21354197.397        1838.538
 -14910876.362 7 -11625601.630 8  22151338.868       -1378.387
 93  5  1 23 46  0.0020000  0  4  2 24 13 12                         0.002120300
  16662363.347 5  12978459.535 5  24227055.450        3151.955
 -16849581.067 7 -13132093.114 7  21945158.483       -2029.278
  -5237282.850 8  -4346564.842 7  21364722.131        1848.453
 -14951975.643 7 -11657627.019 8  22143517.914       -1361.881
 93  5  1 23 46 30.0020000  0  4  2 24 13 12                         0.002126160
  16757054.170 5  13052244.535 5  24245075.635        3160.637
 -16910245.247 7 -13179363.847 7  21933614.184       -2014.977
  -5181679.038 8  -4303237.202 7  21375303.065        1858.502
 -14992577.288 7 -11689264.646 8  22135791.541       -1345.107
 93  5  1 23 47  0.0020000  0  4  2 24 13 12                         0.002132050
  16852000.261 5  13126228.312 5  24263143.550        3169.151
 -16970476.411 7 -13226297.180 7  21922153.138       -2000.132
  -5125777.656 8  -4259677.685 7  21385940.641        1868.361
 -15032676.780 7 -11720510.970 8  22128160.832       -1328.336
 93  5  1 23 47 30.0020000  0  4  2 24 13 12                         0.002137960
  16947193.382 5  13200404.747 5  24281257.919        3176.967
 -17030253.565 7 -13272876.728 7  21910777.686       -1985.005
  -5069579.740 8  -4215887.103 7  21396635.027        1878.110
 -15072270.389 7 -11751363.137 8  22120626.560       -1311.480
 93  5  1 23 48  0.0020000  0  4  2 24 13 12                         0.002143870
  17042620.159 5  13274763.085 5  24299417.785        3184.343
 -17089561.514 7 -13319090.647 7  21899491.978       -1968.953
  -5013088.526 8  -4171867.990 7  21407385.274        1887.761
 -15111357.336 7 -11781820.469 8  22113188.579       -1294.715
 93  5  1 23 48 30.0020000  0  4  2 24 13 12                         0.002149740
  17138259.488 5  13349287.132 5  24317616.577        3191.380
 -17148389.348 7 -13364930.458 7  21888297.379       -1953.226
  -4956307.622 8  -4127623.149 7  21418190.335        1897.404
 -15149936.098 7 -11811881.807 8  22105847.460       -1277.693
 93  5  1 23 49  0.0020000  0  4  2 24 13 12                         0.002155600
  17234111.325 5  13423976.779 5  24335856.972        3198.638
 -17206752.284 7 -13410408.036 7  21877191.167       -1937.979
  -4899239.430 8  -4083154.430 7  21429050.017        1906.902
 -15188004.887 7 -11841545.806 8  22098603.256       -1260.671
 93  5  1 23 49 30.0020000  0  4  2 24 13 12                         0.002161460
  17330180.345 5  13498835.658 5  24354138.222        3206.007
 -17264669.203 7 -13455538.045 7  21866169.657       -1923.259
  -4841888.839 8  -4038465.650 7  21439963.632        1916.523
 -15225564.106 7 -11870812.688 8  22091455.874       -1243.419
 93  5  1 23 50  0.0020000  0  4  2 24 13 12                         0.002167330
  17426471.606 5  13573867.625 5  24372461.846        3213.304
 -17322151.903 7 -13500329.711 7  21855230.899       -1909.038
  -4784252.964 8  -3993554.601 7  21450931.109        1925.859
 -15262606.307 7 -11899676.725 8  22084406.934       -1226.279
 93  5  1 23 50 30.0020000  0  4  2 24 13 12                         0.002173220
  17522983.654 5  13649071.704 5  24390827.641        3220.760
 -17379214.236 7 -13544793.800 7  21844372.107       -1895.004
  -4726335.382 8  -3948424.036 7  21461952.280        1935.264
 -15299131.174 7 -11928137.643 8  22077456.384       -1208.977
 93  5  1 23 51  0.0020000  0  4  2 24 13 12                         0.002179130
  17619718.919 5  13724449.732 5  24409235.127        3228.212
 -17435840.466 7 -13588918.113 7  21833596.496       -1879.892
  -4668139.914 8  -3903076.915 7  21473026.493        1944.548
 -15335138.215 7 -11956195.065 8  22070604.399       -1191.583
 93  5  1 23 51 30.0020000  0  4  2 24 13 12                         0.002185030
  17716674.499 5  13799999.392 5  24427685.028        3235.523
 -17491997.585 7 -13632676.858 7  21822910.305       -1863.763
  -4609663.969 8  -3857511.243 7  21484154.320        1953.933
 -15370620.725 7 -11983843.759 8  22063852.342       -1174.001
 93  5  1 23 52  0.0020000  0  4  2 24 13 12                         0.002190930
  17813848.551 5  13875719.363 5  24446177.615        3242.854
 -17547664.256 7 -13676053.425 7  21812317.475       -1847.202
  -4550911.395 8  -3811730.033 7  21495334.799        1963.034
 -15405578.258 7 -12011083.376 8  22057200.150       -1156.616
 93  5  1 23 52 30.0020000  0  4  2 24 13 12                         0.002196790
  17911254.150 5  13951619.638 5  24464712.726        3250.885
 -17602826.632 7 -13719037.044 7  21801820.335       -1830.105
  -4491881.776 8  -3765732.943 7  21506567.924        1972.363
 -15440006.266 7 -12037910.380 8  22050648.914       -1138.758
 93  5  1 23 53  0.0020000  0  4  2 24 13 12                         0.002202660
  18008899.522 5  14027706.868 5  24483295.065        3259.125
 -17657479.584 7 -13761623.721 7  21791420.482       -1813.384
  -4432578.346 9  -3719522.470 7  21517852.860        1981.418
 -15473903.415 7 -12064323.739 8  22044198.680       -1121.052
 93  5  1 23 53 30.0020000  0  4  2 24 13 12                         0.002208520
  18106791.884 5  14103986.507 5  24501922.002        3267.352
 -17711641.983 7 -13803828.141 7  21781113.350       -1797.496
  -4373005.575 8  -3673102.126 7  21529189.352        1990.256
 -15507269.782 7 -12090323.498 8  22037849.144       -1103.429
 93  5  1 23 54  0.0020000  0  4  2 24 13 12                         0.002214440
  18204945.078 5  14180469.402 5  24520602.098        3275.970
 -17765338.062 7 -13845669.189 7  21770895.323       -1782.245
  -4313162.866 8  -3626471.479 7  21540576.730        1999.234
 -15540100.729 7 -12115906.043 8  22031601.530       -1085.515
 93  5  1 23 54 30.0020000  0  4  2 24 13 12                         0.002220390
  18303345.809 5  14257145.179 5  24539325.477        3283.924
 -17818577.349 7 -13887154.302 7  21760763.767       -1766.959
  -4253052.751 8  -3579632.446 7  21552015.070        2008.132
 -15572394.086 7 -12141069.693 8  22025456.003       -1067.559
 93  5  1 23 55  0.0020000  0  4  2 24 13 12                         0.002226370
  18401973.894 5  14333998.091 5  24558095.440        3291.310
 -17871356.885 8 -13928281.169 7  21750720.579       -1751.619
  -4192674.608 8  -3532584.527 7  21563504.577        2017.154
 -15604145.355 7 -12165810.928 8  22019414.147       -1049.337
 93  5  1 23 55 30.0020000  0  4  2 24 13 12                         0.002232360
  18500815.172 5  14411017.188 5  24576902.896        3297.967
 -17923674.653 7 -13969048.223 7  21740764.331       -1736.269
  -4132024.661 8  -3485324.833 7  21575046.117        2026.131
 -15635347.017 7 -12190123.909 8  22013476.627       -1031.048
 93  5  1 23 56  0.0020000  0  4  2 24 13 12                         0.002238340
  18599846.594 5  14488184.353 5  24595748.747        3303.910
 -17975522.659 8 -14009449.212 8  21730898.183       -1720.147
  -4071102.513 8  -3437853.050 7  21586639.189        2035.169
 -15665994.147 7 -12214004.781 8  22007644.755       -1012.492
 93  5  1 23 56 30.0020000  0  4  2 24 13 12                         0.002244280
  18699056.218 5  14565490.501 5  24614626.843        3309.976
 -18026877.396 8 -14049465.840 8  21721125.688       -1703.724
  -4009914.232 8  -3390173.873 7  21598283.100        2043.939
 -15696088.593 7 -12237454.995 8  22001917.868        -994.130
 93  5  1 23 57  0.0020000  0  4  2 24 13 12                         0.002250200
  18798451.898 5  14642941.527 5  24633542.471        3316.702
 -18077748.837 7 -14089105.898 8  21711445.000       -1687.578
  -3948464.647 8  -3342291.092 7  21609976.205        2052.770
 -15725631.700 7 -12260475.593 8  21996296.020        -975.565
 93  5  1 23 57 30.0020000  0  4  2 24 13 12                         0.002256110
  18898054.118 5  14720553.568 5  24652494.992        3323.671
 -18128137.817 7 -14128370.005 8  21701856.397       -1671.463
  -3886759.476 8  -3294209.161 6  21621718.447        2061.113
 -15754624.899 7 -12283067.704 8  21990779.081        -957.278
 93  5  1 23 58  0.0020000  0  4  2 24 13 12                         0.002262030
  18997879.988 5  14798340.223 5  24671492.773        3331.476
 -18178034.288 7 -14167250.312 8  21692361.389       -1654.934
  -3824799.689 8  -3245928.828 6  21633509.054        2069.467
 -15783065.235 7 -12305228.989 8  21985367.018        -938.960
 93  5  1 23 58 30.0020000  0  4  2 24 13 12                         0.002267970
  19097951.672 5  14876318.157 5  24690534.871        3339.910
 -18227431.803 7 -14205741.849 8  21682961.428       -1638.348
  -3762589.050 8  -3197453.004 6  21645347.238        2077.970
 -15810952.136 7 -12326959.029 8  21980060.152        -920.272
 93  5  1 23 59  0.0020000  0  4  2 24 13 12                         0.002273940
  19198266.681 5  14954485.862 5  24709624.253        3347.883
 -18276342.777 7 -14243854.262 8  21673653.762       -1622.239
  -3700127.623 8  -3148781.763 6  21657233.149        2086.141
 -15838281.395 7 -12348254.550 8  21974859.482        -901.824
 93  5  1 23 59 30.0020000  0  4  2 24 13 12                         0.002279950
  19298825.852 5  15032843.716 5  24728760.186        3355.832
 -18324755.883 7 -14281578.720 8  21664440.949       -1605.495
  -3637418.085 8  -3099917.220 6  21669166.429        2094.475
 -15865051.799 7 -12369114.584 8  21969765.239        -883.096
 93  5  2  0  0  0.0020000  0  4  2 24 13 12                         0.002285970
  19399619.343 5  15111383.868 5  24747940.012        3363.802
 -18372674.918 7 -14318918.169 8  21655322.231       -1589.095
  -3574460.780 8  -3050859.601 6  21681146.785        2102.745
 -15891260.211 7 -12389536.716 8  21964778.020        -864.268
 93  5  2  0  1  0.0020000  0  4  2 24 13 12                         0.002298140
 -19196629.18815  15269048.20411  24786431.518        3378.682
  18272147.80417 -14392483.77611  21637355.550       -1557.769
   3811252.26818  -2952124.32413  21705247.669        2119.054
  15840964.98917 -12429037.80511  21955125.152        -826.423
 93  5  2  0  1 30.0020000  0  4  2 24 13 12                         0.002304280
 -19095163.836 5  15348112.122 2  24805738.632        3385.571
  18225653.815 8 -14428713.500 5  21628508.035       -1541.912
   3874942.684 8  -2902495.436 5  21717367.630        2126.967
  15816456.784 7 -12448123.537 1  21950461.561        -807.629
 93  5  2  0  2  0.0020000  0  4  2 24 13 12                         0.002310450
 -18993491.701 5  15427336.998 2  24825088.122        3392.632
  18179638.157 7 -14464569.809 6  21619751.680       -1525.631
   3938873.111 8  -2852679.530 5  21729532.988        2135.077
  15792518.341 7 -12466776.852 5  21945906.213        -788.448
 93  5  2  0  2 30.0020000  0  4  2 24 13 12                         0.002316620
 -18891623.722 5  15506714.534 3  24844470.980        3398.728
  18134108.005 8 -14500047.833 6  21611087.635       -1509.395
   4003035.166 8  -2802683.132 5  21741742.494        2142.539
  15769145.412 7 -12484989.515 6  21941458.853        -769.801
 93  5  2  0  3  0.0020000  0  4  2 24 13 12                         0.002322770
 -18789570.436 5  15586236.397 3  24863892.561        3404.797
  18089088.177 8 -14535128.182 7  21602520.455       -1491.870
   4067425.550 8  -2752508.814 6  21753995.602        2150.155
  15746338.708 7 -12502760.957 6  21937118.849        -750.830
 93  5  2  0  3 30.0020000  0  4  2 24 13 12                         0.002328860
 -18687332.387 5  15665902.265 4  24883346.988        3411.138
  18044599.505 8 -14569794.635 7  21594055.098       -1474.066
   4132046.209 8  -2702155.079 6  21766292.369        2157.880
  15724103.894 7 -12520086.768 7  21932887.676        -731.689
 93  5  2  0  4  0.0020000  0  4  2 24 13 12                         0.002334920
 -18584899.114 5  15745720.262 4  24902839.607        3417.788
  18000645.499 8 -14604044.475 7  21585690.666       -1456.188
   4196898.265 8  -2651621.025 6  21778633.206        2165.567
  15702445.139 7 -12536963.717 7  21928766.032        -712.443
 93  5  2  0  4 30.0020000  0  4  2 24 13 12                         0.002340960
 -18482266.506 5  15825693.573 4  24922371.404        3424.526
  17957225.108 8 -14637878.526 7  21577427.879       -1438.563
   4261978.877 8  -2600908.846 6  21791017.962        2173.166
  15681363.684 7 -12553390.819 7  21924754.518        -693.111
 93  5  2  0  5  0.0020000  0  4  2 24 13 12                         0.002346970
 -18379431.396 5  15905824.713 4  24941939.319        3431.158
  17914327.120 8 -14671305.482 8  21569264.858       -1421.481
   4327283.843 8  -2550021.876 6  21803445.189        2180.401
  15660859.067 7 -12569368.427 8  21920852.549        -674.050
 93  5  2  0  5 30.0020000  0  4  2 24 13 12                         0.002353010
 -18276388.545 5  15986117.641 5  24961549.065        3438.263
  17871928.618 8 -14704343.230 8  21561196.345       -1405.102
   4392805.594 8  -2498965.990 6  21815913.566        2187.622
  15640927.123 7 -12584899.811 8  21917059.365        -654.949
 93  5  2  0  6  0.0020000  0  4  2 24 13 12                         0.002359060
 -18173140.106 5  16066570.805 5  24981196.042        3444.969
  17830021.267 8 -14736998.305 8  21553221.415       -1388.894
   4458543.961 8  -2447741.293 6  21828423.467        2194.776
  15621571.533 7 -12599982.086 8  21913376.136        -635.733
 93  5  2  0  6 30.0020000  0  4  2 24 13 12                         0.002365140
 -18069691.113 5  16147180.282 5  25000881.811        3451.674
  17788591.856 8 -14769280.927 8  21545337.713       -1373.108
   4524489.768 8  -2396354.957 6  21840972.039        2201.610
  15602787.548 7 -12614618.952 8  21909801.530        -616.712
 93  5  2  0  7  0.0020000  0  4  2 24 13 12                         0.002371260
 -17966032.714 5  16227952.916 5  25020606.604        3458.640
  17747643.870 8 -14801188.408 8  21537545.347       -1356.887
   4590644.103 8  -2344806.139 6  21853560.544        2208.503
  15584579.108 7 -12628807.345 8  21906336.619        -597.538
 93  5  2  0  7 30.0020000  0  4  2 24 13 12                         0.002377420
 -17862165.903 5  16308887.944 5  25040373.284        3465.746
  17707177.608 8 -14832720.535 8  21529844.938       -1340.620
   4657000.302 8  -2293100.038 6  21866187.923        2215.276
  15566943.435 7 -12642549.422 8  21902980.750        -578.372
 93  5  2  0  8  0.0020000  0  4  2 24 13 12                         0.002383590
 -17758090.333 5  16389985.570 5  25060178.445        3472.678
  17667210.662 8 -14863863.597 8  21522239.854       -1323.765
   4723558.083 8  -2241236.834 6  21878853.575        2221.936
  15549883.498 7 -12655842.861 8  21899734.249        -559.179
 93  5  2  0  8 30.0020000  0  4  2 24 13 12                         0.002389780
 -17653801.196 5  16471249.779 5  25080022.146        3479.585
  17627753.519 8 -14894609.380 8  21514731.282       -1306.736
   4790317.669 8  -2189216.358 6  21891557.710        2228.701
  15533403.095 7 -12668684.737 8  21896598.340        -539.739
 93  5  2  0  9  0.0020000  0  4  2 24 13 12                         0.002395970
 -17549318.774 5  16552664.439 5  25099905.798        3485.759
  17588811.376 8 -14924953.885 8  21507320.991       -1289.273
   4857278.215 8  -2137039.344 6  21904299.918        2235.337
  15517505.367 7 -12681072.568 8  21893573.035        -520.303
 93  5  2  0  9 30.0020000  0  3 24 13 12                            0.002402150
  17550397.946 8 -14954886.386 8  21500011.431       -1271.466
   4924439.567 8  -2084705.851 6  21917080.512        2242.154
  15502192.996 7 -12693004.285 8  21890659.292        -500.683
 93  5  2  0 10  0.0020000  0  4 24 20 13 12                         0.002408000
  17512507.608 8 -14984411.311 8  21492800.753       -1254.404
   -401451.19715  -2475587.74315  25293364.736       -2983.691
   4991797.672 8  -2032218.998 6  21929898.298        2248.620
  15487465.093 7 -12704480.568 8  21887856.869        -481.187
 93  5  2  0 10 30.0020000  0  4 24 20 13 12                         0.002414150
  17475124.705 8 -15013540.813 8  21485687.228       -1237.823
   -490971.767 5  -2545343.890 5  25276329.542       -2984.326
   5059349.739 8  -1979581.041 6  21942752.629        2254.775
  15473322.830 7 -12715500.512 8  21885165.745        -461.907
 93  5  2  0 11  0.0020000  0  4 24 20 13 12                         0.002420290
  17438249.063 8 -15042275.067 8  21478669.666       -1220.616
   -580509.607 5  -2615113.442 5  25259291.376       -2984.874
   5127085.018 8  -1926800.334 6  21955641.975        2260.850
  15459758.453 7 -12726070.156 8  21882584.631        -442.627
 93  5  2  0 11 30.0020000  0  4 24 20 13 12                         0.002426440
  17401876.030 7 -15070617.662 8  21471747.918       -1204.291
   -670065.410 5  -2684897.069 5  25242248.833       -2985.482
   5194999.417 8  -1873880.039 6  21968565.839        2266.716
  15446771.506 7 -12736189.852 8  21880113.342        -423.398
 93  5  2  0 12  0.0020000  0  4 24 20 13 12                         0.002432570
  17365990.174 8 -15098580.636 8  21464918.956       -1187.821
   -759641.999 5  -2754696.862 5  25225202.697       -2985.992
   5263087.062 8  -1820824.720 6  21981522.509        2272.631
  15434359.478 7 -12745861.563 8  21877751.407        -404.059
 93  5  2  0 12 30.0020000  0  4 24 20 13 12                         0.002438700
  17330605.323 7 -15126153.228 9  21458185.407       -1171.080
   -849236.355 5  -2824510.497 5  25208153.692       -2986.802
   5331347.493 8  -1767634.795 6  21994512.237        2278.110
  15422525.057 7 -12755083.178 8  21875499.536        -385.021
 93  5  2  0 13  0.0020000  0  4 24 20 13 12                         0.002444830
  17295728.676 7 -15153329.796 9  21451548.482       -1154.277
   -938847.226 5  -2894336.997 5  25191100.923       -2987.271
   5399778.633 8  -1714311.857 6  22007534.371        2283.860
  15411269.109 7 -12763854.048 9  21873357.419        -365.692
 93  5  2  0 13 30.0020000  0  4 24 20 13 12                         0.002450940
  17261338.298 7 -15180127.482 8  21445004.044       -1138.263
  -1028475.897 5  -2964177.388 5  25174045.180       -2987.882
   5468375.900 8  -1660859.448 6  22020587.805        2289.335
  15400590.559 7 -12772175.000 9  21871325.227        -346.446
 93  5  2  0 14  0.0020000  0  4 24 20 13 12                         0.002457040
  17227440.574 8 -15206541.260 9  21438553.579       -1121.611
  -1118119.986 5  -3034029.843 5  25156985.971       -2988.400
   5537138.659 8  -1607278.087 6  22033672.865        2294.788
  15390491.502 7 -12780044.397 9  21869403.407        -327.078
 93  5  2  0 14 30.0020000  0  4 24 20 13 12                         0.002463120
  17194037.973 8 -15232569.235 9  21432197.307       -1105.110
  -1207778.954 5  -3103893.844 5  25139924.537       -2988.752
   5606063.815 8  -1553570.184 6  22046788.897        2300.310
  15380972.440 7 -12787461.848 9  21867591.982        -307.609
 93  5  2  0 15  0.0020000  0  4 24 20 13 12                         0.002469190
  17161124.837 8 -15258215.820 9  21425934.255       -1088.946
  -1297451.987 5  -3173768.807 5  25122860.119       -2989.405
   5675148.511 8  -1499737.996 6  22059935.275        2305.441
  15372033.900 7 -12794426.935 9  21865891.098        -288.412
 93  5  2  0 15 30.0020000  0  4 24 20 13 12                         0.002475250
  17128709.477 8 -15283474.526 9  21419766.076       -1072.060
  -1387140.441 5  -3243655.811 5  25105793.610       -2989.913
   5744388.550 8  -1445784.726 6  22073111.043        2310.546
  15363674.318 7 -12800940.908 9  21864300.230        -269.133
 93  5  2  0 16  0.0020000  0  4 24 20 13 12                         0.002481310
  17096812.251 8 -15308329.468 9  21413696.117       -1054.538
  -1476840.002 5  -3313551.492 5  25088723.810       -2990.083
   5813784.761 8  -1391709.757 6  22086317.011        2315.767
  15355897.863 7 -12807000.478 9  21862820.336        -249.583
 93  5  2  0 16 30.0020000  0  4 24 20 13 12                         0.002487390
  17065439.844 8 -15332775.473 9  21407726.211       -1037.059
  -1566547.549 5  -3383453.434 5  25071652.590       -2990.384
   5883336.764 8  -1337513.432 6  22099552.669        2320.916
  15348706.948 7 -12812603.790 9  21861451.663        -230.121
 93  5  2  0 17  0.0020000  0  4 24 20 13 12                         0.002493480
  17034593.964 8 -15356811.212 9  21401856.563       -1019.513
  -1656262.247 5  -3453360.905 5  25054580.008       -2990.593
   5953042.347 8  -1283197.430 6  22112817.058        2326.059
  15342102.112 7 -12817750.431 9  21860194.892        -210.458
 93  5  2  0 17 30.0020000  0  4 24 20 13 12                         0.002499580
  17004260.808 8 -15380447.402 9  21396084.238       -1002.983
  -1745984.723 6  -3523274.426 5  25037506.940       -2990.989
   6022897.482 8  -1228764.849 6  22126109.994        2330.803
  15336082.493 7 -12822441.024 9  21859049.466        -191.101
 93  5  2  0 18  0.0020000  0  4 24 20 13 12                         0.002505660
  16974419.452 8 -15403700.386 9  21390405.759        -986.607
  -1835714.686 6  -3593193.726 5  25020432.356       -2991.222
   6092898.911 8  -1174218.296 6  22139430.652        2335.741
  15330647.956 7 -12826675.739 9  21858015.273        -171.589
 93  5  2  0 18 30.0020000  0  4 24 20 13 12                         0.002511700
  16945058.348 7 -15426579.134 9  21384818.687        -970.757
  -1925453.471 5  -3663119.966 5  25003355.799       -2991.378
   6163041.866 8  -1119561.472 6  22152778.290        2340.489
  15325796.740 7 -12830455.887 9  21857092.159        -151.982
 93  5  2  0 19  0.0020000  0  4 24 20 13 12                         0.002517700
  16916170.381 8 -15449089.231 9  21379321.063        -955.201
  -2015197.443 5  -3733050.196 5  24986277.519       -2991.607
   6233326.571 8  -1064794.196 6  22166153.191        2345.084
  15321531.564 7 -12833779.417 9  21856280.552        -132.592
 93  5  2  0 19 30.0020000  0  4 24 20 13 12                         0.002523650
  16887753.026 7 -15471232.600 9  21373913.269        -939.265
  -2104947.924 5  -3802985.545 5  24969197.843       -2991.769
   6303748.485 8  -1009919.977 6  22179554.014        2349.626
  15317850.563 7 -12836647.721 8  21855580.306        -113.074
 93  5  2  0 20  0.0020000  0  4 24 20 13 12                         0.002529570
  16859821.619 8 -15492997.292 9  21368597.987        -922.734
  -2194706.569 5  -3872927.235 5  24952117.914       -2992.037
   6374302.063 8   -954943.184 6  22192979.879        2353.941
  15314751.786 7 -12839062.349 8  21854990.575         -93.703
 93  5  2  0 20 30.0020000  0  4 24 20 13 12                         0.002535480
  16832392.161 8 -15514370.894 9  21363378.052        -905.850
  -2284471.504 6  -3942873.825 5  24935036.778       -2992.221
   6444986.206 8   -899864.674 6  22206430.649        2358.364
  15312236.291 7 -12841022.484 8  21854511.987         -74.166
 93  5  2  0 21  0.0020000  0  4 24 20 13 12                         0.002541400
  16805480.376 7 -15535341.090 9  21358256.787        -888.397
  -2374236.436 6  -4012820.392 5  24917954.862       -2992.219
   6515804.213 8   -844681.812 6  22219906.998        2362.719
  15310309.920 7 -12842523.551 8  21854145.258         -54.573
 93  5  2  0 21 30.0020000  0  4 24 20 13 12                         0.002547320
  16779093.608 8 -15555902.180 9  21353235.653        -870.790
  -2463999.630 5  -4082765.606 5  24900873.777       -2992.113
   6586754.303 8   -789396.032 6  22233408.182        2367.199
  15308973.983 7 -12843564.540 8  21853890.996         -34.728
 93  5  2  0 22  0.0020000  0  4 24 20 13 12                         0.002553260
  16753231.619 8 -15576054.360 9  21348314.250        -853.487
  -2553755.641 5  -4152705.229 5  24883793.607       -2991.873
   6657838.353 8   -734005.895 6  22246934.978        2371.597
  15308233.086 7 -12844141.868 8  21853750.032         -14.994
 93  5  2  0 22 30.0020000  0  4 24 20 13 12                         0.002559190
  16727887.175 8 -15595803.263 9  21343491.419        -836.321
  -2643505.471 6  -4222640.055 5  24866714.394       -2991.589
   6729052.020 8   -678514.748 6  22260486.547        2375.913
  15308085.348 7 -12844256.992 8  21853722.033           4.829
 93  5  2  0 23  0.0020000  0  4 24 20 13 12                         0.002565120
  16703053.909 8 -15615153.832 9  21338765.940        -819.320
  -2733246.679 6  -4292568.190 5  24849637.656       -2991.060
   6800394.062 8   -622923.547 6  22274062.578        2380.323
  15308532.423 7 -12843908.623 8  21853807.075          24.858
 93  5  2  0 23 30.0020000  0  4 24 20 13 12                         0.002571030
  16678717.612 8 -15634117.153 9  21334134.885        -803.009
  -2822977.669 6  -4362488.348 5  24832562.754       -2990.876
   6871863.141 8   -567233.360 6  22287662.882        2384.404
  15309575.050 7 -12843096.182 8  21854005.508          44.582
 93  5  2  0 24  0.0020000  0  4 24 20 13 12                         0.002576900
  16654873.053 8 -15652697.325 9  21329597.636        -786.703
  -2912697.061 6  -4432399.468 5  24815489.635       -2990.539
   6943457.236 8   -511445.813 5  22301286.680        2388.456
  15311213.807 7 -12841819.232 8  21854317.340          64.403
 93  5  2  0 24 30.0020000  0  4 24 20 13 12                         0.002582730
  16631520.762 8 -15670893.887 9  21325154.033        -770.327
  -3002408.586 5  -4502304.467 5  24798417.446       -2990.353
   7015169.120 8   -455566.443 5  22314933.183        2392.309
  15313444.364 7 -12840081.145 8  21854741.768          84.060
 93  5  2  0 25  0.0020000  0  4 24 20 13 12                         0.002588520
  16608659.120 8 -15688708.147 9  21320803.563        -753.723
  -3092107.215 6  -4572199.424 5  24781347.578       -2989.604
   7087000.589 8   -399593.861 5  22328602.282        2396.496
  15316270.223 7 -12837879.180 8  21855279.406         104.167
 93  5  2  0 25 30.0020000  0  4 24 20 13 12                         0.002594280
  16586298.143 8 -15706132.243 9  21316548.430        -736.825
  -3181790.533 6  -4642082.524 5  24764281.235       -2989.222
   7158950.953 8   -343528.667 5  22342294.122        2400.273
  15319693.242 7 -12835211.907 8  21855930.881         123.942
 93  5  2  0 26  0.0020000  0  4 24 20 13 12                         0.002600040
  16564454.520 8 -15723153.234 9  21312391.810        -719.388
  -3271457.527 6  -4711952.794 5  24747217.616       -2988.640
   7231017.569 8   -287372.905 5  22356007.807        2404.087
  15323713.375 7 -12832079.336 8  21856695.734         143.799
 93  5  2  0 26 30.0020000  0  4 24 20 13 12                         0.002605820
  16543138.284 8 -15739763.262 9  21308335.438        -701.836
  -3361108.975 6  -4781811.009 5  24730157.536       -2988.161
   7303196.292 8   -231129.753 5  22369742.921        2407.755
  15328328.808 7 -12828482.898 8  21857574.116         163.628
 93  5  2  0 27  0.0020000  0  4 24 20 13 12                         0.002611610
  16522350.843 8 -15755961.243 9  21304379.706        -683.985
  -3450743.012 6  -4851655.601 5  24713101.340       -2987.594
   7375485.889 8   -174800.188 5  22383499.407        2411.412
  15333540.523 7 -12824421.830 8  21858565.859         183.497
 93  5  2  0 27 30.0020000  0  4 24 20 13 12                         0.002617440
  16502104.875 8 -15771737.305 9  21300526.873        -665.404
  -3540356.331 6  -4921484.107 5  24696048.143       -2986.365
   7447885.809 8   -118384.703 5  22397277.029        2415.501
  15339350.351 7 -12819894.699 8  21859671.404         203.865
 93  5  2  0 28  0.0020000  0  4 24 20 13 12                         0.002623310
  16482400.519 8 -15787091.334 9  21296777.389        -648.113
  -3629944.259 6  -4991292.823 5  24679000.347       -2985.913
   7520397.102 8    -61882.431 5  22411075.275        2418.779
  15345761.953 7 -12814898.641 8  21860891.299         223.554
 93  5  2  0 28 30.0020000  0  4 24 20 13 12                         0.002629190
  16463215.773 8 -15802040.454 9  21293126.485        -630.942
  -3719511.078 6  -5061085.073 5  24661956.500       -2985.089
   7593012.502 8     -5298.992 5  22424893.639        2422.266
  15352769.977 7 -12809437.863 8  21862224.986         243.482
 93  5  2  0 29  0.0020000  0  4 24 20 13 12                         0.002635070
  16444542.511 8 -15816591.023 9  21289573.235        -613.886
  -3809054.442 6  -5130859.058 5  24644916.705       -2984.278
   7665730.729 8     51364.558 5  22438731.140        2425.779
  15360375.523 7 -12803511.454 8  21863672.396         263.507
 93  5  2  0 29 30.0020000  0  4 24 20 13 12                         0.002640930
  16426377.031 8 -15830745.932 9  21286116.298        -597.266
  -3898567.720 6  -5200609.588 5  24627882.566       -2983.348
   7738555.463 8    108111.059 5  22452588.916        2429.179
  15368584.045 7 -12797115.217 8  21865234.353         283.514
 93  5  2  0 30  0.0020000  0  4 24 20 13 12                         0.002646740
  16408702.041 8 -15844518.634 9  21282752.765        -581.070
  -3988051.111 6  -5270336.836 5  24610854.950       -2982.262
   7811482.867 8    164937.589 5  22466466.859        2432.667
  15377394.019 7 -12790250.304 8  21866911.109         303.593
 93  5  2  0 30 30.0020000  0  4 24 20 13 12                         0.002652490
  16391516.846 8 -15857909.673 9  21279482.313        -564.569
  -4077502.666 6  -5340039.247 5  24593833.092       -2981.188
   7884511.516 8    221843.040 5  22480364.065        2435.955
  15386806.102 7 -12782916.221 8  21868702.324         323.648
 93  5  2  0 31  0.0020000  0  4 24 20 13 12                         0.002658220
  16374836.798 8 -15870907.085 9  21276308.549        -547.497
  -4166916.826 6  -5409712.555 5  24576817.407       -2979.798
   7957643.685 8    278829.116 5  22494280.643        2439.528
  15396824.447 7 -12775109.717 8  21870608.833         343.994
 93  5  2  0 31 30.0020000  0  4 24 20 13 12                         0.002663900
  16358661.647 8 -15883511.105 9  21273230.057        -530.838
  -4256292.033 5  -5479355.485 5  24559809.113       -2978.686
   8030877.614 7    335894.486 5  22508216.427        2442.658
  15407448.972 7 -12766830.882 8  21872630.562         364.001
 93  5  2  0 32  0.0020000  0  4 24 20 13 12                         0.002669580
  16342999.956 8 -15895714.985 9  21270249.742        -513.285
  -4345628.327 6  -5548968.122 5  24542808.845       -2977.097
   8104209.794 7    393036.421 5  22522171.066        2446.090
  15418678.313 7 -12758080.756 8  21874767.355         384.364
 93  5  2  0 32 30.0020000  0  4 24 20 13 12                         0.002675270
  16327867.548 8 -15907506.454 9  21267370.148        -495.591
  -4434920.499 6  -5618546.366 5  24525816.879       -2975.656
   8177642.182 7    450256.467 5  22536144.612        2449.423
  15430516.126 7 -12748856.489 8  21877020.072         404.629
 93  5  2  0 33  0.0020000  0  4 24 20 13 12                         0.002680980
  16313264.711 8 -15918885.274 9  21264591.231        -478.013
  -4524166.038 6  -5688088.209 5  24508834.172       -2973.908
   8251173.897 7    507553.876 5  22550137.024        2452.731
  15442963.410 7 -12739157.317 8  21879388.774         425.051
 93  5  2  0 33 30.0020000  0  4 24 20 13 12                         0.002686670
  16299178.716 8 -15929861.349 9  21261910.686        -460.803
  -4613364.940 6  -5757593.768 5  24491860.564       -2972.422
   8324801.046 7    564925.649 5  22564147.777        2455.886
  15456018.591 7 -12728984.453 8  21881873.116         445.213
 93  5  2  0 34  0.0020000  0  4 24 20 13 12                         0.002692370
  16285612.828 8 -15940432.176 9  21259329.203        -443.613
  -4702516.341 6  -5827062.325 5  24474896.109       -2970.887
   8398521.853 7    622370.415 5  22578176.344        2458.936
  15469681.227 7 -12718338.252 8  21884472.846         465.462
 93  5  2  0 34 30.0020000  0  4 24 20 13 12                         0.002698060
  16272562.402 8 -15950601.300 9  21256845.921        -426.463
  -4791616.844 6  -5896491.237 5  24457941.328       -2969.189
   8472336.081 7    679888.004 5  22592222.989        2461.969
  15483952.993 7 -12707217.396 8  21887188.763         485.683
 93  5  2  0 35  0.0020000  0  4 24 20 13 12                         0.002703700
  16260022.451 8 -15960372.688 9  21254459.454        -409.582
  -4880667.976 6  -5965881.613 5  24440995.344       -2967.589
   8546238.412 7    737474.184 5  22606286.462        2464.803
  15498830.867 7 -12695624.219 8  21890019.994         505.854
 93  5  2  0 35 30.0020000  0  4 24 20 13 12                         0.002709350
  16247998.105 8 -15969742.293 9  21252171.409        -391.881
  -4969667.963 6  -6035232.170 5  24424058.912       -2965.697
   8620227.766 7    795128.205 5  22620366.118        2467.844
  15514314.877 7 -12683558.818 8  21892966.547         526.210
 93  5  2  0 36  0.0020000  0  4 24 20 13 12                         0.002715010
  16236503.041 8 -15978699.475 9  21249983.612        -374.488
  -5058613.105 6  -6104539.999 5  24407132.614       -2964.002
   8694304.363 7    852850.204 5  22634462.427        2470.603
  15530406.812 7 -12671019.648 8  21896028.502         546.365
 93  5  2  0 36 30.0020000  0  4 24 20 13 12                         0.002720700
  16225530.910 8 -15987249.164 9  21247895.727        -356.812
  -5147503.299 6  -6173805.047 5  24390217.362       -2961.959
   8768464.585 7    910637.370 5  22648574.408        2473.466
  15547104.909 7 -12658008.151 8  21899206.047         566.714
 93  5  2  0 37  0.0020000  0  4 24 20 13 12                         0.002726410
  16215087.307 8 -15995387.031 9  21245908.194        -339.509
  -5236332.305 6  -6243022.340 5  24373313.428       -2959.996
   8842711.803 7    968492.299 5  22662702.787        2476.254
  15564413.944 7 -12644520.633 8  21902499.696         586.988
 93  5  2  0 37 30.0020000  0  4 24 20 13 12                         0.002732130
  16205162.031 8 -16003120.995 9  21244019.620        -322.286
  -5325103.265 6  -6312194.479 5  24356420.485       -2958.184
   8917039.160 7   1026409.697 5  22676846.985        2478.771
  15582328.668 7 -12630561.104 8  21905908.785         607.038
 93  5  2  0 38  0.0020000  0  4 24 20 13 12                         0.002737850
  16195753.551 8 -16010452.255 9  21242229.261        -305.142
  -5413811.037 6  -6381317.307 5  24339540.351       -2955.743
   8991448.840 7   1084391.276 5  22691006.941        2481.726
  15600852.513 7 -12616126.959 8  21909433.884         627.609
 93  5  2  0 38 30.0020000  0  4 24 20 13 12                         0.002743530
  16186847.932 8 -16017391.689 9  21240534.394        -288.204
  -5502457.757 6  -6450392.644 5  24322671.035       -2953.694
   9065934.734 7   1142432.175 5  22705181.580        2484.275
  15619981.229 7 -12601221.485 8  21913073.904         647.727
 93  5  2  0 39  0.0020000  0  4 24 20 13 12                         0.002749190
  16178451.155 8 -16023934.615 9  21238936.830        -271.461
  -5591039.419 6  -6519417.238 5  24305814.540       -2951.662
   9140497.932 7   1200533.331 5  22719370.388        2486.659
  15639716.879 7 -12585843.056 8  21916829.395         667.799
 93  5  2  0 39 30.0020000  0  4 24 20 13 12                         0.002754860
  16170574.637 8 -16030072.157 9  21237438.078        -253.812
  -5679550.741 6  -6588386.990 5  24288971.465       -2949.184
   9215140.264 7   1258696.184 5  22733574.355        2489.357
  15660063.089 7 -12569988.891 8  21920701.164         688.198
 93  5  2  0 40  0.0020000  0  4 24 20 13 12                         0.002760530
  16163217.228 8 -16035805.188 9  21236037.966        -236.731
  -5767993.695 6  -6657303.563 5  24272140.709       -2946.935
   9289856.651 7   1316916.722 5  22747792.201        2491.725
  15681016.055 7 -12553661.907 8  21924688.524         708.420
 93  5  2  0 40 30.0020000  0  4 24 20 13 12                         0.002766230
  16156376.447 8 -16041135.644 9  21234736.369        -219.174
  -5856364.650 6  -6726163.973 5  24255324.278       -2944.382
   9364646.841 7   1375194.750 5  22762024.338        2494.360
  15702576.830 7 -12536861.318 8  21928791.394         728.816
 93  5  2  0 41  0.0020000  0  4 24 20 13 12                         0.002771930
  16150055.385 8 -16046061.146 9  21233533.301        -202.221
  -5944659.542 6  -6794965.158 5  24238522.433       -2941.857
   9439511.915 7   1433531.146 5  22776270.833        2496.684
  15724747.497 7 -12519585.494 8  21933010.413         749.083
 93  5  2  0 41 30.0020000  0  4 24 20 13 12                         0.002777620
  16144241.583 8 -16050591.356 9  21232426.906        -185.513
  -6032878.506 6  -6863707.167 5  24221735.118       -2939.439
   9514447.646 7   1491922.630 5  22790530.842        2498.955
  15747525.656 7 -12501836.293 8  21937345.000         769.249
 93  5  2  0 42  0.0020000  0  4 24 20 13 12                         0.002783190
  16138921.052 8 -16054737.206 9  21231414.597        -169.153
  -6121020.325 6  -6932389.029 5  24204962.880       -2936.673
   9589453.042 7   1550368.340 5  22804803.743        2501.387
  15770910.559 7 -12483614.303 8  21941794.980         789.569
 93  5  2  0 42 30.0020000  0  4 24 20 13 12                         0.002788570
  16134094.886 8 -16058497.850 9  21230496.384        -152.613
  -6209080.337 6  -7001007.186 5  24188205.173       -2933.970
   9664529.041 7   1608869.083 5  22819090.343        2503.631
  15794904.511 7 -12464917.727 8  21946361.191         809.788
 93  5  2  0 43  0.0020000  0  4 24 20 13 12                         0.002793700
  16129760.629 8 -16061875.180 9  21229671.624        -136.289
  -6297057.364 6  -7069560.640 5  24171462.939       -2931.115
   9739673.280 7   1667423.029 5  22833389.715        2505.963
  15819506.730 7 -12445747.173 8  21951042.769         830.118
 93  5  2  0 43 30.0020000  0  4 24 20 13 12                         0.002798560
  16125921.819 8 -16064866.441 9  21228941.030        -119.343
  -6384950.977 6  -7138049.115 5  24154737.574       -2928.266
   9814882.861 7   1726027.865 5  22847701.616        2508.170
  15844715.172 7 -12426104.259 8  21955839.517         850.349
 93  5  2  0 44  0.0020000  0  4 24 20 13 12                         0.002803250
  16122600.117 8 -16067454.773 9  21228309.097        -102.066
  -6472758.723 6  -7206470.685 5  24138029.264       -2925.511
   9890156.742 7   1784682.794 5  22862025.579        2510.148
  15870530.152 7 -12405988.711 8  21960751.848         870.446
 93  5  2  0 44 30.0020000  0  5 16 24 20 13 12                      0.002809730
  -2155548.66915  -1626048.29415  25549451.276       -2886.182
  16119804.261 8 -16069633.349 9  21227777.096         -84.249
  -6560480.564 6  -7274825.294 5  24121336.197       -2922.616
   9965491.854 7   1843385.459 5  22876361.413        2512.196
  15896949.398 7 -12385402.281 8  21965779.247         890.580
 93  5  2  0 45  0.0020000  0  5 16 24 20 13 12                      0.002815240
  -2242169.438 5  -1693544.649 5  25532967.872       -2888.711
  16117547.299 8 -16071392.011 9  21227347.533         -66.248
  -6648115.940 6  -7343112.554 5  24104659.545       -2919.796
  10040885.098 7   1902133.449 5  22890708.523        2513.994
  15923970.605 7 -12364346.833 8  21970921.156         910.584
 93  5  2  0 45 30.0020000  0  5 16 24 20 13 12                      0.002820730
  -2328864.572 5  -1761099.007 5  25516467.733       -2890.918
  16115836.056 8 -16072725.432 9  21227022.197         -47.928
  -6735663.054 6  -7411331.006 5  24087999.538       -2916.679
  10116334.908 7   1960925.465 5  22905066.452        2515.947
  15951593.452 7 -12342822.552 8  21976177.719         930.677
 93  5  2  0 46  0.0020000  0  5 16 24 20 13 12                      0.002826210
  -2415622.768 5  -1828702.553 5  25499954.373       -2892.940
  16114664.255 8 -16073638.512 9  21226798.944         -30.299
  -6823119.783 6  -7479479.054 5  24071357.397       -2913.636
  10191840.242 7   2019760.735 5  22919434.754        2517.786
  15979817.646 7 -12320829.699 8  21981548.729         950.776
 93  5  2  0 46 30.0020000  0  5 16 24 20 13 12                      0.002831690
  -2502448.971 5  -1896359.081 5  25483431.061       -2895.725
  16114021.636 8 -16074139.252 9  21226676.589         -12.682
  -6910479.718 6  -7547551.667 5  24054733.373       -2910.397
  10267404.116 7   2078641.684 5  22933814.071        2519.678
  16008646.913 7 -12298365.364 8  21987034.684         970.899
 93  5  2  0 47  0.0020000  0  5 16 24 20 13 12                      0.002837170
  -2589365.050 5  -1964085.681 5  25466893.774       -2898.699
  16113894.866 8 -16074238.011 9  21226652.383           4.085
  -6997742.071 6  -7615548.234 5  24038127.954       -2907.045
  10343024.090 7   2137566.309 5  22948203.860        2521.609
  16038079.393 7 -12275430.974 8  21992635.886         991.084
 93  5  2  0 47 30.0020000  0  5 16 24 20 13 12                      0.002842620
  -2676366.388 5  -2031878.708 5  25450337.045       -2901.453
  16114266.933 8 -16073948.080 9  21226723.105          20.624
  -7084903.213 6  -7683465.957 5  24021541.123       -2903.780
  10418700.242 7   2196534.677 5  22962604.418        2523.329
  16068116.258 7 -12252025.648 8  21998351.650        1011.085
 93  5  2  0 48  0.0020000  0  5 16 24 20 13 12                      0.002848070
  -2763450.981 5  -2099736.581 5  25433765.188       -2904.291
  16115134.686 8 -16073271.903 9  21226888.322          37.203
  -7171965.066 6  -7751306.312 5  24004974.144       -2900.305
  10494427.968 7   2255543.297 5  22977014.923        2525.155
  16098753.027 7 -12228152.856 8  22004181.382        1031.227
 93  5  2  0 48 30.0020000  0  5 16 24 20 13 12                      0.002853510
  -2850624.996 5  -2167664.121 5  25417178.923       -2907.243
  16116496.932 8 -16072210.396 9  21227147.511          53.667
  -7258924.413 6  -7819066.777 5  23988426.289       -2896.944
  10570206.653 7   2314591.600 5  22991435.522        2526.797
  16129990.198 7 -12203812.236 8  22010125.508        1051.137
 93  5  2  0 49  0.0020000  0  5 16 24 20 13 12                      0.002858940
  -2937870.956 5  -2235647.740 5  25400577.442       -2909.378
  16118351.732 8 -16070765.082 9  21227500.406          69.900
  -7345775.172 6  -7886742.635 5  23971898.762       -2893.313
  10646038.987 7   2373681.693 5  23005865.949        2528.465
  16161831.363 7 -12179000.961 8  22016184.753        1071.172
 93  5  2  0 49 30.0020000  0  5 16 24 20 13 12                      0.002864360
  -3025178.672 5  -2303679.482 5  25383962.451       -2911.238
  16120699.241 8 -16068935.860 9  21227947.248          86.601
  -7432520.307 6  -7954336.187 5  23955391.524       -2889.723
  10721918.518 7   2432808.553 5  23020305.152        2530.112
  16194270.800 7 -12153723.497 8  22022357.599        1091.191
 93  5  2  0 50  0.0020000  0  5 16 24 20 13 12                      0.002869780
  -3112549.161 5  -2371760.112 5  25367336.133       -2913.704
  16123548.623 8 -16066715.547 9  21228489.553         103.246
  -7519157.116 6  -8021845.329 5  23938905.391       -2886.133
  10797845.351 7   2491972.328 5  23034753.611        2531.589
  16227308.438 7 -12127979.910 8  22028644.477        1111.051
 93  5  2  0 50 30.0020000  0  5 16 24 20 13 12                      0.002875180
  -3199997.655 5  -2439901.636 5  25350694.983       -2916.223
  16126895.223 8 -16064107.802 9  21229126.502         119.900
  -7605686.192 6  -8089270.541 5  23922439.142       -2882.472
  10873814.977 7   2551169.418 5  23049209.912        2533.047
  16260940.749 7 -12101772.927 8  22035044.655        1130.859
 93  5  2  0 51  0.0020000  0  5 16 24 20 13 12                      0.002880550
  -3287521.030 5  -2508101.418 5  25334037.358       -2918.713
  16130750.980 8 -16061103.300 9  21229860.242         137.115
  -7692101.991 6  -8156607.485 5  23905994.614       -2878.589
  10949829.634 7   2610401.561 5  23063674.770        2534.613
  16295170.487 7 -12075100.432 8  22041558.316        1150.843
 93  5  2  0 51 30.0020000  0  5 16 24 20 13 12                      0.002885910
  -3375127.763 5  -2576366.192 5  25317367.552       -2921.746
  16135125.278 8 -16057694.762 9  21230692.328         154.514
  -7778401.691 6  -8223853.945 5  23889572.489       -2874.746
  11025889.148 7   2669668.697 5  23078148.749        2535.947
  16329997.643 7 -12047962.412 8  22048186.078        1170.670
 93  5  2  0 52  0.0020000  0  5 16 24 20 13 12                      0.002891240
  -3462829.865 5  -2644705.296 5  25300679.533       -2924.909
  16140024.113 8 -16053877.475 9  21231624.621         172.009
  -7864584.654 6  -8291009.457 5  23873172.696       -2870.720
  11101990.390 7   2728968.367 5  23092630.265        2537.483
  16365420.065 7 -12020360.549 8  22054926.831        1190.640
 93  5  2  0 52 30.0020000  0  5 16 24 20 13 12                      0.002896540
  -3550617.367 5  -2713110.934 5  25283973.199       -2927.371
  16145443.707 8 -16049654.401 9  21232655.969         189.295
  -7950643.900 6  -8358068.573 5  23856796.433       -2866.567
  11178136.660 7   2788303.050 5  23107120.722        2538.952
  16401441.644 7 -11992291.801 8  22061781.406        1210.579
 93  5  2  0 53  0.0020000  0  5 16 24 20 13 12                      0.002901810
  -3638471.041 5  -2781568.129 5  25267255.618       -2929.333
  16151379.431 8 -16045029.154 9  21233785.396         206.504
  -8036578.177 6  -8425030.300 5  23840443.822       -2862.299
  11254326.535 7   2847671.759 5  23121619.215        2540.425
  16438060.914 7 -11963757.338 8  22068749.891        1230.595
 93  5  2  0 53 30.0020000  0  5 16 24 20 13 12                      0.002907080
  -3726371.416 5  -2850061.677 5  25250530.322       -2930.386
  16157827.335 8 -16040004.804 9  21235012.249         223.476
  -8122383.661 7  -8491891.683 5  23824115.588       -2858.001
  11330560.289 7   2907074.679 5  23136125.891        2541.884
  16475278.286 7 -11934756.817 8  22075832.470        1250.458
 93  5  2  0 54  0.0020000  0  5 16 24 20 13 12                      0.002912340
  -3814290.487 5  -2918569.849 5  25233798.636       -2930.637
  16164773.247 8 -16034592.392 9  21236333.934         239.719
  -8208064.900 6  -8558656.265 5  23807810.836       -2853.888
  11406830.203 7   2966505.760 5  23150639.664        2542.999
  16513086.343 7 -11905296.006 8  22083026.727        1270.056
 93  5  2  0 54 30.0020000  0  5 16 24 20 13 12                      0.002917600
  -3902204.445 5  -2987074.001 5  25217066.079       -2930.209
  16172207.558 8 -16028799.421 9  21237748.674         256.018
  -8293619.003 6  -8625321.756 5  23791530.095       -2849.615
  11483135.756 7   3025964.534 5  23165160.476        2544.146
  16551484.838 7 -11875375.134 8  22090333.661        1289.679
 93  5  2  0 55  0.0020000  0  5 16 24 20 13 12                      0.002922890
  -3990104.301 5  -3055567.226 5  25200339.067       -2930.025
  16180131.463 8 -16022624.958 9  21239256.459         272.092
  -8379043.279 6  -8691886.085 5  23775274.250       -2845.444
  11559476.377 7   3085450.736 5  23179687.227        2545.095
  16590473.627 7 -11844994.292 8  22097752.903        1309.169
 93  5  2  0 55 30.0020000  0  5 16 24 20 13 12                      0.002928200
  -4077993.470 5  -3124051.987 5  25183616.472       -2929.526
  16188538.226 8 -16016074.220 9  21240856.241         288.271
  -8464337.739 6  -8758349.241 5  23759043.298       -2840.912
  11635849.117 7   3144961.951 5  23194220.637        2546.358
  16630049.493 7 -11814155.973 8  22105284.289        1328.969
 93  5  2  0 56  0.0020000  0  5 16 24 20 13 12                      0.002933520
  -4165886.634 5  -3192539.902 5  25166892.926       -2930.349
  16197428.081 8 -16009147.046 9  21242548.000         304.350
  -8549497.878 6  -8824707.748 5  23742837.687       -2836.464
  11712254.815 7   3204498.808 5  23208760.239        2547.342
  16670213.811 7 -11782859.139 8  22112927.178        1348.445
 93  5  2  0 56 30.0020000  0  5 16 24 20 13 12                      0.002938810
  -4253822.957 5  -3261061.539 5  25150158.189       -2931.983
  16206805.958 8 -16001839.609 9  21244332.465         320.868
  -8634522.471 6  -8890960.648 5  23726658.395       -2831.807
  11788691.235 7   3264059.609 5  23223305.868        2548.461
  16710964.546 7 -11751105.333 8  22120681.689        1368.064
 93  5  2  0 57  0.0020000  0  5 16 24 20 13 12                      0.002944080
  -4341805.334 5  -3329619.004 5  25133411.932       -2933.307
  16216675.620 8 -15994148.963 9  21246210.484         337.358
  -8719407.011 6  -8957104.401 5  23710505.580       -2826.919
  11865160.066 7   3323645.726 5  23237857.188        2549.703
  16752302.810 7 -11718893.735 8  22128548.334        1387.773
 93  5  2  0 57 30.0020000  0  5 16 24 20 13 12                      0.002949340
  -4429827.646 5  -3398207.632 5  25116661.372       -2934.942
  16227044.504 8 -15986069.317 9  21248183.390         353.869
  -8804145.298 6  -9023134.199 5  23694380.072       -2822.350
  11941664.080 7   3383259.212 5  23252415.239        2550.536
  16794231.298 7 -11686222.204 8  22136527.082        1407.152
 93  5  2  0 58  0.0020000  0  5 16 24 20 13 12                      0.002954590
  -4517891.963 5  -3466828.956 5  25099906.678       -2936.048
  16237920.125 8 -15977594.796 9  21250253.095         371.189
  -8888742.362 6  -9089053.929 5  23678281.596       -2817.416
  12018194.803 7   3442893.454 5  23266978.665        2551.542
  16836741.815 7 -11653097.157 8  22144616.471        1426.702
 93  5  2  0 58 30.0020000  0  5 16 24 20 13 12                      0.002959810
  -4605976.850 5  -3535466.363 5  25083143.864       -2936.244
  16249309.749 8 -15968719.764 9  21252420.245         388.000
  -8973193.764 6  -9154860.162 5  23662211.169       -2812.757
  12094753.182 7   3502549.338 5  23281547.240        2552.225
  16879835.641 7 -11619517.575 8  22152816.904        1445.897
 93  5  2  0 59  0.0020000  0  5 16 24 20 13 12                      0.002965000
  -4694064.549 5  -3604105.970 5  25066377.303       -2936.303
  16261199.868 8 -15959454.730 9  21254682.881         404.641
  -9057503.878 6  -9220556.315 5  23646167.528       -2807.946
  12171331.640 7   3562220.859 5  23296119.991        2552.922
  16923504.970 7 -11585489.546 8  22161127.032        1465.110
 93  5  2  0 59 30.0020000  0  5 16 24 20 13 12                      0.002970200
  -4782157.263 5  -3672749.436 5  25049614.690       -2936.589
  16273592.010 8 -15949798.520 9  21257041.116         421.420
  -9141670.597 6  -9286140.747 5  23630150.854       -2803.240
  12247929.124 7   3621907.145 5  23310696.252        2553.501
  16967748.758 7 -11551013.901 8  22169546.612        1484.185
 93  5  2  1  0  0.0020000  0  5 16 24 20 13 12                      0.002975380
  -4870254.573 6  -3741396.501 5  25032853.169       -2936.670
  16286484.567 8 -15939752.350 9  21259494.529         437.924
  -9225690.423 6  -9351610.692 5  23614162.025       -2798.128
  12324546.395 7   3681608.871 5  23325275.957        2554.302
  17012567.081 7 -11516090.556 7  22178075.228        1503.498
 93  5  2  1  0 30.0020000  0  5 16 24 20 13 12                      0.002980560
  -4958353.900 5  -3810045.124 5  25016088.735       -2936.597
  16299862.299 8 -15929328.148 9  21262040.145         453.839
  -9309552.929 6  -9416958.041 5  23598203.754       -2792.771
  12401190.537 7   3741331.598 5  23339860.580        2555.287
  17057966.869 7 -11480714.117 8  22186714.337        1522.911
 93  5  2  1  1  0.0020000  0  5 16 24 20 13 12                      0.002985720
  -5046458.183 5  -3878697.677 5  24999320.664       -2937.051
  16313712.677 8 -15918535.644 9  21264676.031         469.541
  -9393255.922 6  -9482181.114 5  23582275.662       -2787.520
  12477860.352 7   3801074.265 5  23354450.300        2556.008
  17103946.481 7 -11444885.879 7  22195463.961        1542.110
 93  5  2  1  1 30.0020000  0  5 16 24 20 13 12                      0.002990880
  -5134573.078 6  -3947358.459 5  24982553.584       -2937.452
  16328036.363 8 -15907374.319 9  21267401.876         485.260
  -9476801.655 7  -9547281.643 5  23566377.655       -2782.289
  12554550.071 7   3860832.422 5  23369043.661        2556.547
  17150500.168 7 -11408610.316 7  22204322.827        1561.197
 93  5  2  1  2  0.0020000  0  5 16 24 20 13 12                      0.002996030
  -5222699.280 5  -4016028.041 5  24965785.837       -2937.840
  16342824.543 8 -15895851.071 9  21270216.075         500.595
  -9560190.732 7  -9612260.105 5  23550509.243       -2777.075
  12631255.702 7   3920603.060 5  23383640.403        2557.073
  17197623.793 7 -11371890.617 7  22213290.008        1580.106
 93  5  2  1  2 30.0030000  0  5 16 24 20 13 12                      0.003001160
  -5310833.279 5  -4084703.772 5  24949012.120       -2937.755
  16358076.898 8 -15883966.110 9  21273118.508         516.100
  -9643423.560 7  -9677116.813 5  23534670.577       -2771.766
  12707978.679 7   3980387.162 5  23398240.435        2557.463
  17245317.564 7 -11334726.685 7  22222365.905        1598.995
 93  5  2  1  3  0.0030000  0  5 16 24 20 13 12                      0.003006280
  -5398960.639 5  -4153374.313 5  24932239.938       -2937.215
  16373804.482 8 -15871710.851 9  21276111.275         532.580
  -9726494.171 7  -9741847.126 5  23518862.631       -2766.141
  12784711.391 7   4040178.823 5  23412842.057        2558.102
  17293575.306 7 -11297123.279 7  22231549.246        1618.059
 93  5  2  1  3 30.0030000  0  5 16 24 20 13 12                      0.003011390
  -5487075.019 5  -4222034.709 5  24915474.034       -2937.119
  16390024.870 8 -15859071.579 9  21279197.758         548.695
  -9809401.227 7  -9806450.000 5  23503085.962       -2760.932
  12861457.442 7   4099980.899 5  23427446.187        2558.320
  17342398.966 7 -11259078.892 7  22240840.178        1636.645
 93  5  2  1  4  0.0030000  0  5 16 24 20 13 12                      0.003016480
  -5575179.648 5  -4290687.507 5  24898708.504       -2936.584
  16406727.199 8 -15846056.781 9  21282376.167         564.822
  -9892146.660 7  -9870926.915 5  23487339.882       -2755.488
  12938211.690 7   4159789.422 5  23442052.026        2558.549
  17391782.613 7 -11220598.148 7  22250237.600        1655.314
 93  5  2  1  4 30.0030000  0  5 16 24 20 13 12                      0.003021550
  -5663263.980 5  -4359324.526 5  24881945.759       -2935.687
  16423916.310 8 -15832662.667 9  21285647.553         581.059
  -9974727.227 7  -9935275.398 6  23471625.272       -2749.928
  13014973.607 7   4219603.846 5  23456659.193        2558.832
  17441726.128 7 -11181681.159 7  22259741.334        1673.981
 93  5  2  1  5  0.0030000  0  5 16 24 20 13 12                      0.003026610
  -5751323.902 5  -4427942.514 5  24865188.452       -2934.951
  16441593.295 8 -15818888.398 9  21289011.462         597.307
 -10057140.907 7  -9999493.808 6  23455942.689       -2744.280
  13091742.689 7   4279423.860 5  23471267.890        2559.082
  17492227.757 7 -11142329.286 7  22269351.548        1692.583
 93  5  2  1  5 30.0030000  0  5 16 24 20 13 12                      0.003031660
  -5839356.866 6  -4496539.476 5  24848437.224       -2934.015
  16459748.910 8 -15804741.155 9  21292466.363         612.869
 -10139382.384 7 -10063578.038 6  23440292.541       -2738.455
  13168520.504 7   4339250.717 5  23485878.485        2559.406
  17543288.642 7 -11102541.611 7  22279068.183        1711.224
 93  5  2  1  6  0.0030000  0  5 16 24 20 13 12                      0.003036700
  -5927359.923 6  -4565113.114 5  24831692.040       -2932.747
  16478369.516 8 -15790231.600 9  21296009.869         628.518
 -10221447.657 7 -10127524.967 6  23424675.816       -2732.594
  13245307.877 7   4399084.997 5  23500491.278        2559.673
  17594909.157 7 -11062317.863 7  22288891.392        1729.814
 93  5  2  1  6 30.0030000  0  5 16 24 20 13 12                      0.003041740
  -6015319.469 5  -4633652.901 5  24814953.259       -2931.089
  16497457.706 8 -15775357.689 9  21299642.074         644.056
 -10303336.785 7 -10191334.634 6  23409092.852       -2726.655
  13322101.562 6   4458924.161 5  23515104.719        2559.921
  17647085.402 7 -11021661.090 7  22298820.218        1748.376
 93  5  2  1  7  0.0030000  0  5 16 24 20 13 12                      0.003046770
  -6103232.786 5  -4702156.634 5  24798222.231       -2929.900
  16517010.906 8 -15760121.417 9  21303362.920         659.510
 -10385046.956 7 -10255004.875 6  23393543.818       -2720.746
  13398901.262 6   4518768.056 5  23529718.893        2560.026
  17699816.672 7 -10980571.812 7  22308854.940        1766.795
 93  5  2  1  7 30.0030000  0  5 16 24 20 13 12                      0.003051790
  -6191106.595 6  -4770629.613 5  24781499.753       -2928.582
  16537031.687 8 -15744520.821 9  21307172.722         675.071
 -10466576.072 7 -10318534.044 6  23378029.573       -2714.727
  13475706.194 6   4578616.057 5  23544334.286        2560.100
  17753100.898 7 -10939051.680 7  22318994.342        1785.080
 93  5  2  1  8  0.0030000  0  5 16 24 20 13 12                      0.003056800
  -6278947.062 6  -4839076.621 5  24764784.965       -2927.375
  16557521.795 8 -15728554.503 9  21311071.792         690.979
 -10547928.309 7 -10381925.366 6  23362548.613       -2708.663
  13552508.218 6   4638461.687 5  23558949.100        2560.101
  17806929.799 7 -10897107.125 7  22329237.359        1803.340
 93  5  2  1  8 30.0030000  0  5 16 24 20 13 12                      0.003061790
  -6366755.564 5  -4907498.696 5  24748074.986       -2926.726
  16578487.517 8 -15712217.569 9  21315061.251         706.737
 -10629096.856 7 -10445173.539 6  23347102.668       -2702.481
  13629311.817 6   4698308.622 5  23573564.382        2560.143
  17861306.547 7 -10854735.652 7  22339585.127        1821.578
 93  5  2  1  9  0.0030000  0  5 16 24 20 13 12                      0.003066740
  -6454558.447 6  -4975916.444 5  24731364.960       -2926.901
  16599928.125 8 -15695510.611 9  21319141.437         722.619
 -10710077.012 7 -10508274.919 6  23331692.644       -2696.143
  13706118.078 6   4758157.649 5  23588180.463        2560.264
  17916231.709 7 -10811936.869 7  22350037.241        1839.854
 93  5  2  1  9 30.0030000  0  5 16 24 20 13 12                      0.003071650
  -6542358.441 6  -5044331.885 5  24714658.507       -2926.450
  16621846.861 8 -15678431.072 9  21323312.478         738.511
 -10790865.149 7 -10571226.686 6  23316319.129       -2689.740
  13782927.351 6   4818008.952 5  23602797.045        2560.327
  17971704.729 7 -10768711.167 7  22360593.432        1858.079
 93  5  2  1 10  0.0030000  0  5 16 24 20 13 12                      0.003076530
  -6630150.286 6  -5112740.962 5  24697953.152       -2926.181
  16644235.624 8 -15660985.284 9  21327572.927         754.041
 -10871462.044 7 -10634029.425 6  23300982.306       -2683.309
  13859735.859 6   4877859.726 5  23617413.086        2560.310
  18027720.795 7 -10725062.309 7  22371253.263        1876.159
 93  5  2  1 10 30.0030000  0  5 16 24 20 13 12                      0.003081370
  -6717933.078 6  -5181142.980 5  24681246.621       -2925.754
  16667085.066 8 -15643180.520 9  21331921.288         769.337
 -10951864.786 7 -10696680.857 6  23285682.070       -2676.716
  13936543.409 6   4937709.739 5  23632029.286        2560.313
  18084278.922 7 -10680991.082 7  22382015.731        1894.290
 93  5  2  1 11  0.0030000  0  5 16 24 20 13 12                      0.003086190
  -6805686.654 6  -5249522.296 5  24664548.455       -2924.267
  16690387.703 8 -15625022.632 9  21336355.399         784.111
 -11032068.102 7 -10759176.907 6  23270419.277       -2670.212
  14013351.770 6   4997560.350 5  23646645.158        2560.188
  18141379.744 6 -10636496.973 7  22392881.372        1912.196
 93  5  2  1 11 30.0030000  0  5 16 24 20 13 12                      0.003091010
  -6893374.803 6  -5317850.568 5  24647863.830       -2921.567
  16714131.940 8 -15606520.629 9  21340873.560         798.729
 -11112072.984 7 -10821518.334 6  23255194.694       -2663.397
  14090157.073 6   5057408.590 5  23661260.961        2560.220
  18199018.534 6 -10591583.668 7  22403849.977        1930.229
 93  5  2  1 12  0.0030000  0  5 16 24 20 13 12                      0.003095840
  -6980988.617 6  -5386120.958 5  24631191.799       -2919.463
  16738300.862 8 -15587687.701 9  21345472.616         812.261
 -11191878.055 7 -10883704.060 6  23240008.678       -2657.083
  14166957.305 6   5117252.895 5  23675875.504        2559.642
  18257192.324 7 -10546253.484 7  22414920.103        1947.634
 93  5  2  1 12 30.0030000  0  5 16 24 20 13 12                      0.003100680
  -7068525.098 6  -5454331.134 5  24614533.565       -2916.448
  16762886.232 8 -15568530.267 9  21350150.957         826.716
 -11271483.862 7 -10945734.509 6  23224860.035       -2650.109
  14243748.912 6   5177090.456 5  23690488.256        2559.624
  18315896.429 7 -10500510.048 7  22426090.961        1965.603
 93  5  2  1 13  0.0030000  0  5 16 24 20 13 12                      0.003105520
  -7155974.152 6  -5522473.128 5  24597890.249       -2913.406
  16787906.148 8 -15549034.232 9  21354912.311         841.455
 -11350888.260 7 -11007608.016 6  23209749.815       -2643.378
  14320530.863 6   5236920.502 5  23705099.522        2559.297
  18375128.549 7 -10454355.199 7  22437362.748        1983.157
 93  5  2  1 13 30.0030000  0  5 16 24 20 13 12                      0.003110360
  -7243343.187 6  -5590552.781 5  24581263.707       -2911.065
  16813375.968 8 -15529187.628 9  21359758.646         856.678
 -11430087.422 7 -11069321.602 6  23194678.389       -2636.357
  14397304.349 6   5296743.989 5  23719709.437        2559.069
  18434888.639 7 -10407788.938 7  22448734.564        2000.810
 93  5  2  1 14  0.0030000  0  5 16 24 20 13 12                      0.003115180
  -7330646.120 6  -5658580.905 5  24564651.476       -2909.230
  16839301.308 8 -15508986.059 9  21364692.171         871.637
 -11509078.139 7 -11130872.770 6  23179646.957       -2629.683
  14474068.858 6   5356560.461 5  23734317.004        2558.480
  18495175.521 7 -10360812.191 7  22460206.841        2018.008
 93  5  2  1 14 30.0030000  0  5 16 24 20 13 12                      0.003119970
  -7417887.571 6  -5726561.114 5  24548049.771       -2906.759
  16865681.849 8 -15488429.805 9  21369712.285         887.129
 -11587863.386 7 -11192263.841 6  23164654.672       -2622.591
  14550818.394 6   5416365.178 5  23748922.005        2558.242
  18555981.862 7 -10313430.667 7  22471777.921        2035.533
 93  5  2  1 15  0.0030000  0  5 16 24 20 13 12                      0.003124730
  -7505050.791 6  -5794480.363 5  24531462.891       -2904.138
  16892517.832 8 -15467518.643 9  21374819.160         901.880
 -11666438.788 7 -11253491.403 6  23149702.414       -2615.717
  14627554.008 6   5476159.174 5  23763523.865        2557.608
  18617307.735 7 -10265644.316 7  22483448.083        2052.704
 93  5  2  1 15 30.0030000  0  5 16 24 20 13 12                      0.003129500
  -7592134.997 6  -5862338.067 5  24514892.675       -2901.367
  16919795.039 8 -15446263.687 9  21380009.946         916.624
 -11744800.803 7 -11314552.679 6  23134791.039       -2608.433
  14704276.041 6   5535942.569 5  23778123.768        2557.290
  18679152.218 6 -10217453.871 7  22495216.605        2070.081
 93  5  2  1 16  0.0030000  0  5 16 24 20 13 12                      0.003134240
  -7679132.853 6  -5930128.527 5  24498336.963       -2898.487
  16947517.341 8 -15424661.896 9  21385285.395         931.479
 -11822945.708 7 -11375444.757 6  23119920.552       -2601.174
  14780985.302 6   5595715.906 5  23792721.313        2556.769
  18741514.540 6 -10168859.884 7  22507083.780        2087.252
 93  5  2  1 16 30.0030000  0  5 16 24 20 13 12                      0.003138960
  -7766039.361 6  -5997847.775 5  24481799.107       -2895.298
  16975688.229 8 -15402710.563 9  21390646.424         946.616
 -11900869.682 7 -11436164.716 6  23105092.196       -2593.757
  14857682.537 6   5655479.982 5  23807316.257        2556.309
  18804393.985 7 -10119862.957 7  22519049.295        2104.474
 93  5  2  1 17  0.0030000  0  5 16 24 20 13 12                      0.003143670
  -7852853.850 6  -6065495.308 5  24465280.837       -2892.666
  17004319.157 8 -15380400.745 9  21396094.921         961.959
 -11978569.205 7 -11496709.790 6  23090306.115       -2586.248
  14934368.352 6   5715235.160 5  23821909.097        2555.993
  18867789.965 6 -10070463.534 7  22531113.274        2121.629
 93  5  2  1 17 30.0030000  0  5 16 24 20 13 12                      0.003148340
  -7939599.906 6  -6133089.516 5  24448772.959       -2890.136
  17033403.808 8 -15357737.381 9  21401629.740         977.102
 -12056042.435 7 -11557078.488 6  23075563.114       -2578.421
  15011041.311 6   5774980.265 5  23836499.297        2555.728
  18931699.690 6 -10020663.788 7  22543275.186        2138.922
 93  5  2  1 18  0.0030000  0  5 16 24 20 13 12                      0.003152980
  -8026269.111 6  -6200623.838 5  24432280.034       -2887.925
  17062935.111 8 -15334725.981 9  21407249.161         991.373
 -12133283.196 7 -11617266.078 6  23060864.746       -2570.990
  15087704.098 6   5834717.427 5  23851087.532        2555.079
  18996124.968 6  -9970462.315 7  22555534.768        2155.809
 93  5  2  1 18 30.0030000  0  5 16 24 20 13 12                      0.003157610
  -8112861.606 6  -6268098.383 5  24415801.276       -2885.009
  17092890.598 8 -15311384.042 9  21412949.593        1005.593
 -12210292.019 7 -11677272.938 6  23046210.821       -2563.074
  15164353.597 6   5894444.315 5  23865673.540        2554.755
  19061060.547 6  -9919863.188 7  22567891.672        2172.903
 93  5  2  1 19  0.0030000  0  5 16 24 20 13 12                      0.003162220
  -8199367.499 6  -6335505.461 5  24399338.312       -2882.003
  17123265.672 8 -15287715.159 9  21418729.542        1019.386
 -12287064.218 7 -11737095.401 6  23031601.724       -2555.066
  15240991.136 6   5954161.841 5  23880257.285        2554.376
  19126506.479 6  -9868866.384 7  22580345.623        2189.878
 93  5  2  1 19 30.0030000  0  5 16 24 20 13 12                      0.003166840
  -8285778.289 6  -6402838.485 5  24382894.213       -2878.814
  17154056.356 8 -15263722.407 9  21424588.596        1033.176
 -12363597.977 7 -11796732.092 6  23017037.616       -2547.400
  15317615.732 6   6013869.225 5  23894838.708        2553.641
  19192460.082 6  -9817474.046 7  22592896.394        2206.482
 93  5  2  1 20  0.0030000  0  5 16 24 20 13 12                      0.003171430
  -8372086.139 6  -6470091.257 5  24366470.959       -2875.149
  17185272.397 8 -15239398.237 9  21430528.814        1047.825
 -12439899.010 7 -11856187.413 6  23002517.996       -2539.343
  15394218.598 6   6073559.747 5  23909415.720        2553.155
  19258911.124 6  -9765694.032 7  22605541.179        2223.343
 93  5  2  1 20 30.0030000  0  5 16 24 20 13 12                      0.003176010
  -8458285.611 6  -6537259.565 5  24350069.118       -2871.457
  17216927.282 8 -15214732.079 9  21436552.514        1062.501
 -12515960.606 7 -11915456.164 6  22988043.728       -2531.543
  15470803.369 6   6133236.209 5  23923989.006        2552.380
  19325861.641 6  -9713524.852 7  22618281.741        2239.692
 93  5  2  1 21  0.0030000  0  5 16 24 20 13 12                      0.003180560
  -8544365.216 6  -6604334.456 5  24333688.554       -2867.347
  17249028.534 8 -15189718.128 9  21442661.124        1077.404
 -12591782.468 7 -11974538.109 6  22973615.277       -2523.359
  15547367.583 6   6192896.524 5  23938558.597        2551.821
  19393307.335 6  -9660969.804 7  22631116.074        2256.348
 93  5  2  1 21 30.0030000  0  5 16 24 20 13 12                      0.003185090
  -8630325.943 6  -6671316.732 5  24317330.515       -2863.483
  17281570.898 8 -15164360.443 9  21448853.567        1091.819
 -12667362.497 7 -12033431.625 6  22959232.835       -2515.386
  15623909.532 6   6252539.579 5  23953124.157        2550.892
  19461245.720 6  -9608030.840 7  22644044.415        2272.571
 93  5  2  1 22  0.0030000  0  5 16 24 20 13 12                      0.003189590
  -8716170.212 6  -6738208.263 5  24300994.391       -2859.655
  17314532.780 8 -15138675.861 9  21455126.175        1105.382
 -12742703.493 7 -12092138.865 6  22944896.257       -2507.409
  15700423.640 6   6312160.965 5  23967684.768        2549.929
  19529669.177 6  -9554713.907 7  22657065.110        2288.634
 93  5  2  1 22 30.0030000  0  5 16 24 20 13 12                      0.003194090
  -8801890.381 6  -6805003.111 5  24284683.231       -2855.140
  17347894.472 8 -15112679.737 9  21461474.580        1118.606
 -12817800.714 7 -12150656.150 6  22930605.713       -2499.203
  15776911.623 6   6371761.874 5  23982239.844        2549.110
  19598577.859 7  -9501018.879 7  22670178.191        2304.886
 93  5  2  1 23  0.0030000  0  5 16 24 20 13 12                      0.003198590
  -8887489.558 6  -6871703.674 5  24268393.831       -2851.497
  17381647.077 8 -15086379.010 9  21467897.423        1131.545
 -12892653.371 7 -12208982.866 6  22916361.603       -2490.950
  15853371.254 6   6431340.782 5  23996790.020        2548.211
  19667967.744 6  -9446948.870 7  22683382.742        2320.915
 93  5  2  1 23 30.0030000  0  5 16 24 20 13 12                      0.003203080
  -8972980.984 6  -6938320.287 5  24252124.652       -2847.932
  17415791.891 8 -15059772.667 9  21474394.965        1144.752
 -12967254.649 7 -12267113.701 6  22902165.152       -2482.508
  15929806.040 6   6490900.351 5  24011335.468        2547.415
  19737840.563 6  -9392502.560 7  22696679.057        2336.999
 93  5  2  1 24  0.0030000  0  5 16 24 20 13 12                      0.003207560
  -9058359.151 6  -7004848.610 5  24235877.484       -2844.066
  17450335.933 8 -15032855.230 9  21480968.545        1158.202
 -13041600.946 7 -12325045.830 6  22888017.475       -2474.021
  16006216.748 6   6550441.056 5  24025876.263        2546.562
  19808195.438 6  -9337680.607 7  22710067.268        2352.988
 93  5  2  1 24 30.0030000  0  5 16 24 20 13 12                      0.003212020
  -9143615.418 6  -7071281.960 5  24219653.084       -2839.779
  17485288.795 8 -15005619.239 9  21487620.052        1172.152
 -13115689.222 7 -12382776.940 6  22873919.185       -2465.239
  16082604.166 6   6609963.711 5  24040412.019        2545.912
  19879030.777 6  -9282484.277 7  22723546.686        2369.079
 93  5  2  1 25  0.0030000  0  5 16 24 20 13 12                      0.003216450
  -9228749.202 6  -7137619.848 5  24203452.936       -2835.682
  17520669.446 8 -14978049.898 9  21494352.908        1186.402
 -13189516.830 7 -12440304.908 6  22859870.312       -2456.578
  16158967.091 6   6669467.308 5  24054942.796        2544.910
  19950344.383 6  -9226915.281 7  22737117.362        2384.819
 93  5  2  1 25 30.0030000  0  5 16 24 20 13 12                      0.003220850
  -9313749.971 6  -7203854.183 5  24187278.166       -2830.918
  17556481.368 8 -14950144.521 9  21501167.652        1201.071
 -13263082.615 7 -12497628.851 6  22845871.094       -2447.754
  16235304.192 6   6728950.730 5  24069469.282        2544.225
  20022132.365 6  -9170976.640 6  22750778.025        2400.775
 93  5  2  1 26  0.0030000  0  5 16 24 20 13 12                      0.003225220
  -9398601.424 6  -7269972.130 5  24171131.831       -2825.949
  17592735.396 8 -14921894.629 9  21508066.705        1215.559
 -13336379.292 7 -12554743.106 6  22831923.259       -2438.909
  16311619.717 6   6788417.265 5  24083991.751        2543.294
  20094397.366 6  -9114666.292 6  22764530.003        2416.446
 93  5  2  1 26 30.0030000  0  5 16 24 20 13 12                      0.003229510
  -9483311.995 6  -7335980.253 5  24155011.583       -2821.519
  17629415.607 8 -14893312.654 9  21515046.951        1229.731
 -13409412.911 7 -12611652.383 6  22818025.421       -2430.002
  16387904.745 6   6847860.172 5  24098508.407        2542.350
  20167128.320 6  -9057992.859 6  22778370.011        2432.010
 93  5  2  1 27  0.0030000  0  5 16 24 20 13 12                      0.003233800
  -9567890.114 6  -7401885.143 5  24138917.316       -2816.924
  17666518.025 8 -14864401.682 9  21522107.165        1243.624
 -13482177.604 7 -12668352.117 7  22804178.727       -2420.925
  16464161.796 6   6907281.255 5  24113019.347        2541.466
  20240326.250 6  -9000955.557 6  22792299.128        2447.614
 93  5  2  1 27 30.0030000  0  5 16 24 20 13 12                      0.003238060
  -9652330.024 6  -7467682.359 5  24122849.081       -2812.408
  17704031.754 8 -14835170.212 9  21529245.814        1257.255
 -13554670.680 7 -12724840.184 7  22790383.606       -2411.930
  16540390.469 6   6966680.065 5  24127524.710        2540.453
  20313988.661 6  -8943556.326 6  22806316.597        2462.968
 93  5  2  1 28  0.0030000  0  5 16 24 20 13 12                      0.003242300
  -9736626.022 6  -7533367.480 5  24106807.507       -2807.304
  17741943.731 8 -14805628.419 9  21536459.929        1270.085
 -13626889.237 7 -12781114.348 7  22776640.660       -2402.630
  16616590.834 6   7026057.010 5  24142025.824        2539.544
  20388113.391 6  -8885796.830 6  22820422.070        2478.414
 93  5  2  1 28 30.0030000  0  5 16 24 20 13 12                      0.003246540
  -9820772.943 6  -7598936.436 5  24090795.028       -2802.522
  17780233.569 8 -14775792.183 9  21543746.175        1282.677
 -13698832.834 7 -12837174.270 7  22762950.468       -2393.548
  16692760.558 6   7085410.065 5  24156521.127        2538.417
  20462696.062 6  -8827680.514 6  22834614.766        2493.548
 93  5  2  1 29  0.0030000  0  5 16 24 20 13 12                      0.003250770
  -9904762.996 6  -7664383.120 5  24074811.673       -2796.899
  17818912.684 8 -14745652.626 9  21551106.460        1295.846
 -13770497.432 7 -12893016.772 7  22749313.279       -2384.175
  16768900.678 6   7144739.919 5  24171010.010        2537.572
  20537735.871 6  -8769207.983 6  22848894.518        2508.775
 93  5  2  1 29 30.0030000  0  5 16 24 20 13 12                      0.003254980
  -9988590.026 6  -7729702.786 5  24058860.454       -2791.481
  17857982.431 8 -14715208.673 9  21558541.213        1308.623
 -13841881.741 7 -12948640.889 7  22735729.112       -2374.777
  16845009.646 6   7204045.575 5  24185493.063        2536.433
  20613229.642 6  -8710381.703 6  22863260.323        2523.919
 93  5  2  1 30  0.0030000  0  5 16 24 20 13 12                      0.003259190
 -10072250.670 6  -7794892.771 5  24042940.042       -2785.955
  17897425.913 8 -14684473.499 9  21566047.146        1321.020
 -13912981.978 7 -13004043.643 7  22722198.848       -2365.294
  16921088.782 6   7263328.049 5  24199970.510        2535.440
  20689175.812 6  -8651202.938 6  22877712.593        2538.902
 93  5  2  1 30 30.0030000  0  5 16 24 20 13 12                      0.003263390
 -10155754.064 6  -7859960.287 5  24027049.390       -2780.889
  17937255.368 8 -14653437.556 9  21573626.260        1334.295
 -13983796.505 7 -13059223.768 7  22708723.617       -2355.677
  16997136.391 6   7322585.902 5  24214441.609        2534.451
  20765571.111 6  -8591674.158 6  22892249.908        2553.876
 93  5  2  1 31  0.0030000  0  5 16 24 20 13 12                      0.003267560
 -10239098.329 6  -7924903.807 5  24011189.749       -2775.378
  17977473.024 8 -14622099.131 9  21581279.550        1346.904
 -14054324.052 7 -13114180.292 7  22695302.571       -2346.101
  17073151.043 6   7381818.003 4  24228906.830        2533.318
  20842411.587 6  -8531798.521 6  22906872.153        2568.643
 93  5  2  1 31 30.0030000  0  5 16 24 20 13 12                      0.003271730
 -10322276.655 6  -7989717.980 5  23995360.370       -2769.882
  18018064.558 8 -14590469.373 9  21589004.043        1359.088
 -14124558.606 7 -13168908.505 7  22681937.210       -2336.382
  17149136.008 6   7441027.083 5  24243366.454        2532.069
  20919698.189 6  -8471575.245 6  22921579.559        2583.404
 93  5  2  1 32  0.0030000  0  5 16 24 20 13 12                      0.003275880
 -10405288.452 6  -8054402.438 5  23979563.993       -2764.208
  18059031.970 8 -14558546.730 9  21596800.056        1372.246
 -14194501.247 8 -13223409.242 7  22668627.526       -2326.374
  17225086.949 6   7500209.666 5  24257819.700        2531.261
  20997424.505 6  -8411009.341 6  22936370.093        2598.207
 93  5  2  1 32 30.0030000  0  5 16 24 20 13 12                      0.003280010
 -10488130.992 6  -8118954.983 5  23963799.818       -2758.582
  18100396.751 8 -14526314.437 9  21604671.588        1385.235
 -14264145.573 7 -13277677.530 7  22655374.901       -2316.606
  17301007.348 6   7559368.275 4  24272267.010        2529.993
  21075591.823 6  -8350099.776 6  22951245.184        2612.713
 93  5  2  1 33  0.0030000  0  5 16 24 20 13 12                      0.003284120
 -10570795.304 6  -8183368.655 5  23948069.587       -2752.493
  18142141.841 8 -14493785.804 9  21612615.487        1397.762
 -14333493.839 8 -13331715.135 7  22642178.467       -2306.647
  17376891.641 6   7618498.844 5  24286706.551        2528.828
  21154192.876 6  -8288852.257 6  22966202.491        2627.122
 93  5  2  1 33 30.0030000  0  5 16 24 20 13 12                      0.003288200
 -10653281.557 6  -8247643.606 5  23932372.432       -2746.414
  18184266.532 8 -14460961.384 9  21620631.658        1410.610
 -14402544.315 8 -13385520.687 7  22629038.583       -2296.647
  17452739.281 6   7677600.958 5  24301139.945        2527.690
  21233224.338 6  -8227269.367 6  22981241.949        2641.471
 93  5  2  1 34  0.0030000  0  5 16 24 20 13 12                      0.003292260
 -10735581.613 6  -8311773.442 5  23916711.926       -2740.321
  18226771.199 8 -14427840.865 9  21628720.108        1422.821
 -14471294.566 8 -13439092.306 7  22615955.881       -2286.693
  17528550.389 6   7736674.456 4  24315565.345        2526.329
  21312683.597 6  -8165353.094 6  22996362.338        2655.529
 93  5  2  1 34 30.0030000  0  5 16 24 20 13 12                      0.003296310
 -10817693.480 6  -8375756.639 5  23901086.042       -2733.808
  18269636.510 8 -14394439.341 9  21636877.042        1434.843
 -14539744.874 8 -13492430.192 7  22602929.998       -2276.619
  17604320.846 6   7795716.334 5  24329984.552        2525.071
  21392565.020 6  -8103107.901 6  23011563.116        2669.666
 93  5  2  1 35  0.0030000  0  5 16 24 20 13 12                      0.003300360
 -10899610.661 6  -8439588.139 5  23885498.274       -2727.108
  18312859.675 8 -14360758.964 9  21645101.879        1446.957
 -14607891.559 8 -13545531.487 7  22589962.204       -2266.313
  17680052.255 6   7854727.838 5  24344396.053        2523.848
  21472867.422 6  -8040534.660 6  23026844.438        2683.795
 93  5  2  1 35 30.0030000  0  5 16 24 20 13 12                      0.003304390
 -10981327.322 6  -8503263.411 5  23869948.039       -2720.411
  18356449.895 8 -14326792.571 9  21653396.655        1459.225
 -14675730.117 8 -13598392.698 7  22577053.090       -2256.062
  17755745.641 6   7913709.540 5  24358800.006        2522.493
  21553590.010 6  -7977633.975 6  23042205.622        2697.662
 93  5  2  1 36  0.0030000  0  5 16 24 20 13 12                      0.003308390
 -11062852.343 6  -8566789.345 5  23854434.068       -2714.453
  18400404.578 8 -14292542.176 9  21661760.856        1471.282
 -14743263.296 8 -13651015.914 7  22564201.898       -2246.003
  17831395.198 6   7972657.197 5  24373195.389        2520.917
  21634724.560 6  -7914412.307 6  23057644.735        2711.250
 93  5  2  1 36 30.0030000  0  5 16 24 20 13 12                      0.003312350
 -11144187.312 6  -8630167.131 5  23838956.596       -2707.740
  18444737.512 8 -14257997.042 9  21670196.915        1484.278
 -14810487.873 8 -13703398.695 7  22551409.424       -2235.595
  17907002.229 6   8031571.783 5  24387582.968        2519.565
  21716269.331 6  -7850870.972 6  23073162.732        2724.894
 93  5  2  1 37  0.0030000  0  5 16 24 20 13 12                      0.003316280
 -11225311.831 6  -8693380.965 5  23823519.180       -2700.515
  18489456.656 8 -14223150.972 9  21678706.833        1496.891
 -14877397.705 8 -13755536.215 7  22538676.689       -2224.993
  17982570.177 6   8090455.831 4  24401962.960        2518.245
  21798225.356 6  -7787009.180 6  23088758.435        2738.598
 93  5  2  1 37 30.0030000  0  5 16 24 20 13 12                      0.003320180
 -11306225.220 6  -8756430.269 5  23808122.022       -2693.916
  18534543.041 8 -14188018.725 9  21687286.734        1508.806
 -14943992.762 8 -13807428.424 7  22526004.162       -2214.659
  18058096.097 6   8149307.130 4  24416335.668        2516.751
  21880587.159 6  -7722831.213 6  23104431.136        2751.933
 93  5  2  1 38  0.0030000  0  5 16 24 20 13 12                      0.003324050
 -11386944.807 6  -8819328.588 5  23792760.674       -2687.185
  18579982.030 8 -14152611.738 9  21695933.567        1520.539
 -15010272.354 8 -13859074.851 7  22513391.544       -2203.879
  18133578.027 6   8208124.201 5  24430699.247        2515.436
  21963350.444 6  -7658340.391 6  23120180.623        2765.483
 93  5  2  1 38 30.0030000  0  5 16 24 20 13 12                      0.003327910
 -11467453.695 6  -8882062.713 5  23777440.330       -2680.111
  18625764.841 8 -14116936.820 9  21704645.957        1531.582
 -15076232.084 8 -13910472.015 7  22500839.712       -2193.398
  18209017.238 6   8266907.990 5  24445055.119        2513.835
  22046514.205 6  -7593537.509 6  23136006.186        2778.564
 93  5  2  1 39  0.0030000  0  5 16 24 20 13 12                      0.003331770
 -11547755.534 6  -8944635.501 5  23762159.961       -2673.596
  18671877.501 8 -14081004.886 9  21713420.742        1542.695
 -15141873.388 8 -13961621.055 7  22488348.490       -2182.656
  18284410.045 6   8325655.507 4  24459401.768        2512.383
  22130071.894 6  -7528427.675 6  23151906.370        2791.781
 93  5  2  1 39 30.0030000  0  5 16 24 20 13 12                      0.003335600
 -11627874.143 6  -9007065.505 5  23746912.805       -2667.444
  18718333.905 8 -14044805.100 9  21722261.053        1554.700
 -15207190.558 8 -14012517.534 7  22475919.106       -2171.698
  18359758.995 6   8384368.970 5  24473740.071        2511.002
  22214023.777 6  -7463010.686 6  23167882.191        2804.978
 93  5  2  1 40  0.0030000  0  5 16 24 20 13 12                      0.003339390
 -11707798.365 6  -9069344.040 5  23731704.918       -2660.370
  18765154.183 8 -14008321.773 9  21731170.674        1566.916
 -15272182.515 8 -14063160.598 7  22463551.459       -2160.879
  18435062.249 6   8443046.788 4  24488070.141        2509.403
  22298365.608 6  -7397289.835 6  23183931.658        2817.837
 93  5  2  1 40 30.0030000  0  5 16 24 20 13 12                      0.003343140
 -11787494.947 6  -9131445.230 5  23716538.275       -2652.915
  18812351.993 8 -13971544.261 9  21740151.894        1579.435
 -15336843.787 8 -14113545.990 7  22451246.905       -2149.890
  18510322.928 6   8501691.404 4  24502392.542        2507.885
  22383097.383 6  -7331265.137 6  23200055.886        2830.648
 93  5  2  1 41  0.0030000  0  5 16 24 20 13 12                      0.003346840
 -11866970.584 6  -9193374.190 5  23701415.279       -2645.627
  18859921.621 8 -13934477.036 9  21749203.941        1591.757
 -15401174.506 8 -14163673.798 7  22439005.479       -2138.796
  18585538.179 6   8560300.646 5  24516705.022        2506.421
  22468214.054 6  -7264940.519 6  23216252.821        2843.485
 93  5  2  1 41 30.0030000  0  5 16 24 20 13 12                      0.003350500
 -11946220.818 6  -9255127.513 5  23686334.034       -2637.662
  18907855.176 8 -13897126.215 9  21758325.405        1603.564
 -15465168.620 8 -14213539.315 7  22426827.612       -2127.554
  18660711.644 6   8618877.398 4  24531010.304        2505.019
  22553716.280 6  -7198315.460 6  23232523.266        2856.300
 93  5  2  1 42  0.0030000  0  5 16 24 20 13 12                      0.003354130
 -12025233.167 6  -9316695.505 5  23671297.511       -2629.947
  18956129.633 8 -13859509.755 9  21767511.786        1614.585
 -15528825.649 8 -14263142.172 7  22414713.876       -2116.285
  18735841.422 6   8677419.972 4  24545306.301        2503.538
  22639599.216 6  -7131393.732 6  23248866.514        2868.954
 93  5  2  1 42 30.0030000  0  5 16 24 20 13 12                      0.003357770
 -12104027.901 6  -9378093.934 5  23656304.349       -2623.145
  19004725.861 8 -13821642.572 9  21776759.124        1625.116
 -15592143.982 8 -14312481.120 7  22402665.058       -2104.915
  18810925.750 6   8735927.232 4  24559594.408        2502.039
  22725858.808 6  -7064178.544 6  23265281.648        2881.526
 93  5  2  1 43  0.0030000  0  5 16 24 20 13 12                      0.003361400
 -12182613.128 6  -9439329.102 5  23641348.948       -2616.158
  19053637.618 8 -13783529.515 9  21786066.968        1635.571
 -15655115.715 8 -14361549.976 7  22390681.853       -2093.412
  18885969.624 6   8794402.999 4  24573875.222        2500.689
  22812497.468 6  -6996667.932 6  23281768.380        2893.985
 93  5  2  1 43 30.0030000  0  5 16 24 20 13 12                      0.003365020
 -12260984.130 6  -9500397.340 5  23626435.857       -2608.549
  19102868.810 8 -13745167.564 9  21795435.585        1646.327
 -15717741.970 8 -14410349.646 7  22378764.205       -2081.873
  18960969.641 6   8852844.430 4  24588147.248        2499.140
  22899509.165 6  -6928866.672 6  23298326.194        2906.316
 93  5  2  1 44  0.0030000  0  5 16 24 20 13 12                      0.003368640
 -12339116.448 6  -9561279.550 5  23611568.032       -2600.223
  19152424.782 8 -13706552.520 9  21804865.735        1657.390
 -15780021.414 8 -14458879.054 7  22366912.861       -2070.026
  19035924.742 6   8911251.045 4  24602410.725        2497.891
  22986889.641 6  -6860778.054 6  23314954.054        2918.841
 93  5  2  1 44 30.0030000  0  5 16 24 20 13 12                      0.003372240
 -12416993.192 6  -9621962.654 5  23596748.373       -2591.524
  19202309.069 8 -13667681.662 9  21814358.814        1668.150
 -15841946.757 8 -14507132.561 7  22355128.846       -2058.395
  19110839.492 6   8969626.191 4  24616667.229        2496.297
  23074640.901 6  -6792400.499 6  23331652.484        2930.946
 93  5  2  1 45  0.0030000  0  5 16 24 20 13 12                      0.003375820
 -12494598.175 6  -9682434.017 5  23581981.123       -2582.186
  19252516.518 8 -13628558.986 9  21823912.720        1679.066
 -15903521.941 8 -14555113.199 7  22343411.509       -2046.546
  19185707.235 6   9027964.623 4  24630913.875        2494.833
  23162753.687 6  -6723741.230 6  23348419.665        2943.025
 93  5  2  1 45 30.0030000  0  5 16 24 20 13 12                      0.003379390
 -12571923.472 6  -9742687.429 5  23567266.194       -2572.679
  19303054.444 8 -13589178.786 9  21833529.831        1690.065
 -15964742.344 8 -14602817.377 7  22331761.504       -2034.678
  19260529.795 6   9086267.852 4  24645152.103        2493.341
  23251227.157 6  -6654800.929 6  23365255.940        2955.095
 93  5  2  1 46  0.0030000  0  5 16 24 20 13 12                      0.003382930
 -12648965.249 6  -9802719.908 5  23552605.490       -2563.435
  19353922.104 8 -13549541.663 9  21843209.541        1701.364
 -16025601.914 8 -14650240.418 7  22320180.481       -2022.398
  19335311.091 5   9144539.022 4  24659382.407        2492.290
  23340062.010 6  -6585579.000 6  23382160.581        2967.286
 93  5  2  1 46 30.0030000  0  5 16 24 20 13 12                      0.003386430
 -12725742.414 6  -9862546.176 6  23537995.269       -2555.042
  19405133.521 8 -13509636.671 9  21852954.654        1712.680
 -16086095.773 8 -14697378.445 7  22308668.660       -2010.496
  19410053.624 5   9202779.996 4  24673604.995        2490.587
  23429257.839 6  -6516075.816 6  23399134.396        2978.883
 93  5  2  1 47  0.0030000  0  5 16 24 20 13 12                      0.003389900
 -12802268.043 6  -9922176.454 6  23523432.815       -2546.794
  19456688.023 8 -13469464.334 9  21862764.933        1724.327
 -16146227.451 8 -14744234.272 8  22297225.991       -1998.225
  19484750.974 5   9260985.563 4  24687819.002        2489.224
  23518805.192 6  -6446298.703 6  23416174.482        2990.750
 93  5  2  1 47 30.0030000  0  5 16 24 20 13 12                      0.003393330
 -12878550.990 6  -9981617.655 6  23508916.705       -2538.708
  19508593.737 8 -13429018.330 9  21872642.564        1735.927
 -16205990.372 8 -14790802.765 8  22285853.506       -1985.898
  19559407.005 5   9319159.065 4  24702025.682        2487.900
  23608705.712 6  -6376246.387 6  23433282.246        3002.471
 93  5  2  1 48  0.0030000  0  5 16 24 20 13 12                      0.003396720
 -12954598.672 6 -10040875.525 6  23494445.365       -2530.976
  19560838.312 8 -13388308.270 9  21882584.102        1747.027
 -16265384.331 8 -14837083.740 8  22274551.290       -1973.612
  19634019.763 6   9377298.918 4  24716224.572        2486.390
  23698954.289 6  -6305922.856 6  23450456.266        3013.907
 93  5  2  1 48 30.0030000  0  5 16 24 20 13 12                      0.003400090
 -13030400.316 6 -10099941.657 6  23480020.552       -2522.389
  19613408.219 8 -13347344.718 9  21892588.055        1757.447
 -16324405.061 8 -14883073.901 8  22263320.344       -1961.164
  19708590.786 5   9435406.159 3  24730414.633        2484.977
  23789549.394 6  -6235329.324 6  23467695.702        3025.497
 93  5  2  1 49  0.0030000  0  5 16 24 20 13 12                      0.003403460
 -13105944.935 7 -10158807.518 6  23465645.041       -2513.874
  19666280.361 8 -13306145.659 9  21902649.372        1767.417
 -16383052.354 8 -14928773.063 8  22252159.782       -1948.661
  19783117.981 5   9493479.222 4  24744597.266        2483.494
  23880485.972 6  -6164469.720 6  23485000.522        3036.782
 93  5  2  1 49 30.0030000  0  5 16 24 20 13 12                      0.003406820
 -13181223.197 6 -10217465.816 6  23451320.241       -2504.434
  19719450.077 8 -13264714.717 9  21912767.397        1777.123
 -16441321.748 8 -14974177.759 8  22241071.405       -1935.864
  19857603.457 5   9551519.868 4  24758771.384        2482.277
  23971763.293 6  -6093344.581 6  23502370.148        3048.211
 93  5  2  1 50  0.0030000  0  5 16 24 20 13 12                      0.003410180
 -13256211.848 7 -10275898.456 6  23437050.306       -2494.746
  19772904.267 8 -13223062.103 9  21922939.596        1786.552
 -16499209.239 8 -15019284.879 8  22230055.942       -1923.290
  19932048.755 5   9609529.149 4  24772936.778        2480.743
  24063379.679 6  -6021955.228 6  23519804.007        3059.296
 93  5  2  1 50 30.0030000  0  5 16 24 20 13 12                      0.003413550
 -13330899.054 6 -10334096.220 6  23422837.386       -2484.997
  19826651.016 8 -13181181.532 9  21933167.135        1796.438
 -16556712.927 8 -15064092.921 8  22219113.288       -1910.536
  20006453.229 6   9667506.503 3  24787096.479        2479.310
  24155331.657 6  -5950304.394 6  23537302.016        3070.315
 93  5  2  1 51  0.0030000  0  5 16 24 20 13 12                      0.003416900
 -13405302.251 7 -10392072.648 6  23408678.988       -2475.206
  19880700.538 8 -13139065.048 9  21943451.914        1806.868
 -16613835.349 8 -15108603.886 8  22208243.394       -1897.628
  20080811.617 5   9725448.173 4  24801246.164        2477.945
  24247611.212 6  -5878398.302 6  23554862.287        3081.400
 93  5  2  1 51 30.0030000  0  5 16 24 20 13 12                      0.003420220
 -13479405.907 7 -10449815.696 6  23394577.612       -2465.115
  19935065.117 8 -13096703.033 9  21953797.462        1817.374
 -16670567.530 8 -15152810.764 8  22197447.529       -1884.674
  20155130.437 5   9783359.052 3  24815389.156        2476.546
  24340221.953 6  -5806234.136 6  23572485.432        3092.228
 93  5  2  1 52  0.0030000  0  5 16 24 20 13 12                      0.003423500
 -13553207.715 7 -10507323.539 6  23380533.395       -2455.147
  19989752.319 8 -13054089.644 9  21964203.868        1828.483
 -16726912.930 8 -15196716.259 8  22186725.121       -1871.804
  20229404.119 5   9841234.926 3  24829522.889        2474.879
  24433154.749 6  -5733819.040 6  23590170.074        3102.925
 93  5  2  1 52 30.0030000  0  5 16 24 20 13 12                      0.003426730
 -13626711.567 6 -10564599.217 6  23366545.147       -2444.985
  20044777.227 8 -13011213.123 9  21974674.759        1839.950
 -16782870.047 8 -15240319.197 8  22176076.872       -1858.480
  20303631.141 5   9899074.194 3  24843647.088        2473.738
  24526405.615 6  -5661156.083 6  23607914.789        3113.815
 93  5  2  1 53  0.0030000  0  5 16 24 20 13 12                      0.003429910
 -13699905.879 7 -10621633.664 6  23352617.100       -2434.273
  20100134.876 8 -12968077.294 9  21985209.076        1850.656
 -16838434.251 8 -15283615.975 8  22165503.412       -1845.547
  20377814.421 5   9956879.336 4  24857763.861        2472.065
  24619973.843 6  -5588245.843 6  23625720.521        3124.108
 93  5  2  1 53 30.0030000  0  5 16 24 20 13 12                      0.003433050
 -13772768.347 7 -10678409.555 6  23338751.757       -2423.452
  20155819.655 8 -12924686.557 9  21995805.959        1861.551
 -16893598.567 8 -15326601.141 8  22155005.789       -1832.239
  20451958.290 5  10014653.771 3  24871872.524        2470.718
  24713860.982 6  -5515087.078 6  23643586.688        3134.669
 93  5  2  1 54  0.0030000  0  5 16 24 20 13 12                      0.003436150
 -13845308.246 7 -10734934.092 6  23324948.014       -2412.724
  20211825.387 8 -12881045.728 9  22006463.552        1871.857
 -16948363.821 8 -15369275.368 8  22144584.611       -1818.914
  20526059.602 5  10072394.888 3  24885973.726        2469.301
  24808060.833 6  -5441684.653 6  23661512.754        3144.994
 93  5  2  1 54 30.0030000  0  5 16 24 20 13 12                      0.003439230
 -13917533.178 7 -10791213.208 6  23311203.978       -2402.354
  20268122.315 8 -12837178.009 9  22017176.637        1881.102
 -17002729.629 8 -15411638.327 8  22134238.906       -1805.512
  20600116.519 5  10130101.656 3  24900066.244        2467.892
  24902568.201 6  -5368042.586 6  23679496.577        3155.267
 93  5  2  1 55  0.0030000  0  5 16 24 20 13 12                      0.003442310
 -13989448.255 7 -10847250.858 6  23297519.373       -2392.131
  20324688.504 8 -12793100.500 9  22027940.594        1889.933
 -17056691.286 8 -15453686.374 8  22123970.263       -1791.950
  20674131.492 6  10187775.688 3  24914151.471        2466.491
  24997382.498 6  -5294161.404 5  23697539.713        3165.440
 93  5  2  1 55 30.0030000  0  5 16 24 20 13 12                      0.003445390
 -14061073.373 7 -10903062.583 6  23283889.350       -2382.792
  20381516.115 8 -12748819.240 9  22038754.608        1898.669
 -17110247.707 8 -15495418.654 8  22113778.890       -1778.410
  20748103.372 6  10245415.877 2  24928228.043        2464.995
  25092499.155 6  -5220044.575 6  23715639.171        3175.490
 93  5  2  1 56  0.0030000  0  5 16 24 20 13 12                      0.003448480
 -14132412.664 7 -10958651.572 6  23270313.746       -2373.209
  20438606.443 8 -12704333.260 9  22049618.288        1907.113
 -17163392.005 8 -15536829.784 8  22103665.940       -1764.704
  20822036.641 6  10303026.262 3  24942297.369        2463.735
  25187920.048 6  -5145690.670 5  23733797.836        3185.461
 93  5  2  1 56 30.0030000  0  5 16 24 20 13 12                      0.003451580
 -14203465.800 6 -11014017.570 6  23256792.779       -2363.801
  20495952.228 8 -12659648.261 9  22060530.772        1915.858
 -17216125.283 8 -15577920.655 8  22093631.217       -1750.994
  20895927.935 6  10360603.933 3  24956358.232        2462.217
  25283638.523 6  -5071104.939 5  23752011.945        3195.380
 93  5  2  1 57  0.0030000  0  5 16 24 20 13 12                      0.003454670
 -14274226.099 7 -11069155.427 6  23243326.687       -2353.527
  20553572.023 8 -12614749.723 9  22071495.593        1925.502
 -17268443.387 8 -15618688.001 8  22083675.249       -1736.890
  20969779.223 5  10418150.293 3  24970411.837        2461.134
  25379653.098 6  -4996288.415 5  23770282.836        3205.335
 93  5  2  1 57 30.0030000  0  5 16 24 20 13 12                      0.003457760
 -14344675.459 6 -11124050.934 6  23229921.509       -2342.642
  20611484.602 8 -12569623.048 9  22082515.902        1935.546
 -17320341.366 8 -15659127.982 8  22073799.646       -1722.726
  21043592.973 6  10475667.483 3  24984458.688        2459.994
  25475963.427 6  -4921241.474 5  23788609.981        3215.328
 93  5  2  1 58  0.0030000  0  5 16 24 20 13 12                      0.003460810
 -14414790.539 6 -11178686.012 6  23216578.986       -2331.424
  20669692.989 8 -12524265.870 9  22093592.883        1945.229
 -17371815.995 8 -15699238.063 8  22064004.116       -1708.801
  21117369.835 6  10533155.943 4  24998497.680        2458.517
  25572566.966 6  -4845966.068 5  23806993.181        3224.794
 93  5  2  1 58 30.0030000  0  5 16 24 20 13 12                      0.003463840
 -14484552.354 6 -11233045.788 6  23203303.599       -2319.587
  20728207.079 8 -12478670.499 9  22104727.936        1955.481
 -17422863.335 8 -15739015.206 8  22054290.052       -1694.506
  21191111.486 6  10590617.043 3  25012530.884        2457.362
  25669462.334 6  -4770463.219 5  23825431.948        3234.468
 93  5  2  1 59  0.0030000  0  5 16 24 20 13 12                      0.003466820
 -14553960.101 7 -11287129.699 6  23190095.191       -2307.426
  20787020.212 8 -12432842.079 9  22115919.727        1965.511
 -17473486.376 8 -15778461.701 8  22044656.980       -1680.219
  21264813.137 5  10648046.729 3  25026554.573        2456.109
  25766641.269 6  -4694739.435 5  23843924.484        3243.970
 93  5  2  1 59 30.0030000  0  5 16 24 20 13 12                      0.003469770
 -14622997.402 7 -11340924.943 6  23176957.887       -2294.922
  20846136.707 8 -12386777.297 9  22127169.060        1975.491
 -17523676.839 8 -15817571.139 8  22035105.894       -1665.703
  21338481.001 5  10705450.284 3  25040573.343        2455.168
  25864106.468 6  -4618792.609 5  23862471.968        3253.539
 93  5  2  2  0  0.0030000  0  5 16 24 20 13 12                      0.003472690
 -14691665.378 7 -11394432.388 6  23163890.891       -2282.979
  20905541.501 8 -12340487.851 9  22138473.365        1984.898
 -17573434.633 8 -15856343.427 8  22025637.439       -1651.394
  21412113.334 5  10762826.166 3  25054585.721        2453.768
  25961852.667 6  -4542626.788 5  23881072.507        3262.722
 93  5  2  2  0 30.0030000  0  5 16 24 20 13 12                      0.003475580
 -14759974.268 7 -11447660.066 6  23150892.260       -2271.198
  20965229.988 8 -12293977.375 9  22149831.551        1994.082
 -17622759.098 8 -15894778.076 8  22016251.276       -1636.968
  21485708.212 5  10820172.545 3  25068589.644        2452.499
  26059874.973 6  -4466245.839 5  23899725.390        3271.766
 93  5  2  2  1  0.0030000  0  5 16 24 20 13 12                      0.003478460
 -14827934.081 7 -11500615.698 6  23137960.323       -2259.536
  21025190.135 8 -12247255.180 9  22161241.461        2003.236
 -17671647.954 8 -15932873.254 8  22006947.957       -1622.357
  21559266.464 5  10877490.777 3  25082587.270        2451.280
  26158170.636 6  -4389651.890 5  23918430.676        3280.934
 93  5  2  2  1 30.0030000  0  5 16 24 20 13 12                      0.003481320
 -14895547.660 7 -11553301.548 6  23125093.620       -2247.943
  21085424.055 8 -12200319.665 9  22172703.757        2012.324
 -17720098.665 8 -15970627.034 8  21997727.930       -1607.532
  21632787.800 5  10934780.181 4  25096578.086        2450.265
  26256736.612 6  -4312847.268 5  23937187.138        3290.043
 93  5  2  2  2  0.0030000  0  5 16 24 20 13 12                      0.003484170
 -14962828.001 7 -11605727.727 6  23112290.535       -2237.336
  21145921.047 8 -12153179.172 9  22184215.987        2021.009
 -17768108.251 8 -16008037.081 9  21988592.094       -1593.000
  21706272.962 5  10992041.374 3  25110561.975        2448.866
  26355570.240 6  -4235834.094 5  23955994.958        3298.738
 93  5  2  2  2 30.0030000  0  5 16 24 20 13 12                      0.003487020
 -15029780.370 7 -11657898.353 6  23099549.155       -2226.224
  21206687.740 8 -12105828.515 9  22195779.741        2030.040
 -17815674.674 8 -16045101.805 9  21979540.770       -1578.126
  21779722.585 5  11049275.161 2  25124539.230        2447.740
  26454668.401 6  -4158614.842 5  23974852.498        3307.491
 93  5  2  2  3  0.0030000  0  5 16 24 20 13 12                      0.003489850
 -15096397.831 7 -11709808.024 6  23086872.590       -2214.963
  21267732.389 8 -12058261.262 9  22207396.199        2039.545
 -17862792.461 8 -16081816.946 9  21970574.618       -1563.097
  21853139.569 5  11106483.300 3  25138509.549        2446.683
  26554030.806 6  -4081189.626 5  23993760.217        3316.339
 93  5  2  2  3 30.0030000  0  5 16 24 20 13 12                      0.003492680
 -15162680.625 7 -11761456.890 6  23074259.062       -2203.918
  21329054.254 8 -12010477.991 9  22219065.321        2048.434
 -17909463.817 8 -16118184.217 9  21961693.457       -1548.356
  21926519.486 5  11163662.478 3  25152473.316        2445.376
  26653650.005 6  -4003564.342 5  24012717.683        3324.640
 93  5  2  2  4  0.0030000  0  5 16 24 20 13 12                      0.003495490
 -15228624.938 7 -11812842.004 6  23061710.968       -2192.372
  21390642.128 8 -11962487.460 9  22230785.187        2057.453
 -17955688.492 8 -16154203.427 9  21952897.025       -1533.353
  21999861.168 5  11220811.974 3  25166430.645        2444.138
  26753521.155 6  -3925742.750 5  24031721.826        3333.118
 93  5  2  2  4 30.0030000  0  5 16 24 20 13 12                      0.003498290
 -15294216.304 7 -11863952.125 6  23049228.771       -2180.435
  21452498.733 8 -11914287.510 9  22242555.618        2066.215
 -18001462.844 8 -16189871.729 9  21944186.286       -1518.331
  22073165.411 5  11277932.392 3  25180379.767        2442.823
  26853642.364 6  -3847726.287 5  24050774.773        3341.300
 93  5  2  2  5  0.0030000  0  5 16 24 20 13 12                      0.003501080
 -15359449.503 7 -11914783.141 6  23036815.715       -2168.607
  21514612.136 8 -11865887.464 9  22254375.605        2074.328
 -18046785.378 8 -16225187.985 9  21935561.827       -1503.292
  22146432.176 5  11335023.436 3  25194321.811        2441.502
  26954009.880 6  -3769517.846 5  24069873.632        3349.474
 93  5  2  2  5 30.0030000  0  5 16 24 20 13 12                      0.003503860
 -15424322.035 7 -11965333.120 6  23024470.501       -2156.119
  21576959.190 8 -11817305.346 9  22266239.484        2082.252
 -18091656.191 8 -16260152.253 9  21927023.018       -1488.012
  22219659.068 5  11392083.372 3  25208256.306        2440.278
  27054618.218 5  -3691121.846 5  24089019.399        3357.542
 93  5  2  2  6  0.0030000  0  5 16 24 20 13 12                      0.003506620
 -15488818.904 7 -12015590.356 6  23012197.308       -2143.621
  21639542.594 8 -11768539.101 9  22278148.917        2090.113
 -18136071.371 8 -16294761.475 9  21918571.368       -1472.927
  22292848.143 5  11449113.907 2  25222184.410        2439.017
  27155465.499 5  -3612539.581 5  24108209.173        3365.450
 93  5  2  2  6 30.0030000  0  5 16 24 20 13 12                      0.003509370
 -15552929.235 7 -12065546.418 6  22999997.324       -2130.379
  21702369.888 8 -11719582.748 9  22290104.692        2098.387
 -18180029.354 8 -16329014.447 9  21910206.428       -1457.616
  22365999.545 6  11506114.778 2  25236104.217        2437.717
  27256548.481 5  -3533773.693 5  24127445.739        3373.182
 93  5  2  2  7  0.0030000  0  5 16 24 20 13 12                      0.003512070
 -15616633.050 7 -12115185.703 6  22987875.117       -2116.634
  21765449.101 8 -11670430.125 9  22302108.420        2106.828
 -18223526.554 8 -16362908.352 9  21901929.039       -1442.265
  22439114.462 5  11563087.483 3  25250017.270        2436.531
  27357865.041 5  -3454825.788 5  24146724.199        3380.838
 93  5  2  2  7 30.0030000  0  5 16 24 20 13 12                      0.003514750
 -15679921.704 7 -12164501.488 6  22975831.532       -2102.539
  21828787.671 8 -11621075.392 9  22314161.496        2115.816
 -18266563.677 8 -16396443.777 9  21893739.330       -1426.883
  22512190.418 5  11620029.776 3  25263922.677        2435.141
  27459409.416 5  -3375700.399 5  24166048.971        3388.403
 93  5  2  2  8  0.0030000  0  5 16 24 20 13 12                      0.003517370
 -15742786.633 7 -12213487.094 6  22963868.791       -2088.394
  21892395.401 8 -11571510.946 9  22326265.928        2124.657
 -18309137.048 8 -16429617.828 9  21885637.939       -1411.177
  22585229.413 5  11676943.630 2  25277821.548        2434.171
  27561179.823 5  -3296398.817 5  24185414.069        3396.186
 93  5  2  2  8 30.0030000  0  5 16 24 20 13 12                      0.003519960
 -15805229.959 7 -12262144.188 6  22951986.220       -2074.487
  21956258.932 8 -11521747.161 9  22338418.675        2132.838
 -18351243.358 8 -16462427.946 9  21877625.415       -1395.771
  22658232.409 5  11733829.129 3  25291714.153        2432.838
  27663174.093 6  -3216922.834 5  24204823.131        3403.398
 93  5  2  2  9  0.0030000  0  5 16 24 20 13 12                      0.003522520
 -15867266.308 7 -12310484.161 6  22940181.364       -2061.454
  22020360.032 8 -11471798.260 9  22350616.561        2140.365
 -18392882.648 8 -16494874.141 9  21869701.510       -1380.213
  22731197.468 5  11790685.156 3  25305598.767        2431.447
  27765387.198 5  -3137276.325 5  24224273.955        3410.582
 93  5  2  2  9 30.0030000  0  5 16 24 20 13 12                      0.003525070
 -15928916.465 7 -12358523.195 6  22928449.445       -2048.556
  22084680.076 8 -11421678.757 9  22362855.927        2147.611
 -18434050.701 8 -16526953.141 9  21861867.735       -1364.336
  22804127.069 5  11847513.550 3  25319477.048        2430.503
  27867817.846 6  -3057460.303 5  24243765.929        3417.931
 93  5  2  2 10  0.0030000  0  5 16 24 20 13 12                      0.003527620
 -15990180.102 7 -12406261.050 6  22916791.146       -2035.787
  22149212.923 8 -11371393.444 9  22375136.186        2154.587
 -18474742.865 8 -16558661.311 9  21854124.165       -1348.440
  22877024.543 5  11904316.927 3  25333348.952        2429.355
  27970465.497 6  -2977475.209 5  24263299.767        3425.112
 93  5  2  2 10 30.0030000  0  5 16 24 20 13 12                      0.003530160
 -16051066.488 7 -12453704.939 6  22905204.816       -2023.017
  22213960.350 8 -11320940.917 9  22387457.366        2162.323
 -18514960.812 8 -16589999.971 9  21846471.252       -1332.466
  22949886.484 5  11961092.527 3  25347214.178        2428.333
  28073323.322 5  -2897326.297 5  24282872.747        3432.226
 93  5  2  2 11  0.0030000  0  5 16 24 20 13 12                      0.003532690
 -16111569.638 7 -12500850.213 6  22893691.625       -2010.322
  22278945.441 8 -11270303.181 9  22399823.805        2170.206
 -18554700.301 8 -16620965.805 9  21838908.779       -1316.706
  23022715.533 5  12017842.484 4  25361072.877        2427.061
  28176390.305 5  -2817014.428 5  24302485.411        3438.841
 93  5  2  2 11 30.0030000  0  5 16 24 20 13 12                      0.003535200
 -16171675.955 7 -12547686.253 6  22882253.567       -1996.814
  22344179.245 8 -11219471.658 9  22412237.400        2178.686
 -18593960.507 8 -16651558.169 9  21831437.660       -1300.662
  23095510.609 5  12074566.089 3  25374925.812        2425.934
  28279662.121 5  -2736542.947 5  24322138.156        3445.599
 93  5  2  2 12  0.0030000  0  5 16 24 20 13 12                      0.003537690
 -16231372.999 7 -12594203.382 6  22870893.838       -1983.291
  22409674.869 8 -11168436.133 8  22424700.584        2187.474
 -18632736.667 8 -16681773.358 9  21824058.349       -1284.533
  23168274.478 5  12131265.409 3  25388771.834        2424.842
  28383138.111 5  -2655912.379 5  24341829.204        3452.332
 93  5  2  2 12 30.0030000  0  5 16 24 20 13 12                      0.003540160
 -16290668.275 7 -12640407.455 6  22859610.039       -1969.619
  22475427.019 8 -11117200.694 8  22437213.041        2195.910
 -18671028.251 8 -16711610.965 9  21816771.883       -1268.243
  23241005.652 5  12187939.067 4  25402612.312        2423.969
  28486813.389 5  -2575126.537 5  24361558.121        3459.109
 93  5  2  2 13  0.0030000  0  5 16 24 20 13 12                      0.003542610
 -16349550.312 7 -12686289.512 6  22848404.871       -1955.875
  22541414.424 8 -11065781.951 8  22449769.758        2203.158
 -18708830.881 8 -16741067.554 9  21809578.414       -1251.962
  23313707.521 5  12244589.991 4  25416447.039        2422.896
  28590687.484 5  -2494185.770 5  24381324.170        3465.587
 93  5  2  2 13 30.0030000  0  6  3 16 24 20 13 12                   0.003545160
  25691277.97315   -117138.82911  25491286.568       -2194.446
 -16408027.062 7 -12731855.765 6  22837277.161       -1942.586
  22607610.753 8 -11014200.412 8  22462366.416        2209.932
 -18746144.501 8 -16770143.084 9  21802478.057       -1235.551
  23386377.960 5  12301216.520 3  25430276.096        2421.820
  28694755.073 5  -2413094.163 5  24401128.034        3472.078
 93  5  2  2 14  0.0030000  0  6  3 16 24 20 13 12                   0.003547590
  25625458.959 5   -168426.255 3  25478761.873       -2193.741
 -16466111.484 7 -12777116.307 6  22826224.083       -1929.617
  22674007.537 8 -10962462.678 8  22475001.642        2216.560
 -18782969.591 8 -16798837.956 9  21795470.459       -1219.402
  23459014.951 5  12357816.835 3  25444097.667        2420.585
  28799010.356 5  -2331856.425 5  24420966.868        3478.049
 93  5  2  2 14 30.0030000  0  6  3 16 24 20 13 12                   0.003550010
  25559661.063 5   -219697.200 3  25466243.339       -2192.961
 -16523800.995 7 -12822069.112 6  22815246.076       -1916.224
  22740604.332 8 -10910569.072 8  22487674.537        2223.277
 -18819307.067 8 -16827152.870 9  21788555.506       -1203.079
  23531615.935 5  12414389.067 4  25457913.941        2419.494
  28903447.298 5  -2250477.049 5  24440839.451        3484.111
 93  5  2  2 15  0.0030000  0  6  3 16 24 20 13 12                   0.003552410
  25493884.218 5   -270951.922 3  25453727.673       -2192.395
 -16581086.127 7 -12866706.847 6  22804344.911       -1902.941
  22807404.686 8 -10858516.850 8  22500386.398        2230.201
 -18855154.777 8 -16855086.154 9  21781734.049       -1186.825
  23604181.170 5  12470933.549 4  25471722.241        2418.236
  29008063.304 5  -2168958.119 5  24460748.625        3489.930
 93  5  2  2 15 30.0030000  0  6  3 16 24 20 13 12                   0.003554780
  25428128.409 5   -322190.104 4  25441214.286       -2191.781
 -16637971.842 7 -12911033.317 6  22793519.794       -1889.549
  22874426.964 8 -10806291.719 8  22513140.427        2237.647
 -18890511.032 8 -16882636.476 9  21775005.896       -1170.438
  23676710.806 5  12527450.404 3  25485524.454        2417.000
  29112854.745 5  -2087302.521 5  24480689.232        3495.640
 93  5  2  2 16  0.0030000  0  6  3 16 24 20 13 12                   0.003557130
  25362389.162 5   -373415.357 5  25428703.720       -2191.158
 -16694449.644 7 -12955041.953 6  22782772.743       -1875.480
  22941667.335 8 -10753896.647 8  22525935.760        2244.965
 -18925377.585 8 -16909805.220 9  21768370.891       -1154.012
  23749201.905 5  12583937.044 3  25499318.819        2415.757
  29217814.828 5  -2005515.495 5  24500662.954        3501.448
 93  5  2  2 16 30.0030000  0  6  3 16 24 20 13 12                   0.003559460
  25296669.946 5   -424625.019 5  25416196.791       -2190.487
 -16750493.021 7 -12998712.072 6  22772107.197       -1860.832
  23009120.716 8 -10701335.574 8  22538771.773        2251.676
 -18959749.113 8 -16936588.217 9  21761829.988       -1137.542
  23821657.522 5  12640396.006 3  25513107.410        2414.513
  29322943.268 5  -1923597.280 5  24520667.854        3506.883
 93  5  2  2 17  0.0030000  0  6  3 16 24 20 13 12                   0.003561770
  25230965.247 5   -475823.356 5  25403694.954       -2190.017
 -16806094.848 7 -13042038.113 6  22761527.321       -1845.921
  23076767.074 8 -10648624.127 8  22551644.291        2258.087
 -18993628.854 8 -16962988.026 9  21755383.152       -1121.043
  23894073.499 5  12696824.161 4  25526887.096        2413.348
  29428232.172 5  -1841554.076 5  24540704.714        3512.255
 93  5  2  2 17 30.0030000  0  5  3 16 24 20 12                      0.003564040
  25165276.981 5   -527009.022 5  25391193.993       -2189.366
 -16861247.374 7 -13085014.064 6  22751031.777       -1830.844
  23144603.743 8 -10595764.414 8  22564552.886        2264.304
 -19027012.598 8 -16989001.315 9  21749030.561       -1104.499
  29533680.440 5  -1759386.654 5  24560770.775        3517.444
 93  5  2  2 18  0.0030000  0  5  3 16 24 20 12                      0.003566280
  25099599.621 5   -578186.142 5  25378697.935       -2189.165
 -16915947.806 7 -13127637.719 6  22740623.014       -1815.734
  23212624.445 8 -10542761.280 8  22577496.954        2270.699
 -19059904.172 8 -17014631.117 9  21742771.462       -1088.122
  29639279.415 5  -1677101.778 5  24580865.721        3522.419
 93  5  2  2 18 30.0030000  0  5  3 16 24 20 12                      0.003568500
  25033935.667 5   -629352.728 5  25366201.547       -2188.687
 -16970198.666 7 -13169911.080 6  22730299.211       -1801.136
  23280847.874 8 -10489600.169 8  22590479.574        2277.644
 -19092298.815 8 -17039873.681 9  21736607.071       -1071.470
  29745028.777 5  -1594699.801 5  24600988.436        3527.407
 93  5  2  2 19  0.0030000  0  5  3 16 24 20 12                      0.003570700
  24968287.005 5   -680507.421 5  25353708.018       -2188.099
 -17024025.723 7 -13211854.204 7  22720056.074       -1787.303
  23349287.229 8 -10436270.818 8  22603503.279        2285.137
 -19124192.121 8 -17064725.609 9  21730537.791       -1054.632
  29850927.760 5  -1512181.175 5  24621139.547        3532.464
 93  5  2  2 19 30.0030000  0  5  3 16 24 20 12                      0.003572880
  24902652.282 5   -731651.292 5  25341215.992       -2187.743
 -17077444.834 7 -13253479.418 7  22709891.079       -1773.808
  23417949.272 8 -10382767.941 8  22616569.076        2292.430
 -19155584.690 8 -17089187.351 9  21724564.118       -1038.059
  29956971.249 5  -1429549.896 5  24641319.181        3537.007
 93  5  2  2 20  0.0030000  0  5  3 16 24 20 12                      0.003575050
  24837031.099 5   -782784.632 5  25328728.707       -2187.319
 -17130449.337 7 -13294781.586 7  22699804.384       -1759.844
  23486828.266 8 -10329096.013 8  22629676.312        2299.373
 -19186474.064 8 -17113256.980 9  21718686.006       -1021.299
  30063156.486 5  -1346808.246 5  24661525.682        3541.656
 93  5  2  2 20 30.0030000  0  5  3 16 24 20 12                      0.003577220
  24771423.387 5   -833907.550 5  25316248.157       -2186.824
 -17183030.521 7 -13335753.905 7  22689798.569       -1745.620
  23555900.799 8 -10275273.266 8  22642820.122        2305.276
 -19216858.132 8 -17136932.868 9  21712903.989       -1004.339
  30169480.576 5  -1263958.405 5  24681759.296        3546.314
 93  5  2  2 21  0.0030000  0  5  3 16 24 20 12                      0.003579350
  24705829.920 5   -885019.220 5  25303768.918       -2186.218
 -17235171.565 7 -13376383.244 7  22679876.427       -1730.121
  23625140.334 8 -10221320.393 8  22655995.981        2310.708
 -19246734.340 8 -17160213.029 9  21707218.746        -987.272
  30275940.949 5  -1181002.292 5  24702018.307        3550.847
 93  5  2  2 21 30.0030000  0  5  3 16 24 20 12                      0.003581410
  24640248.797 5   -936121.268 5  25291285.097       -2185.932
 -17286832.454 7 -13416638.432 7  22670045.287       -1713.947
  23694530.568 8 -10167250.117 8  22669200.498        2315.487
 -19276102.409 8 -17183097.229 9  21701630.113        -970.436
  30382533.031 5  -1097943.677 5  24722301.067        3555.146
 93  5  2  2 22  0.0030000  0  5  3 16 24 20 12                      0.003583470
  24574680.078 5   -987213.782 5  25278808.860       -2185.487
 -17338012.363 7 -13456518.836 7  22660306.376       -1698.132
  23764072.297 8 -10113061.771 8  22682433.907        2320.672
 -19304960.416 8 -17205583.992 9  21696138.487        -953.395
  30489253.658 5  -1014784.748 5  24742609.303        3559.337
 93  5  2  2 22 30.0030000  0  5  3 16 24 20 12                      0.003585480
  24509118.785 5  -1038300.449 5  25266333.323       -2185.331
 -17388727.572 7 -13496037.136 7  22650655.519       -1682.912
  23833771.365 8 -10058750.799 8  22695697.495        2326.245
 -19333311.249 8 -17227675.533 9  21690743.611        -936.544
  30596095.215 5   -931531.629 5  24762941.413        3563.236
 93  5  2  2 23  0.0030000  0  5  3 16 24 20 12                      0.003587480
  24443567.358 5  -1089379.415 5  25253860.558       -2185.099
 -17438986.166 7 -13535199.627 7  22641091.920       -1667.776
  23903661.764 8 -10004290.772 8  22708997.339        2333.054
 -19361151.361 8 -17249369.119 9  21685445.868        -919.547
  30703056.617 5   -848185.223 5  24783294.660        3567.185
 93  5  2  2 23 30.0030000  0  5  3 16 24 20 12                      0.003589460
  24378022.508 5  -1140453.201 5  25241384.506       -2184.755
 -17488806.547 7 -13574020.657 7  22631611.342       -1653.681
  23973758.896 8  -9949669.642 8  22722336.526        2340.103
 -19388481.629 8 -17270665.422 9  21680245.359        -902.419
  30810131.929 5   -764749.912 5  24803671.464        3570.951
 93  5  2  2 24  0.0030000  0  5  3 16 24 20 12                      0.003591440
  24312489.538 5  -1191517.726 5  25228915.958       -2184.366
 -17538203.672 7 -13612511.888 7  22622211.511       -1639.293
  24044071.101 8  -9894880.934 8  22735716.182        2347.274
 -19415294.555 8 -17291558.604 9  21675143.190        -885.116
  30917323.500 5   -681224.032 5  24824070.260        3574.821
 93  5  2  2 24 30.0030000  0  5  3 16 24 20 12                      0.003593410
  24246968.703 5  -1242572.907 5  25216445.921       -2183.883
 -17587154.797 7 -13650655.586 7  22612896.159       -1624.016
  24114593.707 7  -9839928.254 8  22749135.852        2354.168
 -19441588.628 8 -17312047.487 9  21670139.585        -867.749
  31024628.600 5   -597609.776 5  24844488.708        3578.650
 93  5  2  2 25  0.0030000  0  5  3 16 24 20 12                      0.003595370
  24181455.413 5  -1293622.175 5  25203980.673       -2183.778
 -17635649.041 7 -13688443.273 7  22603668.194       -1608.819
  24185304.420 7  -9784829.007 7  22762591.795        2359.646
 -19467366.234 8 -17332133.919 9  21665234.172        -850.725
  31132039.488 5   -513913.053 5  24864928.678        3581.945
 93  5  2  2 25 30.0030000  0  5  3 16 24 20 12                      0.003597290
  24115951.300 5  -1344664.256 5  25191514.613       -2183.383
 -17683674.217 7 -13725865.447 7  22594529.222       -1592.877
  24256169.341 7  -9729609.618 7  22776076.891        2364.664
 -19492624.376 8 -17351815.585 9  21660427.449        -833.180
  31239554.893 5   -430134.859 5  24885388.714        3585.504
 93  5  2  2 26  0.0030000  0  5  3 16 24 20 12                      0.003599180
  24050456.420 5  -1395699.053 5  25179050.994       -2183.162
 -17731220.999 7 -13762914.830 7  22585481.547       -1576.870
  24327184.472 8  -9674273.147 7  22789590.595        2369.737
 -19517360.525 8 -17371090.504 9  21655720.217        -815.836
  31347172.112 5   -346277.390 5  24905867.097        3588.784
 93  5  2  2 26 30.0030000  0  5  3 16 24 20 12                      0.003601040
  23984975.540 5  -1446723.049 5  25166589.050       -2182.560
 -17778285.667 7 -13799588.581 7  22576525.095       -1561.028
  24398355.027 7  -9618815.583 7  22803134.050        2374.819
 -19541568.731 8 -17389954.031 9  21651113.446        -798.100
  31454892.714 5   -262339.296 5  24926365.100        3592.289
 93  5  2  2 27  0.0030000  0  5  3 16 24 20 12                      0.003602860
  23919505.642 5  -1497738.395 5  25154128.745       -2182.162
 -17824893.848 7 -13835906.603 7  22567655.919       -1545.814
  24469669.501 7  -9563245.884 7  22816704.605        2379.880
 -19565250.069 8 -17408407.016 9  21646607.076        -780.384
  31562710.733 5   -178325.296 5  24946882.401        3595.645
 93  5  2  2 27 30.0030000  0  5  3 16 24 20 12                      0.003604660
  23854045.738 5  -1548746.105 5  25141670.519       -2182.046
 -17871050.302 7 -13871872.616 7  22558872.415       -1531.193
  24541143.627 7  -9507551.780 7  22830305.698        2385.368
 -19588403.642 8 -17426448.743 9  21642201.126        -763.034
  31670622.368 5    -94238.457 5  24967418.066        3598.387
 93  5  2  2 28  0.0030000  0  5  3 16 24 20 12                      0.003606440
  23788593.515 5  -1599747.790 5  25129214.946       -2181.730
 -17916764.218 7 -13907493.815 7  22550173.098       -1516.472
  24612794.773 7  -9451719.720 7  22843940.240        2391.253
 -19611030.520 8 -17444080.062 9  21637895.587        -745.443
  31778621.999 5    -10082.915 5  24987968.909        3601.331
 93  5  2  2 28 30.0030000  0  5  3 16 24 20 12                      0.003608210
  23723145.243 5  -1650746.336 5  25116761.431       -2181.529
 -17962035.973 7 -13942770.455 7  22541558.293       -1501.424
  24684614.056 7  -9395756.654 7  22857606.948        2396.793
 -19633132.004 8 -17461301.979 9  21633689.777        -727.833
  31886703.409 5     74136.350 5  25008535.831        3604.003
 93  5  2  2 29  0.0030000  0  5  3 16 24 20 12                      0.003609950
  23657701.702 5  -1701741.188 5  25104308.158       -2181.416
 -18006851.722 7 -13977691.793 7  22533030.107       -1486.031
  24756602.231 7  -9339662.008 7  22871305.736        2402.659
 -19654706.533 8 -17478113.290 9  21629584.379        -710.263
  31994863.938 5    158417.077 5  25029118.764        3606.566
 93  5  2  2 29 30.0030000  0  5  3 16 24 20 12                      0.003611690
  23592266.238 5  -1752729.734 5  25091856.566       -2181.085
 -18051196.370 7 -14012246.016 7  22524591.880       -1470.116
  24828771.227 7  -9283426.430 7  22885039.438        2408.634
 -19675749.281 8 -17494510.232 9  21625579.913        -692.434
  32103104.017 5    242759.964 5  25049716.156        3609.295
 93  5  2  2 30  0.0030000  0  5  3 16 24 20 12                      0.003613410
  23526841.188 6  -1803710.200 5  25079409.439       -2180.871
 -18095062.828 7 -14046427.626 7  22516243.920       -1454.205
  24901110.045 7  -9227058.528 7  22898805.197        2413.868
 -19696256.093 8 -17510489.554 9  21621677.724        -674.648
  32211422.924 5    327164.225 5  25070327.480        3611.694
 93  5  2  2 30 30.0030000  0  5  3 16 24 20 12                      0.003615120
  23461429.466 5  -1854680.365 5  25066963.870       -2180.192
 -18138433.650 7 -14080223.041 7  22507991.033       -1437.322
  24973607.260 7  -9170567.216 7  22912601.216        2419.207
 -19716221.780 8 -17526047.235 9  21617878.324        -656.432
  32319821.036 5    411630.179 5  25090955.650        3614.450
 93  5  2  2 31  0.0030000  0  5  3 16 24 20 12                      0.003616800
  23396026.973 5  -1905643.258 5  25054518.326       -2179.980
 -18181307.679 7 -14113631.339 7  22499831.959       -1420.806
  25046255.319 7  -9113958.374 7  22926425.365        2424.109
 -19735649.604 8 -17541185.795 9  21614181.194        -638.579
  32428290.587 5    496151.888 5  25111597.602        3616.746
 93  5  2  2 31 30.0030000  0  5  3 16 24 20 12                      0.003618450
  23330635.443 5  -1956597.565 5  25042072.992       -2179.560
 -18223675.282 7 -14146645.010 7  22491769.714       -1403.616
  25119049.104 7  -9057235.944 7  22940277.478        2428.682
 -19754535.844 8 -17555902.337 9  21610587.281        -620.461
  32536830.957 5    580728.674 5  25132251.773        3619.091
 93  5  2  2 32  0.0030000  0  5  3 16 24 20 12                      0.003620080
  23265257.295 6  -2007541.478 5  25029632.400       -2179.084
 -18265523.617 7 -14179254.048 7  22483806.324       -1386.266
  25191971.264 7  -9000413.492 7  22954153.800        2432.868
 -19772876.781 8 -17570193.977 9  21607097.078        -602.246
  32645441.299 5    665360.049 5  25152919.216        3621.507
 93  5  2  2 32 30.0030000  0  5  3 16 24 20 12                      0.003621680
  23199895.003 5  -2058473.026 5  25017194.959       -2178.373
 -18306848.271 7 -14211455.055 7  22475942.048       -1368.618
  25265019.929 7  -8943492.463 7  22968054.376        2437.209
 -19790668.515 8 -17584057.655 9  21603711.441        -583.731
  32754121.250 5    750045.703 5  25173602.270        3623.750
 93  5  2  2 33  0.0030000  0  5  3 16 24 20 12                      0.003623240
  23134548.369 5  -2109392.420 5  25004758.710       -2178.210
 -18347655.037 7 -14243252.479 7  22468177.036       -1351.845
  25338194.398 7  -8886473.434 7  22981979.155        2441.147
 -19807909.631 8 -17597492.290 9  21600430.503        -565.621
  32862867.562 5    834782.939 5  25194294.742        3625.676
 93  5  2  2 33 30.0030000  0  5  3 16 24 20 12                      0.003624760
  23069212.098 5  -2160303.769 5  24992325.725       -2177.764
 -18387960.450 7 -14274659.269 7  22460507.185       -1335.291
  25411486.831 7  -8829362.462 7  22995926.422        2445.036
 -19824604.195 8 -17610501.036 9  21597253.661        -547.282
  32971671.881 5    919565.483 5  25214999.536        3627.718
 93  5  2  2 34  0.0030000  0  5  3 16 24 20 12                      0.003626270
  23003888.266 6  -2211205.365 5  24979896.065       -2177.304
 -18427778.552 7 -14305686.301 7  22452930.089       -1319.133
  25484901.049 7  -8772156.581 7  23009896.810        2449.516
 -19840748.804 8 -17623081.253 9  21594181.429        -528.852
  33080532.860 5   1004392.177 5  25235715.651        3629.584
 93  5  2  2 34 30.0030000  0  5  3 16 24 20 12                      0.003627740
  22938582.536 5  -2262092.848 5  24967467.153       -2176.577
 -18467106.239 7 -14336331.227 7  22445446.031       -1302.564
  25558463.243 7  -8714835.408 7  23023895.179        2454.836
 -19856336.247 8 -17635227.303 9  21591215.212        -510.194
  33189453.780 5   1089265.472 5  25256442.898        3631.604
 93  5  2  2 35  0.0030000  0  5  3 16 24 20 12                      0.003629220
  22873289.984 6  -2312970.071 5  24955043.699       -2176.354
 -18505948.109 7 -14366597.561 7  22438054.688       -1286.658
  25632186.820 7  -8657388.491 7  23037924.568        2460.272
 -19871369.905 8 -17646941.845 9  21588354.542        -491.882
  33298426.776 5   1174179.455 5  25277181.023        3633.178
 93  5  2  2 35 30.0030000  0  5  3 16 24 20 12                      0.003630690
  22808012.449 6  -2363835.612 5  24942624.968       -2175.837
 -18544296.666 7 -14396479.529 7  22430757.011       -1269.768
  25706083.834 7  -8599806.391 7  23051986.883        2466.092
 -19885847.277 8 -17658222.918 9  21585599.599        -473.286
  33407449.940 5   1259132.583 5  25297926.710        3634.754
 93  5  2  2 36  0.0030000  0  5  3 16 24 20 12                      0.003632150
  22742748.389 5  -2414690.714 5  24930203.450       -2175.250
 -18582128.226 7 -14425958.620 7  22423557.863       -1252.304
  25780161.742 7  -8542083.334 7  23066083.192        2472.567
 -19899767.952 8 -17669070.194 9  21582950.625        -454.625
  33516519.595 5   1344121.742 5  25318681.526        3636.467
 93  5  2  2 36 30.0030000  0  5  3 16 24 20 12                      0.003633620
  22677497.505 5  -2465535.495 5  24917783.436       -2174.956
 -18619442.712 8 -14455034.831 7  22416457.140       -1235.318
  25854428.769 7  -8484212.943 7  23080215.718        2478.615
 -19913131.114 8 -17679483.042 9  21580407.692        -436.198
  33625632.179 5   1429144.499 5  25339443.861        3637.686
 93  5  2  2 37  0.0030000  0  5  3 16 24 20 12                      0.003635100
  22612259.549 5  -2516370.136 5  24905368.033       -2174.451
 -18656248.027 7 -14483714.249 7  22409453.478       -1218.298
  25928877.249 7  -8426201.165 7  23094382.692        2484.455
 -19925936.205 8 -17689461.036 9  21577970.762        -417.482
  33734784.057 5   1514197.882 5  25360216.263        3638.950
 93  5  2  2 37 30.0030000  0  5  3 16 24 20 12                      0.003636570
  22547032.483 5  -2567196.308 5  24892954.088       -2174.124
 -18692537.228 8 -14511991.506 7  22402547.739       -1200.860
  26003483.165 7  -8368066.677 7  23108579.784        2489.328
 -19938183.841 8 -17699004.656 9  21575640.023        -398.886
  33843970.689 5   1599278.207 5  25380993.573        3640.056
 93  5  2  2 38  0.0030000  0  5  3 16 24 20 12                      0.003638030
  22481811.299 5  -2618017.894 5  24880545.168       -2173.968
 -18728313.332 7 -14539868.962 7  22395740.102       -1184.106
  26078225.093 7  -8309826.206 7  23122802.814        2493.602
 -19949877.713 8 -17708116.749 9  21573414.797        -380.462
  33953183.966 5   1684379.451 5  25401775.403        3640.794
 93  5  2  2 38 30.0030000  0  5  3 16 24 20 12                      0.003639460
  22416600.074 5  -2668831.873 5  24868135.665       -2173.771
 -18763579.460 7 -14567349.024 7  22389029.308       -1166.773
  26153090.867 7  -8251489.246 7  23137049.433        2497.381
 -19961013.178 8 -17716793.749 9  21571295.703        -361.896
  34062424.561 5   1769501.931 5  25422561.244        3641.655
 93  5  2  2 39  0.0030000  0  5  3 16 24 20 12                      0.003640860
  22351394.995 5  -2719640.879 5  24855727.172       -2173.557
 -18798317.919 8 -14594417.912 7  22382418.494       -1149.062
  26228058.232 7  -8193073.134 7  23151315.286        2500.332
 -19971592.350 8 -17725037.261 9  21569282.746        -343.367
  34171686.427 5   1854640.940 5  25443355.148        3642.262
 93  5  2  2 39 30.0030000  0  5  3 16 24 20 12                      0.003642210
  22286196.005 5  -2770445.193 5  24843317.930       -2173.319
 -18832524.784 7 -14621072.579 7  22375909.031       -1131.545
  26303113.225 7  -8134588.720 7  23165597.851        2503.390
 -19981614.446 8 -17732846.682 9  21567375.686        -324.770
  34280966.078 5   1939793.857 5  25464150.894        3642.738
 93  5  2  2 40  0.0030000  0  5  3 16 24 20 12                      0.003643540
  22221001.764 6  -2821245.790 5  24830913.551       -2173.275
 -18866218.575 7 -14647327.436 7  22369497.238       -1114.832
  26378262.402 7  -8076030.910 7  23179898.230        2506.435
 -19991079.435 8 -17740222.000 9  21565574.743        -306.330
  34390259.215 5   2024957.270 5  25484947.639        3643.063
 93  5  2  2 40 30.0030000  0  5  3 16 24 20 12                      0.003644830
  22155809.210 6  -2872045.120 5  24818509.548       -2173.158
 -18899408.964 8 -14673190.056 7  22363181.611       -1097.877
  26453509.162 7  -8017397.067 7  23194217.106        2509.983
 -19999989.892 8 -17747165.218 9  21563879.255        -287.684
  34499559.041 5   2110125.843 5  25505746.082        3643.356
 93  5  2  2 41  0.0030000  0  4  3 16 24 20                         0.003646020
  22090617.641 6  -2922843.688 5  24806104.490       -2173.083
 -18932098.648 8 -14698662.493 7  22356960.838       -1081.472
  26528852.110 7  -7958688.308 7  23208554.531        2513.038
 -20008344.687 8 -17753675.438 9  21562289.357        -269.171
 93  5  2  2 41 30.0030000  0  4  3 16 24 20                         0.003647250
  22025422.258 6  -2973645.225 5  24793698.773       -2173.367
 -18964300.432 8 -14723754.751 7  22350833.470       -1065.230
  26604291.675 7  -7899904.234 7  23222909.974        2516.365
 -20016147.725 8 -17759755.731 9  21560804.604        -250.911
 93  5  2  2 42  0.0030000  0  4  3 16 24 20                         0.003648430
  21960223.433 6  -3024449.401 5  24781290.344       -2173.330
 -18996000.060 7 -14748455.738 7  22344801.128       -1047.817
  26679830.611 7  -7841042.706 7  23237284.761        2519.636
 -20023398.070 8 -17765405.345 9  21559424.920        -232.275
 93  5  2  2 42 30.0030000  0  5  3 16 24 20 12                      0.003649690
  21895026.274 6  -3075252.263 5  24768882.733       -2173.564
 -19027176.481 8 -14772749.026 7  22338867.963       -1030.653
  26755462.108 7  -7782109.076 7  23251677.349        2522.378
 -20030089.913 8 -17770619.767 9  21558151.333        -213.900
     18212.58715     19876.46711  25588947.108        3642.596
 93  5  2  2 43  0.0030000  0  5  3 16 24 20 12                      0.003650810
  21829826.554 6  -3126057.176 5  24756476.984       -2173.413
 -19057834.288 7 -14796638.183 7  22333034.033       -1013.095
  26831174.722 7  -7723112.242 6  23266084.814        2525.278
 -20036226.528 8 -17775401.527 9  21556983.622        -195.202
    127489.159 5    105034.196 1  25609739.872        3642.296
 93  5  2  2 43 30.0030000  0  5  3 16 24 20 12                      0.003651900
  21764624.093 6  -3176864.278 5  24744070.242       -2173.598
 -19087968.008 8 -14820118.971 8  22327300.061        -995.751
  26906978.938 7  -7664044.052 6  23280509.938        2528.396
 -20041806.821 8 -17779749.815 9  21555921.606        -176.724
    236750.641 5    190172.998 3  25630528.022        3641.685
 93  5  2  2 44  0.0030000  0  5  3 16 24 20 12                      0.003652970
  21699419.548 6  -3227672.944 5  24731661.590       -2173.433
 -19117581.512 8 -14843194.402 7  22321664.653        -978.519
  26982880.058 7  -7604900.321 6  23294953.590        2531.857
 -20046829.628 8 -17783663.684 9  21554965.929        -158.002
    345994.808 5    275298.148 3  25651317.723        3641.158
 93  5  2  2 44 30.0030000  0  5  3 16 24 20 12                      0.003654020
  21634214.516 6  -3278481.967 5  24719253.256       -2173.808
 -19146691.282 8 -14865877.315 7  22316125.049        -962.185
  27058894.916 7  -7545667.944 7  23309418.575        2535.771
 -20051292.417 8 -17787141.175 9  21554116.726        -139.625
    455220.463 5    360409.004 4  25672102.097        3640.159
 93  5  2  2 45  0.0030000  0  5  3 16 24 20 12                      0.003655060
  21569002.911 6  -3329296.134 5  24706844.621       -2173.805
 -19175296.066 8 -14888166.720 8  22310681.745        -944.678
  27135037.728 7  -7486335.923 6  23323907.744        2540.524
 -20055200.159 8 -17790186.172 9  21553373.248        -120.833
    564418.186 5    445498.119 5  25692882.004        3639.520
 93  5  2  2 45 30.0030000  0  5  3 16 24 20 12                      0.003656100
  21503783.370 6  -3380116.535 5  24694431.717       -2174.176
 -19203387.499 8 -14910056.126 8  22305335.907        -927.767
  27211315.797 7  -7426898.496 6  23338422.907        2544.846
 -20058554.003 8 -17792799.551 9  21552735.144        -102.476
    673583.417 5    530561.705 5  25713657.404        3638.227
 93  5  2  2 46  0.0030000  0  5  3 16 24 20 12                      0.003657120
  21438562.561 6  -3430937.904 5  24682022.018       -2174.240
 -19230958.266 8 -14931539.820 8  22300089.418        -910.365
  27287730.488 7  -7367354.555 6  23352963.761        2549.296
 -20061346.093 8 -17794975.198 9  21552203.798         -83.764
    782720.551 5    615603.618 5  25734422.563        3637.242
 93  5  2  2 46 30.0030000  0  5  3 16 24 20 12                      0.003658130
  21373336.157 6  -3481763.619 5  24669610.567       -2174.348
 -19257997.567 8 -14952609.366 8  22294944.151        -892.043
  27364263.485 7  -7307718.441 6  23367527.947        2552.853
 -20063580.773 8 -17796716.512 9  21551778.744         -65.088
    891821.425 5    700617.240 5  25755183.024        3636.040
 93  5  2  2 47  0.0030000  0  5  3 16 24 20 12                      0.003659120
  21308107.459 6  -3532591.098 5  24657198.052       -2174.518
 -19284477.323 8 -14973242.909 8  22289905.172        -873.413
  27440890.696 7  -7248008.973 6  23382109.814        2555.446
 -20065253.540 8 -17798019.949 9  21551460.451         -46.432
   1000886.900 5    785603.153 5  25775941.120        3634.791
 93  5  2  2 47 30.0030000  0  5  3 16 24 20 12                      0.003660070
  21242876.370 6  -3583420.491 5  24644785.323       -2174.576
 -19310400.493 8 -14993442.746 8  22284972.066        -854.944
  27517587.267 7  -7188245.419 6  23396704.389        2557.518
 -20066363.580 8 -17798884.915 9  21551249.110         -27.673
   1109914.095 5    870559.471 5  25796687.997        3633.400
 93  5  2  2 48  0.0030000  0  5  3 16 24 20 12                      0.003660980
  21177643.183 6  -3634251.546 5  24632370.086       -2174.636
 -19335762.269 7 -15013205.147 8  22280145.837        -835.950
  27594343.701 7  -7128435.214 6  23411310.667        2559.517
 -20066910.799 8 -17799311.318 9  21551144.982          -8.875
   1218899.694 5    955483.233 4  25817426.485        3632.023
 93  5  2  2 48 30.0030000  0  5  3 16 24 20 12                      0.003661850
  21112409.911 6  -3685082.567 5  24619957.669       -2174.775
 -19360553.142 8 -15032522.673 8  22275428.282        -817.074
  27671163.755 7  -7068575.415 6  23425929.118        2561.591
 -20066892.541 8 -17799297.092 9  21551148.652           9.888
   1327842.816 5   1040373.801 4  25838160.162        3630.423
 93  5  2  2 49  0.0030000  0  4  3 16 24 20                         0.003662620
  21047171.541 6  -3735917.624 5  24607543.820       -2174.748
 -19384795.540 8 -15051412.808 8  22270815.136        -799.162
  27748052.355 7  -7008662.251 6  23440560.526        2564.381
 -20066312.519 8 -17798845.127 9  21551259.004          28.754
 93  5  2  2 49 30.0030000  0  4  3 16 24 20                         0.003663570
  20981932.179 6  -3786753.501 5  24595129.180       -2174.816
 -19408508.341 7 -15069890.271 8  22266302.219        -781.799
  27825030.229 7  -6948679.509 6  23455208.977        2567.556
 -20065166.409 8 -17797952.064 9  21551476.966          47.598
 93  5  2  2 50  0.0030000  0  4  3 16 24 20                         0.003664460
  20916692.120 6  -3837589.848 5  24582714.202       -2174.629
 -19431703.948 8 -15087964.741 8  22261888.563        -764.564
  27902110.137 7  -6888617.230 6  23469876.702        2571.094
 -20063453.681 8 -17796617.460 9  21551802.868          66.655
 93  5  2  2 50 30.0030000  0  4  3 16 24 20                         0.003665280
  20851449.700 6  -3888428.003 5  24570296.911       -2174.932
 -19454394.464 8 -15105645.633 8  22257570.556        -747.959
  27979286.393 7  -6828479.867 6  23484562.994        2574.000
 -20061175.781 8 -17794842.479 9  21552236.406          85.340
 93  5  2  2 51  0.0030000  0  4  3 16 24 20                         0.003666030
  20786205.316 6  -3939267.710 5  24557881.358       -2174.986
 -19476580.104 8 -15122933.107 8  22253348.968        -731.004
  28056554.970 7  -6768270.584 6  23499266.835        2577.153
 -20058331.302 8 -17792626.008 9  21552777.602         104.212
 93  5  2  2 51 30.0030000  0  5  3 16 24 20 17                      0.003666600
  20720964.973 6  -3990104.349 5  24545466.890       -2174.690
 -19498236.565 8 -15139808.219 8  22249227.850        -712.799
  28133920.295 7  -6707985.945 6  23513989.332        2580.403
 -20054914.361 8 -17789963.452 9  21553427.934         123.470
  16602137.84115   -210920.18711  25102163.244       -3050.821
 93  5  2  2 52  0.0030000  0  5  3 16 24 20 17                      0.003667340
  20655727.525 6  -4040938.642 5  24533052.449       -2174.667
 -19519345.772 8 -15156256.934 8  22245210.430        -694.182
  28211375.109 7  -6647631.542 6  23528728.670        2583.334
 -20050925.603 8 -17786855.321 9  21554186.657         142.570
  16510691.573 5   -282176.960 2  25084761.555       -3045.565
 93  5  2  2 52 30.0030000  0  5  3 16 24 20 17                      0.003668070
  20590487.562 6  -4091774.931 5  24520637.649       -2174.734
 -19539895.186 7 -15172269.421 8  22241300.379        -675.566
  28288912.694 7  -6587212.626 6  23543483.387        2586.069
 -20046370.012 8 -17783305.524 9  21555053.577         161.340
  16419390.770 5   -353320.345 3  25067387.480       -3041.191
 93  5  2  2 53  0.0030000  0  5  3 16 24 20 17                      0.003668770
  20525248.567 6  -4142610.410 5  24508222.587       -2174.748
 -19559884.612 8 -15187845.565 8  22237496.470        -657.107
  28366540.481 7  -6526723.411 6  23558254.990        2589.048
 -20041243.766 8 -17779311.030 9  21556029.022         180.376
  16328218.743 5   -424363.318 4  25050038.480       -3037.092
 93  5  2  2 53 30.0030000  0  5  3 16 24 20 17                      0.003669450
  20460014.907 6  -4193441.778 5  24495808.785       -2174.583
 -19579314.014 8 -15202985.310 8  22233799.212        -638.576
  28444252.050 7  -6466168.958 6  23573042.792        2591.375
 -20035542.548 8 -17774868.540 9  21557113.911         199.460
  16237170.430 5   -495309.918 5  25032712.473       -3033.010
 93  5  2  2 54  0.0030000  0  5  3 16 24 20 17                      0.003670070
  20394782.092 6  -4244272.526 5  24483396.794       -2174.308
 -19598198.558 8 -15217700.500 8  22230205.829        -620.269
  28522028.201 7  -6405564.170 6  23587843.465        2593.740
 -20029270.543 8 -17769981.264 9  21558307.353         218.774
  16146241.628 5   -566163.454 5  25015408.090       -3028.882
 93  5  2  2 54 30.0030000  0  5  3 16 24 20 17                      0.003670650
  20329551.922 6  -4295101.133 5  24470983.208       -2174.432
 -19616546.709 8 -15231997.739 8  22226713.956        -602.804
  28599863.672 7  -6344913.150 6  23602655.333        2595.391
 -20022425.547 8 -17764647.493 9  21559609.883         237.726
  16055430.082 5   -636925.557 5  24998128.376       -3024.994
 93  5  2  2 55  0.0030000  0  5  3 16 24 20 17                      0.003671170
  20264327.907 6  -4345924.973 5  24458571.801       -2174.292
 -19634358.286 8 -15245876.848 8  22223324.652        -584.663
  28677749.043 7  -6284223.229 6  23617476.542        2596.832
 -20015004.095 8 -17758864.537 9  21561022.207         256.945
  15964752.338 5   -707583.421 5  24980871.331       -3020.231
 93  5  2  2 55 30.0030000  0  5  3 16 24 20 17                      0.003671670
  20199103.695 6  -4396748.983 5  24446159.003       -2174.252
 -19651622.444 8 -15259329.400 8  22220039.537        -566.204
  28755673.916 7  -6223502.545 6  23632305.087        2598.400
 -20007012.161 8 -17752637.052 9  21562542.912         275.983
  15874224.190 5   -778124.683 5  24963644.242       -3014.728
 93  5  2  2 56  0.0030000  0  5  3 16 24 20 17                      0.003672150
  20133882.609 6  -4447570.603 5  24433748.038       -2174.062
 -19668333.858 8 -15272351.254 8  22216859.088        -547.707
  28833659.784 7  -6162734.383 6  23647145.035        2600.756
 -19998446.533 8 -17745962.541 9  21564173.034         295.138
  15783872.758 5   -848528.285 5  24946450.846       -3008.690
 93  5  2  2 56 30.0030000  0  5  3 16 24 20 17                      0.003672630
  20068666.997 6  -4498387.889 5  24421338.031       -2173.878
 -19684485.672 8 -15284937.062 8  22213785.308        -529.042
  28911722.054 7  -6101906.644 6  23661999.638        2603.391
 -19989304.473 8 -17738838.850 9  21565912.729         314.345
  15693709.246 5   -918785.458 5  24929293.191       -3002.266
 93  5  2  2 57  0.0030000  0  5  3 16 24 20 17                      0.003673130
  20003454.376 6  -4549202.820 5  24408928.051       -2173.903
 -19700073.745 8 -15297083.576 8  22210818.808        -510.193
  28989868.492 7  -6041013.294 6  23676870.364        2606.286
 -19979589.003 8 -17731268.349 9  21567761.660         333.327
  15603736.708 5   -988893.822 5  24912172.472       -2996.019
 93  5  2  2 57 30.0030000  0  5  3 16 24 20 17                      0.003673650
  19938250.712 6  -4600010.836 5  24396520.361       -2173.518
 -19715086.822 8 -15308782.060 8  22207961.887        -491.092
  29068112.562 7  -5980043.884 6  23691759.547        2609.707
 -19969294.057 8 -17723246.315 9  21569720.532         352.711
  15513959.754 5  -1058849.782 5  24895087.991       -2989.503
 93  5  2  2 58  0.0030000  0  5  3 16 24 20 17                      0.003674190
  19873051.470 6  -4650815.418 5  24384112.911       -2173.381
 -19729538.814 8 -15320043.331 8  22205211.673        -472.471
  29146450.632 7  -5919001.285 6  23706666.986        2612.494
 -19958423.819 8 -17714776.003 9  21571788.901         371.849
  15424364.875 5  -1128663.847 5  24878040.493       -2983.943
 93  5  2  2 58 30.0030000  0  5  3 16 24 20 17                      0.003674700
  19807852.617 6  -4701619.661 5  24371704.658       -2173.186
 -19743433.841 8 -15330870.603 8  22202567.752        -453.682
  29224857.874 7  -5857904.726 6  23721587.477        2614.848
 -19946982.767 8 -17705860.892 9  21573965.824         391.139
  15334920.203 5  -1198360.901 5  24861018.995       -2978.729
 93  5  2  2 59  0.0030000  0  5  3 16 24 20 17                      0.003675180
  19742661.351 6  -4752417.993 5  24359300.221       -2173.051
 -19756769.478 8 -15341261.983 8  22200029.950        -435.308
  29303329.704 7  -5796757.852 6  23736520.299        2616.587
 -19934963.618 8 -17696495.331 9  21576252.833         410.273
  15245626.650 5  -1267940.180 5  24844025.880       -2973.963
 93  5  2  2 59 30.0030000  0  5  3 16 24 20 17                      0.003675630
  19677477.446 6  -4803210.628 5  24346896.871       -2172.729
 -19769557.924 8 -15351226.974 8  22197596.584        -417.321
  29381851.001 7  -5735572.426 6  23751462.215        2618.337
 -19922366.791 8 -17686679.630 9  21578650.142         429.611
  15156480.688 5  -1337404.478 5  24827062.620       -2969.088
 93  5  2  3  0  0.0030000  0  5  3 16 24 20 17                      0.003676030
  19612301.422 6  -4853997.127 5  24334494.682       -2172.542
 -19781812.236 8 -15360775.766 8  22195264.799        -399.454
  29460424.639 7  -5674346.265 6  23766414.163        2619.973
 -19909192.038 8 -17676413.577 9  21581156.956         448.800
  15067475.750 5  -1406758.828 5  24810124.918       -2964.689
 93  5  2  3  0 30.0030000  0  5  3 16 24 20 17                      0.003676400
  19547131.470 6  -4904778.815 5  24322093.509       -2172.179
 -19793525.597 8 -15369903.032 8  22193035.893        -381.178
  29539049.724 7  -5613079.962 6  23781376.227        2622.032
 -19895441.130 8 -17665698.589 9  21583773.895         468.159
  14978608.974 5  -1476005.576 5  24793214.445       -2959.413
 93  5  2  3  1  0.0030000  0  5  3 16 24 20 17                      0.003676740
  19481972.209 6  -4955552.224 5  24309694.330       -2172.082
 -19804682.677 8 -15378596.837 8  22190912.551        -362.538
  29617745.380 7  -5551758.669 6  23796351.579        2624.400
 -19881110.038 8 -17654531.509 9  21586501.145         487.220
  14889903.026 5  -1545127.050 5  24776333.783       -2954.270
 93  5  2  3  1 30.0030000  0  5  3 16 24 20 17                      0.003677070
  19416819.005 6  -5006320.972 5  24297295.992       -2171.820
 -19815267.058 8 -15386844.360 8  22188898.667        -343.248
  29696518.290 7  -5490377.167 6  23811341.610        2627.152
 -19866203.459 8 -17642915.992 9  21589337.742         506.445
  14801353.406 5  -1614126.616 5  24759484.208       -2949.092
 93  5  2  3  2  0.0030000  0  5  3 16 24 20 17                      0.003677400
  19351676.505 6  -5057081.270 5  24284899.204       -2171.537
 -19825269.194 8 -15394638.217 8  22186995.042        -323.764
  29775378.210 6  -5428927.933 6  23826348.031        2629.724
 -19850717.354 8 -17630848.901 9  21592284.862         525.680
  14712965.836 5  -1682999.966 5  24742665.017       -2943.804
 93  5  2  3  2 30.0030000  0  5  3 16 24 20 17                      0.003677700
  19286540.078 6  -5107836.871 5  24272504.055       -2171.145
 -19834685.848 8 -15401975.843 8  22185203.015        -304.184
  29854306.201 7  -5367425.605 6  23841367.216        2631.995
 -19834656.078 8 -17618333.623 9  21595341.126         545.022
  14624737.439 5  -1751749.301 5  24725875.053       -2938.178
 93  5  2  3  3  0.0030000  0  5  3 16 24 20 17                      0.003678000
  19221412.619 6  -5158585.514 5  24260111.035       -2170.865
 -19843522.282 8 -15408861.366 8  22183521.496        -285.000
  29933291.821 6  -5305878.355 6  23856397.849        2633.658
 -19818017.652 8 -17605368.633 9  21598507.076         564.223
  14536678.059 5  -1820366.862 5  24709119.114       -2932.564
 93  5  2  3  3 30.0030000  0  5  3 16 24 20 17                      0.003678250
  19156294.236 6  -5209327.088 5  24247720.281       -2170.540
 -19851796.807 8 -15415308.995 8  22181946.528        -266.759
  30012317.224 6  -5244300.099 6  23871435.847        2634.675
 -19800802.406 8 -17591954.157 9  21601782.907         583.491
  14448789.426 5  -1888851.461 5  24692391.876       -2926.724
 93  5  2  3  4  0.0030000  0  5  3 16 24 20 17                      0.003678490
  19091184.307 6  -5260062.036 5  24235328.789       -2170.275
 -19859527.264 8 -15421332.702 8  22180475.734        -248.454
  30091369.384 6  -5182701.062 6  23886479.194        2635.458
 -19783011.093 8 -17578090.799 9  21605168.454         602.666
  14361069.057 5  -1957204.918 5  24675700.405       -2921.145
 93  5  2  3  4 30.0030000  0  5  3 16 24 20 17                      0.003678700
  19026081.163 6  -5310791.678 5  24222940.047       -2170.070
 -19866704.529 8 -15426925.352 8  22179109.663        -229.953
  30170449.207 6  -5121080.422 6  23901527.349        2636.646
 -19764645.729 8 -17563780.135 9  21608663.105         621.779
  14273524.753 6  -2025421.160 5  24659040.881       -2914.947
 93  5  2  3  5  0.0030000  0  5  3 16 24 20 17                      0.003678900
  18960990.293 6  -5361511.819 5  24210553.711       -2169.792
 -19873317.260 8 -15432078.100 8  22177851.434        -211.145
  30249577.951 6  -5059421.645 6  23916585.623        2638.401
 -19745701.620 8 -17549018.494 9  21612268.398         640.903
  14186172.829 6  -2093487.481 5  24642418.124       -2908.849
 93  5  2  3  5 30.0030000  0  5  3 16 24 20 17                      0.003679090
  18895908.266 6  -5412225.064 5  24198168.484       -2169.420
 -19879363.627 8 -15436789.531 8  22176700.928        -192.057
  30328758.900 6  -4997722.185 6  23931652.981        2640.145
 -19726182.823 8 -17533809.048 9  21615982.798         660.103
  14098995.845 5  -2161417.483 5  24625828.785       -2903.148
 93  5  2  3  6  0.0030000  0  5  3 16 24 20 17                      0.003679260
  18830836.681 6  -5462930.122 5  24185786.038       -2168.964
 -19884826.180 8 -15441046.046 8  22175661.170        -172.121
  30408000.214 6  -4935975.708 6  23946732.264        2642.524
 -19706088.263 8 -17518150.954 9  21619806.760         679.485
  14011988.276 5  -2229215.546 5  24609271.187       -2897.247
 93  5  2  3  6 30.0030000  0  5  3 16 24 20 17                      0.003679430
  18765775.421 6  -5513627.137 5  24173405.321       -2168.803
 -19889695.067 8 -15444839.944 8  22174734.810        -152.593
  30487304.990 6  -4874179.821 6  23961823.163        2644.346
 -19685418.403 8 -17502044.594 9  21623740.287         698.422
  13925160.048 6  -2296873.803 5  24592748.154       -2891.554
 93  5  2  3  7  0.0030000  0  5  3 16 24 20 17                      0.003679580
  18700720.756 6  -5564319.045 5  24161025.541       -2168.513
 -19893976.532 8 -15448176.137 8  22173920.003        -133.013
  30566660.545 6  -4812344.314 6  23976924.359        2645.814
 -19664177.934 8 -17485493.577 9  21627782.076         717.495
  13838495.314 6  -2364404.662 5  24576256.623       -2886.306
 93  5  2  3  7 30.0030000  0  5  3 16 24 20 17                      0.003679700
  18635675.531 6  -5615003.599 5  24148648.311       -2168.201
 -19897672.067 8 -15451055.739 8  22173216.611        -113.400
  30646053.402 6  -4750479.723 6  23992032.181        2646.918
 -19642364.442 8 -17468496.042 9  21631932.914         736.594
  13751992.176 6  -2431809.567 5  24559796.605       -2880.636
 93  5  2  3  8  0.0030000  0  5  3 16 24 20 17                      0.003679790
  18570637.542 6  -5665682.497 5  24136271.846       -2167.999
 -19900777.628 8 -15453475.640 8  22172625.969         -93.846
  30725485.758 6  -4688584.386 6  24007147.187        2648.409
 -19619981.334 8 -17451054.670 9  21636192.296         755.495
  13665662.865 6  -2499079.062 5  24543367.732       -2874.698
 93  5  2  3  8 30.0030000  0  5  3 16 24 20 17                      0.003679880
  18505607.626 6  -5716355.070 5  24123896.753       -2167.739
 -19903303.451 8 -15455443.794 8  22172145.382         -74.799
  30804963.631 6  -4626653.610 6  24022271.205        2649.951
 -19597028.054 8 -17433168.986 9  21640560.211         774.540
  13579518.676 6  -2566204.313 5  24526975.209       -2868.624
 93  5  2  3  9  0.0030000  0  5  3 16 24 20 17                      0.003679950
  18440584.867 6  -5767022.101 5  24111523.788       -2167.445
 -19905266.859 8 -15456973.697 8  22171771.912         -56.274
  30884486.389 6  -4564687.817 6  24037403.912        2651.498
 -19573506.128 8 -17414840.233 9  21645036.364         793.530
  13493547.891 6  -2633194.398 5  24510615.911       -2862.829
 93  5  2  3  9 30.0030000  0  5  3 16 24 20 17                      0.003680010
  18375571.572 6  -5817681.789 5  24099152.158       -2166.962
 -19906678.566 8 -15458073.703 8  22171503.487         -37.796
  30964060.106 6  -4502682.309 6  24052546.568        2653.565
 -19549414.522 8 -17396067.554 9  21649621.038         812.693
  13407758.284 6  -2700043.334 5  24494291.210       -2856.387
 93  5  2  3 10  0.0030000  0  5  3 16 24 20 17                      0.003680070
  18310566.521 6  -5868334.997 5  24086782.024       -2166.770
 -19907554.155 8 -15458755.967 8  22171336.652         -20.502
  31043692.731 6  -4440630.888 6  24067700.477        2655.420
 -19524755.245 8 -17376852.532 9  21654313.312         831.463
  13322149.703 6  -2766751.224 5  24477999.405       -2850.681
 93  5  2  3 10 30.0030000  0  5  3 16 24 20 17                      0.003680110
  18245566.025 6  -5918984.672 5  24074412.691       -2166.596
 -19907919.464 8 -15459040.600 8  22171267.112          -3.516
  31123368.828 6  -4378545.643 5  24082862.519        2656.502
 -19499532.455 8 -17357198.408 9  21659113.047         850.318
  13236709.771 6  -2833327.707 5  24461740.720       -2845.116
 93  5  2  3 11  0.0030000  0  5  3 16 24 20 17                      0.003680110
  18180575.161 6  -5969626.887 5  24062045.614       -2166.167
 -19907762.231 8 -15458918.060 8  22171297.322          14.352
  31203078.335 6  -4316434.385 5  24098030.736        2657.625
 -19473742.471 8 -17337102.320 9  21664020.801         869.283
  13151439.109 6  -2899772.243 5  24445513.536       -2839.241
 93  5  2  3 11 30.0030000  0  5  3 16 24 20 17                      0.003680110
  18115595.666 6  -6020260.228 5  24049680.772       -2165.904
 -19907065.687 8 -15458375.268 8  22171429.728          32.391
  31282817.098 6  -4254300.253 5  24113204.484        2658.412
 -19447384.699 8 -17316563.792 9  21669036.469         888.065
  13066350.942 6  -2966074.573 5  24429322.420       -2833.210
 93  5  2  3 12  0.0030000  0  5  3 16 24 20 17                      0.003680080
  18050623.122 6  -6070888.128 5  24037316.332       -2165.751
 -19905820.329 8 -15457404.841 8  22171666.786          50.856
  31362577.720 6  -4192149.079 6  24128382.368        2658.917
 -19420463.766 8 -17295586.455 9  21674159.561         906.722
  12981439.003 6  -3032239.612 5  24413163.916       -2827.517
 93  5  2  3 12 30.0030000  0  5  3 16 24 20 17                      0.003680030
  17985661.284 6  -6121507.675 6  24024954.288       -2165.275
 -19904003.670 8 -15455989.247 8  22172012.535          70.302
  31442356.044 6  -4129984.146 6  24143563.818        2659.591
 -19392976.955 8 -17274168.152 9  21679390.299         925.677
  12896709.443 6  -3098262.542 5  24397040.875       -2821.160
 93  5  2  3 13  0.0030000  0  5  3 16 24 20 17                      0.003679950
  17920708.693 6  -6172120.083 5  24012594.697       -2165.028
 -19901597.242 8 -15454114.089 8  22172470.318          90.089
  31522160.166 6  -4067799.173 5  24158749.803        2660.673
 -19364926.981 8 -17252311.031 9  21684728.166         944.419
  12812161.182 6  -3164144.196 5  24380951.262       -2815.434
 93  5  2  3 13 30.0030000  0  5  3 16 24 20 17                      0.003679850
  17855769.858 6  -6222721.755 5  24000237.230       -2164.407
 -19898595.854 8 -15451775.329 8  22173041.423         109.978
  31601999.829 6  -4005586.448 5  24173942.560        2662.074
 -19336310.735 8 -17230012.686 9  21690173.486         963.406
  12727784.757 6  -3229891.978 5  24364894.852       -2809.650
 93  5  2  3 14  0.0030000  0  5  3 16 24 20 17                      0.003679720
  17790843.273 6  -6273313.855 6  23987881.765       -2163.932
 -19895011.328 8 -15448982.172 8  22173723.329         129.204
  31681878.496 6  -3943343.297 5  24189142.756        2663.434
 -19307130.720 8 -17207275.009 9  21695726.133         982.250
  12643569.449 6  -3295514.177 5  24348869.715       -2804.218
 93  5  2  3 14 30.0030000  0  5  3 16 24 20 17                      0.003679560
  17725928.321 6  -6323896.889 5  23975528.987       -2163.800
 -19890855.826 8 -15445744.112 8  22174514.072         147.920
  31761795.404 6  -3881070.356 5  24204350.327        2664.500
 -19277388.569 8 -17184099.308 9  21701385.703        1000.723
  12559518.621 6  -3361008.243 5  24332875.171       -2799.076
 93  5  2  3 15  0.0030000  0  5  3 16 24 20 17                      0.003679370
  17661024.729 6  -6374471.111 5  23963177.867       -2163.348
 -19886134.261 8 -15442064.936 8  22175412.512         166.744
  31841745.556 6  -3818771.550 5  24219564.934        2665.477
 -19247085.639 8 -17160486.646 9  21707151.971        1019.434
  12475629.924 6  -3426375.974 5  24316911.085       -2793.507
 93  5  2  3 15 30.0030000  0  5  3 16 24 20 17                      0.003679160
  17596137.924 6  -6425032.217 5  23950830.017       -2162.697
 -19880848.536 8 -15437946.165 8  22176418.164         185.558
  31921722.687 6  -3756451.740 5  24234783.489        2666.508
 -19216218.002 8 -17136433.949 9  21713025.946        1038.368
  12391930.102 6  -3491596.561 5  24300984.407       -2786.334
 93  5  2  3 16  0.0030000  0  5  3 16 24 20 17                      0.003678970
  17531269.673 6  -6475578.854 6  23938486.476       -2162.083
 -19875000.328 8 -15433389.106 8  22177530.966         204.515
  32001735.613 6  -3694103.986 5  24250009.019        2667.654
 -19184784.926 8 -17111940.637 9  21719007.204        1057.195
  12308447.679 6  -3556647.685 5  24285098.725       -2778.956
 93  5  2  3 16 30.0030000  0  5  3 16 24 20 17                      0.003678790
  17466419.955 6  -6526111.100 5  23926145.851       -2161.404
 -19868570.503 8 -15428378.833 8  22178754.348         224.333
  32081774.346 6  -3631736.095 5  24265240.373        2668.261
 -19152787.731 8 -17087007.761 9  21725096.338        1076.020
  12225192.062 6  -3621522.162 5  24269255.494       -2771.535
 93  5  2  3 17  0.0030000  0  5  3 16 24 20 17                      0.003678620
  17401591.374 6  -6576626.816 5  23913809.477       -2160.598
 -19861542.277 8 -15422902.273 8  22180091.673         244.315
  32161830.109 6  -3569354.983 5  24280474.911        2669.044
 -19120225.574 8 -17061634.662 9  21731292.930        1094.917
  12142162.872 6  -3686220.134 5  24253455.455       -2763.709
 93  5  2  3 17 30.0030000  0  5  3 16 24 20 17                      0.003678450
  17336786.738 6  -6627123.871 6  23901477.576       -2159.968
 -19853918.409 8 -15416961.568 8  22181542.469         263.842
  32241917.041 6  -3506949.618 5  24295714.817        2670.010
 -19087096.385 8 -17035819.703 9  21737596.993        1113.648
  12059355.408 6  -3750745.339 5  24237697.099       -2756.918
 93  5  2  3 18  0.0030000  0  5  3 16 24 20 17                      0.003678260
  17272003.736 6  -6677604.093 6  23889149.472       -2159.139
 -19845709.982 8 -15410565.374 8  22183104.426         283.514
  32322032.579 6  -3444521.928 5  24310960.152        2670.844
 -19053404.443 8 -17009566.253 9  21744008.558        1132.491
  11976738.690 6  -3815121.918 5  24221975.252       -2750.931
 93  5  2  3 18 30.0030000  0  5  3 16 24 20 17                      0.003678030
  17207247.902 6  -6728063.163 6  23876826.688       -2158.298
 -19836911.329 8 -15403709.265 8  22184778.678         302.729
  32402161.207 6  -3382083.996 5  24326208.366        2670.978
 -19019145.163 8 -16982870.714 9  21750527.902        1151.316
  11894304.611 6  -3879356.206 5  24206288.357       -2744.957
 93  5  2  3 19  0.0030000  0  5  3 16 24 20 17                      0.003677760
  17142512.401 6  -6778506.350 6  23864508.247       -2157.420
 -19827554.506 8 -15396418.198 8  22186559.364         321.163
  32482302.358 6  -3319636.306 5  24341458.640        2671.928
 -18984327.262 8 -16955739.883 9  21757153.678        1170.071
  11812041.743 6  -3943457.046 5  24190634.291       -2738.908
 93  5  2  3 19 30.0030000  0  5  3 16 24 20 17                      0.003677470
  17077805.942 6  -6828926.897 6  23852194.535       -2156.713
 -19817640.778 8 -15388693.184 8  22188445.980         339.669
  32562476.347 6  -3257163.076 5  24356714.665        2672.692
 -18948943.222 8 -16928167.902 9  21763886.764        1188.719
  11729962.753 6  -4007414.579 5  24175015.451       -2733.076
 93  5  2  3 20  0.0030000  0  5  3 16 24 20 17                      0.003677150
  17013120.636 7  -6879330.970 6  23839885.599       -2156.030
 -19807166.894 8 -15380531.695 8  22190439.326         358.556
  32642663.983 6  -3194679.268 5  24371973.636        2673.012
 -18913002.389 8 -16900162.074 9  21770726.091        1207.233
  11648068.879 6  -4071227.926 5  24159431.134       -2726.518
 93  5  2  3 20 30.0030000  0  5  3 16 24 20 17                      0.003676810
  16948457.762 7  -6929717.577 6  23827580.301       -2155.142
 -19796122.029 8 -15371925.290 8  22192541.333         377.653
  32722863.262 6  -3132186.278 5  24387235.427        2673.701
 -18876505.052 8 -16871722.591 9  21777671.069        1225.903
  11566376.090 6  -4134884.560 5  24143885.334       -2719.627
 93  5  2  3 21  0.0030000  0  5  3 16 24 20 17                      0.003676470
  16883823.214 7  -6980082.127 6  23815280.536       -2154.226
 -19784501.597 8 -15362870.395 8  22194752.472         397.006
  32803095.652 6  -3069667.495 5  24402503.917        2674.884
 -18839447.091 8 -16842846.264 9  21784723.090        1244.511
  11484888.764 6  -4198381.073 5  24128377.549       -2712.909
 93  5  2  3 21 30.0030000  0  5  3 16 24 20 17                      0.003676110
  16819215.299 7  -7030425.888 6  23802986.306       -2153.329
 -19772296.202 8 -15353359.666 8  22197075.153         416.465
  32883356.624 6  -3007126.452 5  24417777.436        2675.669
 -18801831.490 8 -16813535.409 9  21791881.164        1263.073
  11403599.703 6  -4261723.140 5  24112909.111       -2706.478
 93  5  2  3 22  0.0030000  0  5  3 16 24 20 17                      0.003675730
  16754635.365 7  -7080747.849 6  23790697.365       -2152.192
 -19759515.782 8 -15343400.883 8  22199507.059         435.481
  32963638.711 6  -2944569.039 5  24433054.190        2676.509
 -18763658.793 8 -16783790.455 9  21799145.246        1281.844
  11322510.888 6  -4324909.110 5  24097477.717       -2699.517
 93  5  2  3 22 30.0030000  0  5  3 16 24 20 17                      0.003675340
  16690083.273 7  -7131048.148 6  23778414.010       -2151.331
 -19746181.757 8 -15333010.713 8  22202044.296         453.597
  33043941.863 6  -2881995.180 5  24448334.552        2677.205
 -18724930.715 8 -16753612.746 9  21806515.192        1300.195
  11241614.825 6  -4387944.890 5  24082084.286       -2693.387
 93  5  2  3 23  0.0030000  0  5  3 16 24 20 17                      0.003674940
  16625565.011 7  -7181322.076 6  23766136.726       -2150.206
 -19732302.214 8 -15322195.469 8  22204685.287         471.680
  33124275.828 6  -2819397.256 5  24463621.731        2678.199
 -18685643.066 8 -16722998.989 9  21813991.309        1318.900
  11160911.956 6  -4450830.187 5  24066727.860       -2686.836
 93  5  2  3 23 30.0030000  0  5  3 16 24 20 17                      0.003674520
  16561078.024 7  -7231571.629 6  23753864.562       -2149.173
 -19717886.226 8 -15310962.197 8  22207428.430         489.334
  33204625.064 6  -2756787.403 5  24478911.482        2678.379
 -18645800.212 8 -16691952.610 9  21821573.189        1337.335
  11080405.545 6  -4513562.340 5  24051408.103       -2680.166
 93  5  2  3 24  0.0030000  0  5  3 16 24 20 17                      0.003674100
  16496619.187 7  -7281799.252 6  23741598.315       -2148.349
 -19702941.592 8 -15299317.020 8  22210272.229         507.174
  33284976.148 6  -2694176.187 5  24494202.486        2678.423
 -18605406.922 8 -16660477.318 9  21829259.389        1355.544
  11000103.740 6  -4576135.098 5  24036126.475       -2673.315
 93  5  2  3 24 30.0030000  0  5  3 16 24 20 17                      0.003673660
  16432194.568 7  -7332000.234 6  23729338.502       -2147.230
 -19687435.446 8 -15287234.296 8  22213222.907         526.279
  33365347.540 6  -2631549.192 5  24509496.389        2679.239
 -18564459.207 8 -16628570.023 9  21837051.552        1373.961
  10920010.145 6  -4638545.590 5  24020885.308       -2666.322
 93  5  2  3 25  0.0030000  0  5  3 16 24 20 17                      0.003673230
  16367797.895 7  -7382179.393 6  23717084.427       -2146.148
 -19671358.453 8 -15274706.764 8  22216282.267         545.604
  33445737.402 6  -2568907.697 5  24524793.785        2680.171
 -18522965.115 8 -16596236.957 9  21844947.759        1392.295
  10840131.745 6  -4700788.399 5  24005684.965       -2658.800
 93  5  2  3 25 30.0030000  0  5  3 16 24 20 17                      0.003672810
  16303435.943 7  -7432331.540 6  23704837.074       -2144.944
 -19654695.395 8 -15261722.531 8  22219453.373         565.279
  33526162.054 6  -2506239.089 5  24540098.246        2681.539
 -18480919.510 8 -16563474.146 9  21852949.117        1410.702
  10760483.690 6  -4762851.777 5  23990528.513       -2651.033
 93  5  2  3 26  0.0030000  0  5  3 16 24 20 17                      0.003672430
  16239111.177 7  -7482454.727 6  23692596.564       -2143.802
 -19637435.218 8 -15248273.031 8  22222738.107         585.267
  33606641.136 6  -2443528.096 5  24555412.644        2683.670
 -18438322.102 8 -16530281.373 9  21861055.128        1429.013
  10681071.175 6  -4824731.587 5  23975417.561       -2643.353
 93  5  2  3 26 30.0030000  0  5  3 16 24 20 17                      0.003672090
  16174820.242 7  -7532551.524 6  23680362.298       -2142.592
 -19619584.929 8 -15234363.694 8  22226134.870         604.409
  33687180.481 6  -2380770.191 5  24570739.406        2685.416
 -18395178.236 8 -16496662.785 9  21869265.092        1447.211
  10601890.056 6  -4886431.093 5  23960350.152       -2635.457
 93  5  2  3 27  0.0030000  0  5  3 16 24 20 17                      0.003671770
  16110564.412 7  -7582620.957 6  23668134.751       -2141.382
 -19601179.302 8 -15220021.641 8  22229637.482         622.699
  33767761.521 6  -2317979.805 5  24586073.049        2686.517
 -18351488.447 8 -16462618.810 9  21877578.839        1465.378
  10522945.216 6  -4947946.463 5  23945327.167       -2627.623
 93  5  2  3 27 30.0030000  0  5  3 16 24 20 17                      0.003671480
  16046342.339 7  -7632664.130 6  23655913.420       -2140.249
 -19582216.839 8 -15205245.678 8  22233245.792         641.616
  33848362.608 6  -2255173.736 5  24601410.884        2686.745
 -18307256.219 8 -16428152.122 9  21885995.770        1483.468
  10444233.072 6  -5009280.564 5  23930347.941       -2619.931
 93  5  2  3 28  0.0030000  0  5  3 16 24 20 17                      0.003671170
  15982156.498 7  -7682679.065 6  23643699.368       -2138.922
 -19562682.038 8 -15190023.730 8  22236963.222         660.678
  33928964.863 6  -2192366.742 5  24616749.118        2686.723
 -18262481.082 8 -16393262.418 9  21894516.102        1501.669
  10365747.708 6  -5070437.905 5  23915412.296       -2612.391
 93  5  2  3 28 30.0030000  0  5  3 16 24 20 17                      0.003670850
  15918007.538 7  -7732665.222 6  23631492.230       -2137.734
 -19542586.664 8 -15174364.993 8  22240787.234         679.145
  34009550.432 6  -2129572.755 5  24632084.403        2685.811
 -18217164.718 8 -16357950.982 9  21903139.422        1519.577
  10287480.371 6  -5131425.410 5  23900518.745       -2605.423
 93  5  2  3 29  0.0030000  0  5  3 16 24 20 17                      0.003670470
  15853892.010 7  -7782625.360 6  23619291.186       -2136.685
 -19521927.377 8 -15158266.836 8  22244718.453         698.484
  34090108.917 6  -2066799.962 5  24647413.982        2684.977
 -18171312.568 8 -16322222.027 9  21911864.931        1537.398
  10209410.526 6  -5192258.976 5  23885663.090       -2599.165
 93  5  2  3 29 30.0030000  0  5  3 16 24 20 17                      0.003670030
  15789815.542 7  -7832555.060 6  23607097.963       -2135.631
 -19500674.385 8 -15141706.036 8  22248762.702         717.871
  34170657.176 6  -2004035.105 5  24662741.660        2684.749
 -18124921.049 8 -16286072.796 9  21920693.150        1555.069
  10131525.806 6  -5252948.331 5  23870841.859       -2593.602
 93  5  2  3 30  0.0030000  0  5  3 16 24 20 17                      0.003669530
  15725770.571 7  -7882460.193 6  23594910.823       -2134.322
 -19478860.273 8 -15124708.006 8  22252913.599         736.270
  34251208.694 6  -1941267.646 5  24678070.072        2685.420
 -18077999.601 8 -16249510.649 8  21929621.999        1573.000
  10053801.696 6  -5313512.503 5  23856051.021       -2587.957
 93  5  2  3 30 30.0030000  0  5  3 16 24 20 17                      0.003669000
  15661763.255 7  -7932335.995 6  23582730.936       -2133.048
 -19456501.569 8 -15107285.630 8  22257168.445         754.518
  34331778.201 6  -1878486.167 5  24693402.090        2685.899
 -18030544.510 8 -16212532.667 9  21938652.777        1590.704
   9976248.093 6  -5373943.867 5  23841292.506       -2582.289
 93  5  2  3 31  0.0030000  0  5  3 16 24 20 17                      0.003668440
  15597791.787 7  -7982183.886 6  23570557.314       -2131.882
 -19433588.380 8 -15089431.200 8  22261528.583         772.948
  34412358.386 6  -1815696.412 5  24708736.166        2686.183
 -17982559.885 8 -16175142.052 8  21947783.784        1608.278
   9898869.356 6  -5434238.934 5  23826568.333       -2576.211
 93  5  2  3 31 30.0030000  0  5  3 16 24 20 17                      0.003667860
  15533855.837 7  -8032004.060 6  23558390.474       -2130.740
 -19410132.880 8 -15071154.137 8  22265992.154         790.699
  34492948.856 6  -1752898.694 5  24724072.092        2686.409
 -17934048.312 8 -16137340.828 8  21957014.986        1625.787
   9821682.749 6  -5494384.304 5  23811879.961       -2569.458
 93  5  2  3 32  0.0030000  0  5  3 16 24 20 17                      0.003667280
  15469956.284 7  -8081795.863 6  23546230.843       -2129.559
 -19386139.398 8 -15052457.917 8  22270557.974         808.841
  34573538.217 6  -1690101.757 5  24739407.176        2685.957
 -17885011.304 8 -16099130.188 8  21966346.544        1643.219
   9744714.529 6  -5554359.497 5  23797233.519       -2561.686
 93  5  2  3 32 30.0030000  0  5  3 16 24 20 17                      0.003666700
  15406096.421 7  -8131556.780 6  23534078.509       -2128.153
 -19361584.859 8 -15033324.508 8  22275230.218         827.962
  34654105.283 6  -1627322.197 5  24754738.456        2684.980
 -17835447.768 8 -16060509.249 8  21975778.214        1660.813
   9667988.885 6  -5614145.654 5  23782633.143       -2553.539
 93  5  2  3 33  0.0030000  0  5  3 16 24 20 17                      0.003666090
  15342274.225 7  -8181288.350 6  23521933.855       -2127.110
 -19336462.607 8 -15013748.705 8  22280011.050         846.523
  34734647.120 6  -1564562.297 5  24770065.499        2684.494
 -17785362.190 8 -16021481.536 8  21985309.307        1678.070
   9591505.352 6  -5673743.165 5  23768078.791       -2545.435
 93  5  2  3 33 30.0030000  0  5  3 16 24 20 17                      0.003665500
  15278485.823 7  -8230993.542 6  23509794.978       -2125.664
 -19310794.003 8 -14993747.178 8  22284895.378         864.994
  34815182.259 6  -1501807.681 5  24785391.083        2684.643
 -17734760.537 8 -15982051.695 8  21994938.222        1695.468
   9515268.818 6  -5733148.209 5  23753572.064       -2536.901
 93  5  2  3 34  0.0030000  0  5  3 16 24 20 17                      0.003664920
  15214736.805 7  -8280668.060 6  23497663.773       -2124.547
 -19284566.815 7 -14973310.387 8  22289886.363         883.356
  34895718.163 6  -1439052.479 5  24800716.514        2684.486
 -17683640.384 8 -15942217.808 8  22004665.869        1712.549
   9439286.336 6  -5792355.302 5  23739112.509       -2528.819
 93  5  2  3 34 30.0030000  0  5  3 16 24 20 17                      0.003664350
  15151026.843 7  -8330312.158 6  23485540.120       -2123.043
 -19257788.385 8 -14952444.068 8  22294982.223         901.800
  34976265.607 6  -1376288.168 5  24816043.680        2685.559
 -17632004.065 8 -15901981.729 8  22014491.796        1729.840
   9363534.466 6  -5851382.678 5  23724697.694       -2521.458
 93  5  2  3 35  0.0030000  0  5  3 16 24 20 17                      0.003663790
  15087358.328 7  -8379923.924 6  23473424.605       -2121.842
 -19230463.756 8 -14931152.143 8  22300181.946         919.651
  35056851.640 6  -1313493.816 5  24831378.607        2686.650
 -17579851.597 8 -15861343.435 8  22024416.324        1746.865
   9287995.882 6  -5910243.865 5  23710321.783       -2514.584
 93  5  2  3 35 30.0030000  0  5  3 16 24 20 17                      0.003663240
  15023725.978 7  -8429507.524 6  23461315.558       -2120.470
 -19202604.464 8 -14909443.582 8  22305483.594         937.958
  35137458.855 6  -1250682.984 5  24846717.759        2687.052
 -17527190.617 8 -15820308.914 8  22034437.636        1763.937
   9212648.217 6  -5968956.263 5  23695984.812       -2508.611
 93  5  2  3 36  0.0030000  0  5  3 16 24 20 17                      0.003662640
  14960126.963 7  -8479065.165 6  23449213.090       -2119.503
 -19174197.202 8 -14887308.039 8  22310889.193         955.842
  35218058.667 6  -1187878.035 5  24862055.055        2686.524
 -17474026.653 8 -15778882.463 8  22044554.361        1780.505
   9137458.380 6  -6027545.700 5  23681676.817       -2503.932
 93  5  2  3 36 30.0030000  0  5  3 16 24 20 17                      0.003661970
  14896565.843 7  -8528593.276 6  23437117.731       -2118.109
 -19145248.290 8 -14864750.437 8  22316397.850         974.121
  35298653.481 6  -1125076.846 5  24877391.909        2686.451
 -17420357.861 8 -15737062.608 8  22054767.242        1797.434
   9062418.157 6  -6086018.535 5  23667396.961       -2498.570
 93  5  2  3 37  0.0030000  0  5  3 16 24 20 17                      0.003661260
  14833047.888 7  -8578087.734 6  23425030.448       -2116.864
 -19115751.657 8 -14841766.055 8  22322010.603         992.036
  35379232.344 6  -1062288.100 5  24892725.965        2685.137
 -17366181.749 8 -15694847.467 8  22065076.807        1814.055
   8987554.274 6  -6144353.942 5  23653150.986       -2492.451
 93  5  2  3 37 30.0030000  0  5  3 16 24 20 17                      0.003660500
  14769567.299 7  -8627553.076 6  23412950.353       -2115.395
 -19085717.199 8 -14818362.546 8  22327726.357        1010.295
  35459776.181 6   -999526.605 5  24908052.614        2684.476
 -17311506.622 8 -15652243.481 8  22075480.761        1830.904
   8912885.640 6  -6202537.233 5  23638941.649       -2485.346
 93  5  2  3 38  0.0030000  0  5  3 16 24 20 17                      0.003659730
  14706131.729 7  -8676983.369 6  23400879.099       -2113.850
 -19055135.817 8 -14794532.889 8  22333546.039        1028.297
  35540303.789 6   -936777.809 5  24923377.035        2684.065
 -17256327.112 8 -15609246.470 8  22085981.084        1847.715
   8838455.940 6  -6260534.321 5  23624777.986       -2476.408
 93  5  2  3 38 30.0030000  0  5  3 16 24 20 17                      0.003658990
  14642740.673 7  -8726378.952 6  23388816.361       -2112.219
 -19024020.642 8 -14770287.277 8  22339467.100        1046.367
  35620817.559 6   -874039.899 5  24938698.808        2683.625
 -17200646.762 8 -15565859.199 8  22096576.858        1864.526
   8764303.890 6  -6318315.097 5  23610667.635       -2466.844
 93  5  2  3 39  0.0030000  0  5  3 16 24 20 17                      0.003658270
  14579396.421 7  -8775738.074 6  23376762.224       -2110.972
 -18992367.806 8 -14745622.733 8  22345490.169        1063.758
  35701309.928 6   -811318.548 5  24954015.489        2682.713
 -17144465.999 8 -15522081.981 8  22107267.706        1880.891
   8690428.287 6  -6375880.406 5  23596609.783       -2458.258
 93  5  2  3 39 30.0030000  0  5  3 16 24 20 17                      0.003657560
  14516095.904 7  -8825063.091 6  23364716.772       -2109.272
 -18960188.736 8 -14720548.099 8  22351613.720        1081.465
  35781791.796 6   -748605.361 5  24969330.532        2682.708
 -17087790.979 8 -15477919.647 8  22118052.973        1897.481
   8616803.671 6  -6433250.164 5  23582599.336       -2450.104
 93  5  2  3 40  0.0030000  0  5  3 16 24 20 17                      0.003656840
  14452838.951 7  -8874354.209 6  23352679.115       -2107.888
 -18927491.795 8 -14695069.957 8  22357835.582        1098.473
  35862257.058 6   -685905.113 5  24984642.291        2681.758
 -17030624.288 8 -15433374.159 8  22128931.259        1913.759
   8543404.659 6  -6490444.078 5  23568631.651       -2443.248
 93  5  2  3 40 30.0030000  0  5  3 16 24 20 17                      0.003656100
  14389629.200 7  -8923608.509 6  23340650.595       -2106.347
 -18894282.026 8 -14669192.209 8  22364155.397        1115.495
  35942704.714 5   -623218.684 5  24999950.739        2681.325
 -16972965.159 8 -15388444.975 8  22139903.415        1930.081
   8470194.203 6  -6547491.132 5  23554699.728       -2437.646
